Time,TemperatureF,DewpointF,PressureIn,WindDirection,WindDirectionDegrees,WindSpeedMPH,WindSpeedGustMPH,Humidity,HourlyPrecipIn,Conditions,Clouds,dailyrainin,SoftwareType,DateUTC
2013-05-01 00:00:00,69.1,53.2,29.00,SSW,202,6.5,6.5,57,0.00,,,0.00,VWS V14.01,2013-05-01 04:00:00,
2013-05-01 00:01:00,69.1,53.2,29.00,SSE,158,2.9,11.0,57,0.00,,,0.00,VWS V14.01,2013-05-01 04:01:00,
2013-05-01 00:02:00,69.1,53.2,29.00,South,180,7.4,14.8,57,0.00,,,0.00,VWS V14.01,2013-05-01 04:02:00,
2013-05-01 00:03:00,69.1,53.2,29.00,SE,135,12.1,12.5,57,0.00,,,0.00,VWS V14.01,2013-05-01 04:03:00,
2013-05-01 00:04:00,69.1,53.2,29.00,SSW,202,4.9,12.1,57,0.00,,,0.00,VWS V14.01,2013-05-01 04:04:00,
2013-05-01 00:05:00,69.1,53.2,29.00,WSW,248,5.8,10.1,57,0.00,,,0.00,VWS V14.01,2013-05-01 04:05:00,
2013-05-01 00:06:00,69.1,53.2,29.00,SE,135,1.6,10.5,57,0.00,,,0.00,VWS V14.01,2013-05-01 04:06:00,
2013-05-01 00:07:00,69.1,53.7,29.03,SSE,158,10.1,10.1,58,0.00,,,0.00,VWS V14.01,2013-05-01 04:07:00,
2013-05-01 00:08:00,69.1,53.7,29.03,SSE,158,15.7,15.7,58,0.00,,,0.00,VWS V14.01,2013-05-01 04:08:00,
2013-05-01 00:09:00,69.1,53.7,29.03,SSW,202,3.4,15.7,58,0.00,,,0.00,VWS V14.01,2013-05-01 04:09:00,
2013-05-01 00:10:00,69.1,53.7,29.03,South,180,8.7,8.7,58,0.00,,,0.00,VWS V14.01,2013-05-01 04:10:00,
2013-05-01 00:11:00,69.1,53.7,29.03,SSW,202,6.3,10.7,58,0.00,,,0.00,VWS V14.01,2013-05-01 04:11:00,
2013-05-01 00:12:00,69.1,53.7,29.03,SSW,202,8.7,8.7,58,0.00,,,0.00,VWS V14.01,2013-05-01 04:12:00,
2013-05-01 00:13:00,69.1,53.7,29.03,South,180,10.1,12.8,58,0.00,,,0.00,VWS V14.01,2013-05-01 04:13:00,
2013-05-01 00:14:00,69.1,53.7,29.03,SSW,202,15.4,15.4,58,0.00,,,0.00,VWS V14.01,2013-05-01 04:14:00,
2013-05-01 00:15:00,69.3,53.4,29.03,SW,225,3.6,15.4,57,0.00,,,0.00,VWS V14.01,2013-05-01 04:15:00,
2013-05-01 00:16:00,69.3,53.4,29.03,SSW,202,6.0,7.8,57,0.00,,,0.00,VWS V14.01,2013-05-01 04:16:00,
2013-05-01 00:17:00,69.3,53.4,29.03,SSW,202,6.5,7.8,57,0.00,,,0.00,VWS V14.01,2013-05-01 04:17:00,
2013-05-01 00:18:00,69.3,53.4,29.03,SE,135,8.7,14.5,57,0.00,,,0.00,VWS V14.01,2013-05-01 04:18:00,
2013-05-01 00:19:00,69.3,53.4,29.03,South,180,14.1,14.1,57,0.00,,,0.00,VWS V14.01,2013-05-01 04:19:00,
2013-05-01 00:20:00,69.3,53.4,29.03,SW,225,6.3,14.1,57,0.00,,,0.00,VWS V14.01,2013-05-01 04:20:00,
2013-05-01 00:21:00,69.3,53.4,29.03,SSE,158,4.0,6.3,57,0.00,,,0.00,VWS V14.01,2013-05-01 04:21:00,
2013-05-01 00:22:00,69.3,53.4,29.03,SW,225,11.0,11.0,57,0.00,,,0.00,VWS V14.01,2013-05-01 04:22:00,
2013-05-01 00:23:00,69.4,53.6,29.03,SSW,202,15.4,15.4,57,0.00,,,0.00,VWS V14.01,2013-05-01 04:23:00,
2013-05-01 00:24:00,69.4,53.6,29.03,SSW,202,17.5,17.7,57,0.00,,,0.00,VWS V14.01,2013-05-01 04:24:00,
2013-05-01 00:25:00,69.4,53.6,29.03,SSE,158,9.8,17.5,57,0.00,,,0.00,VWS V14.01,2013-05-01 04:25:00,
2013-05-01 00:26:00,69.4,53.6,29.03,SSW,202,9.6,9.8,57,0.00,,,0.00,VWS V14.01,2013-05-01 04:26:00,
2013-05-01 00:27:00,69.4,53.6,29.03,SSW,202,7.8,11.4,57,0.00,,,0.00,VWS V14.01,2013-05-01 04:27:00,
2013-05-01 00:28:00,69.4,53.6,29.03,SSW,202,8.7,10.3,57,0.00,,,0.00,VWS V14.01,2013-05-01 04:28:00,
2013-05-01 00:29:00,69.4,53.6,29.03,SSW,202,5.6,8.7,57,0.00,,,0.00,VWS V14.01,2013-05-01 04:29:00,
2013-05-01 00:30:00,69.4,53.6,29.03,SSW,202,5.6,5.6,57,0.00,,,0.00,VWS V14.01,2013-05-01 04:30:00,
2013-05-01 00:31:00,69.3,53.4,29.03,SE,135,8.7,11.0,57,0.00,,,0.00,VWS V14.01,2013-05-01 04:31:00,
2013-05-01 00:32:00,69.3,53.4,29.03,SSE,158,10.3,10.3,57,0.00,,,0.00,VWS V14.01,2013-05-01 04:32:00,
2013-05-01 00:33:00,69.3,53.4,29.03,SSE,158,8.1,10.3,57,0.00,,,0.00,VWS V14.01,2013-05-01 04:33:00,
2013-05-01 00:34:00,69.3,53.4,29.03,SSE,158,10.7,10.7,57,0.00,,,0.00,VWS V14.01,2013-05-01 04:34:00,
2013-05-01 00:35:00,69.3,53.4,29.03,SSW,202,8.7,10.7,57,0.00,,,0.00,VWS V14.01,2013-05-01 04:35:00,
2013-05-01 00:36:00,69.3,53.4,29.03,SSE,158,4.3,8.7,57,0.00,,,0.00,VWS V14.01,2013-05-01 04:36:00,
2013-05-01 00:37:00,69.3,53.4,29.03,South,180,3.6,9.4,57,0.00,,,0.00,VWS V14.01,2013-05-01 04:37:00,
2013-05-01 00:38:00,69.3,53.4,29.03,South,180,8.5,11.9,57,0.00,,,0.00,VWS V14.01,2013-05-01 04:38:00,
2013-05-01 00:39:00,69.3,53.4,29.03,SSE,158,8.5,8.5,57,0.00,,,0.00,VWS V14.01,2013-05-01 04:39:00,
2013-05-01 00:40:00,69.3,53.4,29.03,SSE,158,8.5,8.5,57,0.00,,,0.00,VWS V14.01,2013-05-01 04:40:00,
2013-05-01 00:41:00,69.1,53.2,29.00,SSW,202,8.5,8.5,57,0.00,,,0.24,VWS V14.01,2013-05-01 04:41:00,
2013-05-01 00:43:00,69.3,53.9,29.03,SW,225,9.2,10.5,58,0.00,,,0.00,VWS V14.01,2013-05-01 04:43:00,
2013-05-01 00:44:00,69.1,53.7,29.03,SSW,202,5.8,9.2,58,0.00,,,0.00,VWS V14.01,2013-05-01 04:44:00,
2013-05-01 00:45:00,69.1,53.7,29.03,ESE,112,10.3,14.8,58,0.00,,,0.00,VWS V14.01,2013-05-01 04:45:00,
2013-05-01 00:46:00,69.3,53.9,29.03,SSW,202,4.9,10.5,58,0.00,,,0.00,VWS V14.01,2013-05-01 04:46:00,
2013-05-01 00:47:00,69.3,53.4,29.00,SSE,158,9.4,14.8,57,0.00,,,0.24,VWS V14.01,2013-05-01 04:47:00,
2013-05-01 00:48:00,69.3,53.9,29.03,SSW,202,14.5,14.5,58,0.00,,,0.00,VWS V14.01,2013-05-01 04:48:00,
2013-05-01 00:49:00,69.1,53.7,29.03,SSW,202,8.5,14.5,58,0.00,,,0.00,VWS V14.01,2013-05-01 04:49:00,
2013-05-01 00:50:00,69.3,53.9,29.03,South,180,10.3,10.3,58,0.00,,,0.00,VWS V14.01,2013-05-01 04:50:00,
2013-05-01 00:51:00,69.3,53.9,29.03,SE,135,7.4,10.3,58,0.00,,,0.00,VWS V14.01,2013-05-01 04:51:00,
2013-05-01 00:52:00,69.1,53.7,29.03,SSW,202,3.4,7.4,58,0.00,,,0.00,VWS V14.01,2013-05-01 04:52:00,
2013-05-01 00:53:00,69.1,53.2,29.00,SSW,202,17.5,17.5,57,0.00,,,0.24,VWS V14.01,2013-05-01 04:53:00,
2013-05-01 00:54:00,69.1,53.7,29.03,South,180,7.4,13.0,58,0.00,,,0.00,VWS V14.01,2013-05-01 04:54:00,
2013-05-01 00:55:00,69.1,53.7,29.03,SSW,202,9.8,13.0,58,0.00,,,0.00,VWS V14.01,2013-05-01 04:55:00,
2013-05-01 00:57:00,69.1,53.7,29.03,SSW,202,7.8,15.9,58,0.00,,,0.00,VWS V14.01,2013-05-01 04:57:00,
2013-05-01 00:58:00,69.1,53.2,29.00,SSW,202,4.3,8.5,57,0.00,,,0.24,VWS V14.01,2013-05-01 04:58:00,
2013-05-01 00:59:00,69.1,53.7,29.03,South,180,5.4,8.5,58,0.00,,,0.00,VWS V14.01,2013-05-01 04:59:00,
2013-05-01 01:00:00,69.1,53.7,29.03,SSE,158,6.0,9.0,58,0.00,,,0.00,VWS V14.01,2013-05-01 05:00:00,
2013-05-01 01:01:00,69.1,53.7,29.03,South,180,6.0,14.5,58,0.00,,,0.00,VWS V14.01,2013-05-01 05:01:00,
2013-05-01 01:02:00,69.3,53.9,29.03,SSW,202,12.8,12.8,58,0.00,,,0.00,VWS V14.01,2013-05-01 05:02:00,
2013-05-01 01:03:00,69.1,53.2,29.00,SW,225,6.0,12.1,57,0.00,,,0.00,VWS V14.01,2013-05-01 05:03:00,
2013-05-01 01:04:00,69.3,53.9,29.03,SSW,202,6.0,17.7,58,0.00,,,0.00,VWS V14.01,2013-05-01 05:04:00,
2013-05-01 01:05:00,69.3,53.9,29.03,SW,225,10.1,10.1,58,0.00,,,0.00,VWS V14.01,2013-05-01 05:05:00,
2013-05-01 01:06:00,69.3,53.9,29.03,SW,225,13.0,13.0,58,0.00,,,0.00,VWS V14.01,2013-05-01 05:06:00,
2013-05-01 01:07:00,69.3,53.4,29.03,SSE,158,10.5,13.0,57,0.00,,,0.00,VWS V14.01,2013-05-01 05:07:00,
2013-05-01 01:08:00,69.1,53.7,29.03,SSE,158,8.7,15.7,58,0.00,,,0.00,VWS V14.01,2013-05-01 05:08:00,
2013-05-01 01:09:00,69.1,53.7,29.03,SSE,158,4.0,8.5,58,0.00,,,0.00,VWS V14.01,2013-05-01 05:09:00,
2013-05-01 01:10:00,69.1,53.7,29.03,SW,225,7.2,11.0,58,0.00,,,0.00,VWS V14.01,2013-05-01 05:10:00,
2013-05-01 01:11:00,69.1,53.7,29.03,South,180,11.4,11.4,58,0.00,,,0.00,VWS V14.01,2013-05-01 05:11:00,
2013-05-01 01:12:00,69.1,53.7,29.03,South,180,6.3,12.5,58,0.00,,,0.00,VWS V14.01,2013-05-01 05:12:00,
2013-05-01 01:13:00,69.1,53.7,29.03,South,180,7.4,10.1,58,0.00,,,0.00,VWS V14.01,2013-05-01 05:13:00,
2013-05-01 01:14:00,69.3,53.9,29.03,SSW,202,5.8,12.3,58,0.00,,,0.00,VWS V14.01,2013-05-01 05:14:00,
2013-05-01 01:15:00,69.1,53.7,29.03,SSW,202,5.8,9.8,58,0.00,,,0.00,VWS V14.01,2013-05-01 05:15:00,
2013-05-01 01:16:00,69.1,53.7,29.03,SSE,158,9.6,12.1,58,0.00,,,0.00,VWS V14.01,2013-05-01 05:16:00,
2013-05-01 01:17:00,69.1,53.7,29.03,SSW,202,6.5,9.6,58,0.00,,,0.00,VWS V14.01,2013-05-01 05:17:00,
2013-05-01 01:18:00,69.3,53.4,29.03,South,180,12.8,12.8,57,0.00,,,0.00,VWS V14.01,2013-05-01 05:18:00,
2013-05-01 01:19:00,69.1,53.7,29.03,South,180,9.6,9.6,58,0.00,,,0.00,VWS V14.01,2013-05-01 05:19:00,
2013-05-01 01:20:00,69.1,53.7,29.03,SSE,158,6.5,9.6,58,0.00,,,0.00,VWS V14.01,2013-05-01 05:20:00,
2013-05-01 01:21:00,69.1,53.7,29.03,SSE,158,6.5,6.5,58,0.00,,,0.00,VWS V14.01,2013-05-01 05:21:00,
2013-05-01 01:22:00,69.1,53.7,29.03,SSW,202,11.0,11.0,58,0.00,,,0.00,VWS V14.01,2013-05-01 05:22:00,
2013-05-01 01:23:00,69.3,53.4,29.03,SSW,202,12.5,12.5,57,0.00,,,0.00,VWS V14.01,2013-05-01 05:23:00,
2013-05-01 01:24:00,69.1,53.7,29.03,South,180,7.4,8.1,58,0.00,,,0.00,VWS V14.01,2013-05-01 05:24:00,
2013-05-01 01:25:00,69.1,53.7,29.03,SSW,202,16.8,16.8,58,0.00,,,0.00,VWS V14.01,2013-05-01 05:25:00,
2013-05-01 01:26:00,69.1,53.7,29.03,South,180,3.8,16.8,58,0.00,,,0.00,VWS V14.01,2013-05-01 05:26:00,
2013-05-01 01:27:00,69.1,53.7,29.03,SSW,202,8.1,10.5,58,0.00,,,0.00,VWS V14.01,2013-05-01 05:27:00,
2013-05-01 01:28:00,69.4,53.6,29.03,South,180,5.8,8.7,57,0.00,,,0.00,VWS V14.01,2013-05-01 05:28:00,
2013-05-01 01:29:00,69.1,53.7,29.03,SSW,202,3.8,6.0,58,0.00,,,0.00,VWS V14.01,2013-05-01 05:29:00,
2013-05-01 01:30:00,68.9,53.5,29.03,SSE,158,3.4,8.5,58,0.00,,,0.00,VWS V14.01,2013-05-01 05:30:00,
2013-05-01 01:31:00,68.9,53.5,29.03,SW,225,6.3,8.7,58,0.00,,,0.00,VWS V14.01,2013-05-01 05:31:00,
2013-05-01 01:32:00,68.9,53.5,29.03,SSW,202,11.9,11.9,58,0.00,,,0.00,VWS V14.01,2013-05-01 05:32:00,
2013-05-01 01:33:00,69.3,53.4,29.03,SSW,202,3.4,8.1,57,0.00,,,0.00,VWS V14.01,2013-05-01 05:33:00,
2013-05-01 01:34:00,68.9,53.5,29.03,SSW,202,6.5,12.8,58,0.00,,,0.00,VWS V14.01,2013-05-01 05:34:00,
2013-05-01 01:35:00,68.9,53.5,29.03,South,180,8.5,8.7,58,0.00,,,0.00,VWS V14.01,2013-05-01 05:35:00,
2013-05-01 01:36:00,68.9,53.5,29.03,SSW,202,8.5,8.5,58,0.00,,,0.00,VWS V14.01,2013-05-01 05:36:00,
2013-05-01 01:37:00,68.9,54.0,29.09,SW,225,8.1,11.0,59,0.00,,,0.00,VWS V14.01,2013-05-01 05:37:00,
2013-05-01 01:38:00,69.3,53.4,29.03,SSW,202,3.4,8.5,57,0.00,,,0.00,VWS V14.01,2013-05-01 05:38:00,
2013-05-01 01:39:00,68.9,54.0,29.09,SSW,202,9.4,9.4,59,0.00,,,0.00,VWS V14.01,2013-05-01 05:39:00,
2013-05-01 01:40:00,68.9,54.0,29.09,ESE,112,9.8,9.8,59,0.00,,,0.00,VWS V14.01,2013-05-01 05:40:00,
2013-05-01 01:41:00,68.9,54.0,29.09,SSW,202,6.0,9.8,59,0.00,,,0.00,VWS V14.01,2013-05-01 05:41:00,
2013-05-01 01:42:00,68.9,54.0,29.09,SSE,158,5.6,11.0,59,0.00,,,0.00,VWS V14.01,2013-05-01 05:42:00,
2013-05-01 01:43:00,69.1,53.7,29.03,SSW,202,2.7,9.2,58,0.00,,,0.00,VWS V14.01,2013-05-01 05:43:00,
2013-05-01 01:44:00,68.9,54.0,29.09,SSW,202,11.0,12.1,59,0.00,,,0.00,VWS V14.01,2013-05-01 05:44:00,
2013-05-01 01:45:00,68.9,54.0,29.09,South,180,10.5,11.0,59,0.00,,,0.00,VWS V14.01,2013-05-01 05:45:00,
2013-05-01 01:46:00,68.9,54.0,29.09,South,180,8.1,13.2,59,0.00,,,0.00,VWS V14.01,2013-05-01 05:46:00,
2013-05-01 01:47:00,68.9,54.0,29.09,SSE,158,14.3,14.3,59,0.00,,,0.00,VWS V14.01,2013-05-01 05:47:00,
2013-05-01 01:48:00,69.3,53.9,29.03,SSW,202,14.5,14.5,58,0.00,,,0.00,VWS V14.01,2013-05-01 05:48:00,
2013-05-01 01:49:00,68.9,54.0,29.09,SSW,202,5.6,15.2,59,0.00,,,0.00,VWS V14.01,2013-05-01 05:49:00,
2013-05-01 01:50:00,68.9,54.0,29.09,South,180,8.5,10.1,59,0.00,,,0.00,VWS V14.01,2013-05-01 05:50:00,
2013-05-01 01:51:00,68.9,54.0,29.09,SSW,202,9.0,16.8,59,0.00,,,0.00,VWS V14.01,2013-05-01 05:51:00,
2013-05-01 01:52:00,68.9,54.0,29.09,SSE,158,5.8,12.1,59,0.00,,,0.00,VWS V14.01,2013-05-01 05:52:00,
2013-05-01 01:53:00,69.1,53.7,29.03,SSW,202,9.8,13.0,58,0.00,,,0.00,VWS V14.01,2013-05-01 05:53:00,
2013-05-01 01:54:00,68.7,53.8,29.09,SSE,158,7.8,8.1,59,0.00,,,0.00,VWS V14.01,2013-05-01 05:54:00,
2013-05-01 01:55:00,68.7,53.8,29.09,SSW,202,8.7,10.7,59,0.00,,,0.00,VWS V14.01,2013-05-01 05:55:00,
2013-05-01 01:56:00,68.7,53.8,29.09,SSE,158,7.8,11.0,59,0.00,,,0.00,VWS V14.01,2013-05-01 05:56:00,
2013-05-01 01:57:00,68.7,53.8,29.09,SSE,158,8.5,12.5,59,0.00,,,0.00,VWS V14.01,2013-05-01 05:57:00,
2013-05-01 01:58:00,69.1,53.7,29.03,SSE,158,4.3,6.3,58,0.00,,,0.00,VWS V14.01,2013-05-01 05:58:00,
2013-05-01 01:59:00,68.7,53.8,29.09,SSW,202,6.5,12.5,59,0.00,,,0.00,VWS V14.01,2013-05-01 05:59:00,
2013-05-01 02:00:00,68.7,53.8,29.09,SSW,202,8.1,12.8,59,0.00,,,0.00,VWS V14.01,2013-05-01 06:00:00,
2013-05-01 02:01:00,68.5,53.7,29.09,South,180,6.3,9.6,59,0.00,,,0.00,VWS V14.01,2013-05-01 06:01:00,
2013-05-01 02:02:00,68.5,53.7,29.09,SW,225,4.3,6.3,59,0.00,,,0.00,VWS V14.01,2013-05-01 06:02:00,
2013-05-01 02:03:00,69.3,53.9,29.03,SE,135,10.5,17.7,58,0.00,,,0.00,VWS V14.01,2013-05-01 06:03:00,
2013-05-01 02:04:00,68.7,53.8,29.09,South,180,10.5,10.5,59,0.00,,,0.00,VWS V14.01,2013-05-01 06:04:00,
2013-05-01 02:05:00,68.7,53.8,29.09,SSE,158,8.1,10.5,59,0.00,,,0.00,VWS V14.01,2013-05-01 06:05:00,
2013-05-01 02:06:00,68.7,53.8,29.09,SSW,202,8.7,8.7,59,0.00,,,0.00,VWS V14.01,2013-05-01 06:06:00,
2013-05-01 02:07:00,68.5,53.7,29.09,SW,225,10.5,14.1,59,0.00,,,0.00,VWS V14.01,2013-05-01 06:07:00,
2013-05-01 02:08:00,69.3,53.9,29.03,South,180,8.5,8.5,58,0.00,,,0.00,VWS V14.01,2013-05-01 06:08:00,
2013-05-01 02:09:00,68.5,53.7,29.09,South,180,8.5,12.8,59,0.00,,,0.00,VWS V14.01,2013-05-01 06:09:00,
2013-05-01 02:10:00,68.5,53.7,29.09,South,180,7.4,11.9,59,0.00,,,0.00,VWS V14.01,2013-05-01 06:10:00,
2013-05-01 02:11:00,68.5,54.1,29.09,SSE,158,7.8,12.8,60,0.00,,,0.00,VWS V14.01,2013-05-01 06:11:00,
2013-05-01 02:12:00,68.5,53.7,29.09,SSE,158,7.2,9.4,59,0.00,,,0.00,VWS V14.01,2013-05-01 06:12:00,
2013-05-01 02:13:00,69.3,53.9,29.03,SW,225,5.8,12.3,58,0.00,,,0.00,VWS V14.01,2013-05-01 06:13:00,
2013-05-01 02:14:00,68.5,54.1,29.09,South,180,13.0,13.0,60,0.00,,,0.00,VWS V14.01,2013-05-01 06:14:00,
2013-05-01 02:15:00,68.5,54.1,29.09,SW,225,6.5,13.0,60,0.00,,,0.00,VWS V14.01,2013-05-01 06:15:00,
2013-05-01 02:16:00,68.5,54.1,29.09,WSW,248,8.1,8.1,60,0.00,,,0.00,VWS V14.01,2013-05-01 06:16:00,
2013-05-01 02:17:00,68.5,54.1,29.09,SSE,158,8.1,8.1,60,0.00,,,0.00,VWS V14.01,2013-05-01 06:17:00,
2013-05-01 02:18:00,69.1,53.7,29.03,South,180,4.0,8.1,58,0.00,,,0.00,VWS V14.01,2013-05-01 06:18:00,
2013-05-01 02:19:00,68.5,54.1,29.09,South,180,3.4,8.5,60,0.00,,,0.00,VWS V14.01,2013-05-01 06:19:00,
2013-05-01 02:20:00,68.4,54.0,29.09,SSW,202,4.0,5.6,60,0.00,,,0.00,VWS V14.01,2013-05-01 06:20:00,
2013-05-01 02:21:00,68.4,54.0,29.09,South,180,2.7,9.4,60,0.00,,,0.00,VWS V14.01,2013-05-01 06:21:00,
2013-05-01 02:22:00,68.4,54.0,29.09,SSE,158,2.0,4.9,60,0.00,,,0.00,VWS V14.01,2013-05-01 06:22:00,
2013-05-01 02:23:00,69.1,53.7,29.03,South,180,6.0,8.1,58,0.00,,,0.00,VWS V14.01,2013-05-01 06:23:00,
2013-05-01 02:24:00,68.4,54.0,29.09,SSE,158,8.1,12.8,60,0.00,,,0.00,VWS V14.01,2013-05-01 06:24:00,
2013-05-01 02:25:00,68.4,54.0,29.09,SW,225,5.4,8.1,60,0.00,,,0.00,VWS V14.01,2013-05-01 06:25:00,
2013-05-01 02:26:00,68.4,54.0,29.09,SW,225,5.4,5.4,60,0.00,,,0.00,VWS V14.01,2013-05-01 06:26:00,
2013-05-01 02:27:00,68.4,54.0,29.09,South,180,13.9,13.9,60,0.00,,,0.00,VWS V14.01,2013-05-01 06:27:00,
2013-05-01 02:28:00,69.1,53.7,29.03,SSW,202,6.0,6.0,58,0.00,,,0.00,VWS V14.01,2013-05-01 06:28:00,
2013-05-01 02:29:00,68.2,53.8,29.09,SSW,202,3.6,11.2,60,0.00,,,0.00,VWS V14.01,2013-05-01 06:29:00,
2013-05-01 02:30:00,68.2,53.8,29.09,WSW,248,6.7,11.0,60,0.00,,,0.00,VWS V14.01,2013-05-01 06:30:00,
2013-05-01 02:31:00,68.2,53.8,29.09,SW,225,8.1,9.2,60,0.00,,,0.00,VWS V14.01,2013-05-01 06:31:00,
2013-05-01 02:32:00,68.2,53.8,29.09,South,180,10.7,10.7,60,0.00,,,0.00,VWS V14.01,2013-05-01 06:32:00,
2013-05-01 02:33:00,68.9,53.5,29.03,SSW,202,6.5,12.8,58,0.00,,,0.00,VWS V14.01,2013-05-01 06:33:00,
2013-05-01 02:34:00,68.2,54.2,29.09,SE,135,11.0,13.9,61,0.00,,,0.00,VWS V14.01,2013-05-01 06:34:00,
2013-05-01 02:35:00,68.2,54.2,29.09,SSW,202,6.5,11.0,61,0.00,,,0.00,VWS V14.01,2013-05-01 06:35:00,
2013-05-01 02:36:00,68.2,54.2,29.09,South,180,4.0,10.1,61,0.00,,,0.00,VWS V14.01,2013-05-01 06:36:00,
2013-05-01 02:37:00,68.2,54.2,29.06,South,180,6.0,10.1,61,0.00,,,0.00,VWS V14.01,2013-05-01 06:37:00,
2013-05-01 02:38:00,68.9,54.0,29.09,SSW,202,3.6,8.1,59,0.00,,,0.00,VWS V14.01,2013-05-01 06:38:00,
2013-05-01 02:39:00,68.2,54.2,29.06,SSW,202,10.5,13.0,61,0.00,,,0.00,VWS V14.01,2013-05-01 06:39:00,
2013-05-01 02:40:00,68.0,54.1,29.06,SSW,202,7.8,10.5,61,0.00,,,0.00,VWS V14.01,2013-05-01 06:40:00,
2013-05-01 02:41:00,68.0,54.1,29.06,SSE,158,11.4,11.4,61,0.00,,,0.00,VWS V14.01,2013-05-01 06:41:00,
2013-05-01 02:42:00,68.0,54.1,29.06,SW,225,3.1,11.4,61,0.00,,,0.00,VWS V14.01,2013-05-01 06:42:00,
2013-05-01 02:43:00,68.2,54.2,29.06,SSE,158,6.0,6.0,61,0.00,,,0.00,VWS V14.01,2013-05-01 06:43:00,
2013-05-01 02:44:00,68.9,54.0,29.09,SSW,202,11.0,12.1,59,0.00,,,0.00,VWS V14.01,2013-05-01 06:44:00,
2013-05-01 02:45:00,68.0,54.1,29.06,SE,135,5.8,5.8,61,0.00,,,0.00,VWS V14.01,2013-05-01 06:45:00,
2013-05-01 02:46:00,68.2,54.2,29.06,South,180,8.7,8.7,61,0.00,,,0.00,VWS V14.01,2013-05-01 06:46:00,
2013-05-01 02:47:00,68.0,54.1,29.06,WSW,248,5.8,13.2,61,0.00,,,0.00,VWS V14.01,2013-05-01 06:47:00,
2013-05-01 02:48:00,68.0,54.1,29.06,SSW,202,11.2,11.2,61,0.00,,,0.00,VWS V14.01,2013-05-01 06:48:00,
2013-05-01 02:49:00,68.9,54.0,29.09,SSW,202,10.1,15.2,59,0.00,,,0.00,VWS V14.01,2013-05-01 06:49:00,
2013-05-01 02:50:00,68.0,54.1,29.06,SSW,202,10.3,10.3,61,0.00,,,0.00,VWS V14.01,2013-05-01 06:50:00,
2013-05-01 02:51:00,68.0,54.1,29.06,South,180,8.7,10.3,61,0.00,,,0.00,VWS V14.01,2013-05-01 06:51:00,
2013-05-01 02:52:00,68.0,54.1,29.06,SSW,202,6.9,8.7,61,0.00,,,0.00,VWS V14.01,2013-05-01 06:52:00,
2013-05-01 02:53:00,68.0,54.1,29.06,SSE,158,7.6,7.6,61,0.00,,,0.00,VWS V14.01,2013-05-01 06:53:00,
2013-05-01 02:54:00,68.7,53.8,29.09,SSE,158,7.8,8.1,59,0.00,,,0.00,VWS V14.01,2013-05-01 06:54:00,
2013-05-01 02:55:00,68.0,54.1,29.06,SSW,202,5.6,7.6,61,0.00,,,0.00,VWS V14.01,2013-05-01 06:55:00,
2013-05-01 02:56:00,68.0,54.1,29.06,SSE,158,3.8,11.0,61,0.00,,,0.00,VWS V14.01,2013-05-01 06:56:00,
2013-05-01 02:57:00,68.0,54.1,29.06,South,180,7.2,15.2,61,0.00,,,0.00,VWS V14.01,2013-05-01 06:57:00,
2013-05-01 02:58:00,68.0,54.1,29.06,SW,225,8.1,8.1,61,0.00,,,0.00,VWS V14.01,2013-05-01 06:58:00,
2013-05-01 02:59:00,68.7,53.8,29.09,SSW,202,9.4,12.5,59,0.00,,,0.00,VWS V14.01,2013-05-01 06:59:00,
2013-05-01 03:00:00,68.0,54.1,29.06,South,180,7.4,13.0,61,0.00,,,0.00,VWS V14.01,2013-05-01 07:00:00,
2013-05-01 03:01:00,68.0,54.5,29.06,SSW,202,10.7,10.7,62,0.00,,,0.00,VWS V14.01,2013-05-01 07:01:00,
2013-05-01 03:02:00,67.8,54.3,29.06,SSW,202,4.3,11.0,62,0.00,,,0.00,VWS V14.01,2013-05-01 07:02:00,
2013-05-01 03:03:00,67.8,54.3,29.06,SSE,158,7.4,7.4,62,0.00,,,0.00,VWS V14.01,2013-05-01 07:03:00,
2013-05-01 03:04:00,68.7,53.8,29.09,South,180,10.5,10.5,59,0.00,,,0.00,VWS V14.01,2013-05-01 07:04:00,
2013-05-01 03:05:00,67.8,54.3,29.06,SSW,202,9.2,10.5,62,0.00,,,0.00,VWS V14.01,2013-05-01 07:05:00,
2013-05-01 03:06:00,67.8,54.3,29.06,SSE,158,6.0,9.2,62,0.00,,,0.00,VWS V14.01,2013-05-01 07:06:00,
2013-05-01 03:08:00,67.8,54.3,29.06,SSE,158,5.4,11.0,62,0.00,,,0.00,VWS V14.01,2013-05-01 07:08:00,
2013-05-01 03:09:00,68.5,53.7,29.09,SSE,158,10.5,12.8,59,0.00,,,0.00,VWS V14.01,2013-05-01 07:09:00,
2013-05-01 03:10:00,67.8,54.3,29.06,SSW,202,5.6,10.5,62,0.00,,,0.00,VWS V14.01,2013-05-01 07:10:00,
2013-05-01 03:11:00,67.8,54.3,29.06,South,180,13.0,13.0,62,0.00,,,0.00,VWS V14.01,2013-05-01 07:11:00,
2013-05-01 03:12:00,67.8,54.3,29.06,SSW,202,8.1,14.3,62,0.00,,,0.00,VWS V14.01,2013-05-01 07:12:00,
2013-05-01 03:13:00,67.8,54.3,29.06,SW,225,5.6,8.1,62,0.00,,,0.00,VWS V14.01,2013-05-01 07:13:00,
2013-05-01 03:14:00,68.5,54.1,29.09,South,180,13.0,13.0,60,0.00,,,0.00,VWS V14.01,2013-05-01 07:14:00,
2013-05-01 03:15:00,67.8,54.8,29.06,SE,135,5.6,12.5,63,0.00,,,0.00,VWS V14.01,2013-05-01 07:15:00,
2013-05-01 03:16:00,67.6,54.6,29.06,SSW,202,5.4,7.8,63,0.00,,,0.00,VWS V14.01,2013-05-01 07:16:00,
2013-05-01 03:17:00,67.6,54.6,29.06,SSW,202,4.9,5.4,63,0.00,,,0.00,VWS V14.01,2013-05-01 07:17:00,
2013-05-01 03:18:00,67.6,54.6,29.06,SSW,202,6.3,6.5,63,0.00,,,0.00,VWS V14.01,2013-05-01 07:18:00,
2013-05-01 03:19:00,68.5,54.1,29.09,South,180,3.4,8.5,60,0.00,,,0.00,VWS V14.01,2013-05-01 07:19:00,
2013-05-01 03:20:00,67.6,54.6,29.06,SW,225,6.0,7.6,63,0.00,,,0.00,VWS V14.01,2013-05-01 07:20:00,
2013-05-01 03:21:00,67.6,54.6,29.06,SSW,202,4.0,6.0,63,0.00,,,0.00,VWS V14.01,2013-05-01 07:21:00,
2013-05-01 03:22:00,67.6,54.6,29.09,SSW,202,8.7,8.7,63,0.00,,,0.00,VWS V14.01,2013-05-01 07:22:00,
2013-05-01 03:23:00,67.6,54.6,29.09,SSW,202,6.0,8.7,63,0.00,,,0.00,VWS V14.01,2013-05-01 07:23:00,
2013-05-01 03:24:00,68.4,54.0,29.09,SSE,158,8.1,12.8,60,0.00,,,0.00,VWS V14.01,2013-05-01 07:24:00,
2013-05-01 03:25:00,67.6,54.6,29.09,SW,225,2.9,8.7,63,0.00,,,0.00,VWS V14.01,2013-05-01 07:25:00,
2013-05-01 03:26:00,67.5,54.4,29.09,South,180,4.9,6.5,63,0.00,,,0.00,VWS V14.01,2013-05-01 07:26:00,
2013-05-01 03:27:00,67.5,54.4,29.09,SW,225,11.0,11.0,63,0.00,,,0.00,VWS V14.01,2013-05-01 07:27:00,
2013-05-01 03:28:00,67.5,54.4,29.09,WSW,248,2.9,11.0,63,0.00,,,0.00,VWS V14.01,2013-05-01 07:28:00,
2013-05-01 03:29:00,68.2,53.8,29.09,SSW,202,3.6,11.2,60,0.00,,,0.00,VWS V14.01,2013-05-01 07:29:00,
2013-05-01 03:30:00,67.5,54.4,29.09,SW,225,4.7,4.9,63,0.00,,,0.00,VWS V14.01,2013-05-01 07:30:00,
2013-05-01 03:31:00,67.3,54.3,29.09,WSW,248,6.3,6.3,63,0.00,,,0.00,VWS V14.01,2013-05-01 07:31:00,
2013-05-01 03:32:00,67.1,54.1,29.09,West,270,5.6,6.3,63,0.00,,,0.00,VWS V14.01,2013-05-01 07:32:00,
2013-05-01 03:34:00,68.2,54.2,29.09,SE,135,11.0,13.9,61,0.00,,,0.00,VWS V14.01,2013-05-01 07:34:00,
2013-05-01 03:35:00,67.1,54.1,29.09,WNW,292,5.6,5.6,63,0.00,,,0.00,VWS V14.01,2013-05-01 07:35:00,
2013-05-01 03:36:00,66.0,52.2,29.09,West,270,5.8,7.6,61,0.00,,,0.00,VWS V14.01,2013-05-01 07:36:00,
2013-05-01 03:37:00,65.7,51.4,29.14,West,270,5.6,7.4,60,0.00,,,0.00,VWS V14.01,2013-05-01 07:37:00,
2013-05-01 03:38:00,65.3,51.5,29.14,WSW,248,7.8,8.7,61,0.00,,,0.00,VWS V14.01,2013-05-01 07:38:00,
2013-05-01 03:39:00,68.2,54.2,29.06,South,180,5.8,10.5,61,0.00,,,0.00,VWS V14.01,2013-05-01 07:39:00,
2013-05-01 03:40:00,64.2,48.7,29.14,West,270,9.8,9.8,57,0.00,,,0.00,VWS V14.01,2013-05-01 07:40:00,
2013-05-01 03:41:00,63.5,47.5,29.14,West,270,5.4,9.8,56,0.00,,,0.00,VWS V14.01,2013-05-01 07:41:00,
2013-05-01 03:42:00,63.0,47.0,29.14,WSW,248,17.5,17.5,56,0.00,,,0.00,VWS V14.01,2013-05-01 07:42:00,
2013-05-01 03:44:00,68.2,54.2,29.06,SE,135,8.5,8.5,61,0.00,,,0.00,VWS V14.01,2013-05-01 07:44:00,
2013-05-01 03:45:00,61.0,44.7,29.14,West,270,13.9,17.0,55,0.00,,,0.00,VWS V14.01,2013-05-01 07:45:00,
2013-05-01 03:46:00,60.1,44.3,29.14,WSW,248,10.7,13.9,56,0.00,,,0.00,VWS V14.01,2013-05-01 07:46:00,
2013-05-01 03:47:00,60.1,44.3,29.14,WSW,248,10.7,10.7,56,0.00,,,0.00,VWS V14.01,2013-05-01 07:47:00,
2013-05-01 03:49:00,68.0,54.1,29.06,SW,225,5.6,11.2,61,0.00,,,0.00,VWS V14.01,2013-05-01 07:49:00,
2013-05-01 03:50:00,58.6,44.8,29.14,WSW,248,10.5,11.9,60,0.00,,,0.00,VWS V14.01,2013-05-01 07:50:00,
2013-05-01 03:51:00,58.6,44.8,29.14,SW,225,7.6,10.5,60,0.00,,,0.00,VWS V14.01,2013-05-01 07:51:00,
2013-05-01 03:52:00,58.1,44.3,29.14,SW,225,6.5,7.6,60,0.00,,,0.00,VWS V14.01,2013-05-01 07:52:00,
2013-05-01 03:53:00,57.9,44.1,29.14,WSW,248,9.8,10.1,60,0.00,,,0.00,VWS V14.01,2013-05-01 07:53:00,
2013-05-01 03:54:00,68.0,54.1,29.06,SSE,158,7.6,7.6,61,0.00,,,0.00,VWS V14.01,2013-05-01 07:54:00,
2013-05-01 03:55:00,57.2,44.7,29.14,WSW,248,10.7,10.7,63,0.00,,,0.00,VWS V14.01,2013-05-01 07:55:00,
2013-05-01 03:56:00,57.2,45.2,29.14,West,270,6.5,10.7,64,0.00,,,0.00,VWS V14.01,2013-05-01 07:56:00,
2013-05-01 03:57:00,57.0,45.4,29.14,WNW,292,9.6,10.3,65,0.00,,,0.00,VWS V14.01,2013-05-01 07:57:00,
2013-05-01 03:58:00,57.0,45.4,29.14,WNW,292,9.6,9.6,65,0.00,,,0.00,VWS V14.01,2013-05-01 07:58:00,
2013-05-01 03:59:00,68.0,54.1,29.06,SSE,158,9.0,9.0,61,0.00,,,0.00,VWS V14.01,2013-05-01 07:59:00,
2013-05-01 04:00:00,56.7,45.4,29.14,WSW,248,5.6,6.9,66,0.00,,,0.00,VWS V14.01,2013-05-01 08:00:00,
2013-05-01 04:01:00,56.3,45.1,29.14,WSW,248,6.5,6.5,66,0.00,,,0.00,VWS V14.01,2013-05-01 08:01:00,
2013-05-01 04:02:00,56.1,45.3,29.14,WSW,248,6.5,6.5,67,0.00,,,0.00,VWS V14.01,2013-05-01 08:02:00,
2013-05-01 04:03:00,55.9,45.2,29.14,West,270,7.6,7.8,67,0.00,,,0.00,VWS V14.01,2013-05-01 08:03:00,
2013-05-01 04:04:00,67.8,54.3,29.06,WSW,248,8.7,10.5,62,0.00,,,0.00,VWS V14.01,2013-05-01 08:04:00,
2013-05-01 04:05:00,55.8,45.4,29.14,SW,225,4.0,6.5,68,0.00,,,0.00,VWS V14.01,2013-05-01 08:05:00,
2013-05-01 04:06:00,55.6,45.6,29.14,SW,225,7.6,7.6,69,0.00,,,0.00,VWS V14.01,2013-05-01 08:06:00,
2013-05-01 04:07:00,55.6,45.6,29.14,SW,225,6.5,7.6,69,0.00,,,0.00,VWS V14.01,2013-05-01 08:07:00,
2013-05-01 04:08:00,55.6,46.0,29.14,SW,225,5.4,6.5,70,0.00,,,0.00,VWS V14.01,2013-05-01 08:08:00,
2013-05-01 04:09:00,67.8,54.3,29.06,South,180,6.0,10.5,62,0.00,,,0.00,VWS V14.01,2013-05-01 08:09:00,
2013-05-01 04:10:00,55.2,46.0,29.14,West,270,6.0,6.5,71,0.00,,,0.00,VWS V14.01,2013-05-01 08:10:00,
2013-05-01 04:11:00,55.2,46.0,29.14,WSW,248,3.8,6.0,71,0.00,,,0.00,VWS V14.01,2013-05-01 08:11:00,
2013-05-01 04:12:00,55.2,46.0,29.14,SSW,202,4.7,4.7,71,0.00,,,0.00,VWS V14.01,2013-05-01 08:12:00,
2013-05-01 04:13:00,55.0,46.2,29.14,WSW,248,2.5,5.8,72,0.00,,,0.00,VWS V14.01,2013-05-01 08:13:00,
2013-05-01 04:14:00,67.8,54.8,29.06,SSW,202,12.5,12.5,63,0.00,,,0.00,VWS V14.01,2013-05-01 08:14:00,
2013-05-01 04:15:00,55.0,46.2,29.14,SW,225,4.9,4.9,72,0.00,,,0.00,VWS V14.01,2013-05-01 08:15:00,
2013-05-01 04:16:00,54.9,46.4,29.14,SW,225,5.4,5.4,73,0.00,,,0.00,VWS V14.01,2013-05-01 08:16:00,
2013-05-01 04:17:00,54.9,46.4,29.14,WSW,248,4.0,5.4,73,0.00,,,0.00,VWS V14.01,2013-05-01 08:17:00,
2013-05-01 04:18:00,54.9,46.4,29.14,WSW,248,4.3,5.6,73,0.00,,,0.00,VWS V14.01,2013-05-01 08:18:00,
2013-05-01 04:19:00,67.6,54.6,29.06,SSW,202,7.4,7.4,63,0.00,,,0.00,VWS V14.01,2013-05-01 08:19:00,
2013-05-01 04:20:00,54.9,46.7,29.14,SSW,202,5.6,5.6,74,0.00,,,0.00,VWS V14.01,2013-05-01 08:20:00,
2013-05-01 04:22:00,54.9,47.1,29.14,SW,225,2.0,5.6,75,0.00,,,0.00,VWS V14.01,2013-05-01 08:22:00,
2013-05-01 04:23:00,55.2,48.2,29.14,WSW,248,12.3,13.2,77,0.00,,,0.00,VWS V14.01,2013-05-01 08:23:00,
2013-05-01 04:24:00,67.6,54.6,29.09,SSW,202,8.1,8.7,63,0.00,,,0.00,VWS V14.01,2013-05-01 08:24:00,
2013-05-01 04:25:00,55.6,49.2,29.14,SW,225,5.8,10.3,79,0.00,,,0.00,VWS V14.01,2013-05-01 08:25:00,
2013-05-01 04:26:00,55.8,49.4,29.14,WSW,248,10.1,11.0,79,0.00,,,0.00,VWS V14.01,2013-05-01 08:26:00,
2013-05-01 04:27:00,55.8,49.4,29.14,WSW,248,7.8,10.1,79,0.00,,,0.00,VWS V14.01,2013-05-01 08:27:00,
2013-05-01 04:28:00,55.8,49.4,29.14,WSW,248,10.5,10.5,79,0.00,,,0.00,VWS V14.01,2013-05-01 08:28:00,
2013-05-01 04:29:00,67.5,54.4,29.09,WSW,248,4.9,4.9,63,0.00,,,0.00,VWS V14.01,2013-05-01 08:29:00,
2013-05-01 04:30:00,55.9,49.2,29.14,SSW,202,7.8,10.7,78,0.00,,,0.00,VWS V14.01,2013-05-01 08:30:00,
2013-05-01 04:31:00,55.9,49.2,29.14,SW,225,10.7,12.3,78,0.00,,,0.00,VWS V14.01,2013-05-01 08:31:00,
2013-05-01 04:32:00,55.9,49.2,29.14,SW,225,9.8,11.0,78,0.00,,,0.00,VWS V14.01,2013-05-01 08:32:00,
2013-05-01 04:33:00,55.9,49.2,29.14,West,270,10.5,12.8,78,0.00,,,0.00,VWS V14.01,2013-05-01 08:33:00,
2013-05-01 04:34:00,67.1,54.1,29.09,WNW,292,5.6,5.6,63,0.00,,,0.00,VWS V14.01,2013-05-01 08:34:00,
2013-05-01 04:35:00,55.9,48.8,29.14,WSW,248,4.0,9.8,77,0.00,,,0.00,VWS V14.01,2013-05-01 08:35:00,
2013-05-01 04:36:00,55.9,48.8,29.14,SW,225,13.2,15.4,77,0.00,,,0.00,VWS V14.01,2013-05-01 08:36:00,
2013-05-01 04:37:00,55.9,48.8,29.12,WSW,248,6.3,13.2,77,0.00,,,0.00,VWS V14.01,2013-05-01 08:37:00,
2013-05-01 04:38:00,55.9,48.8,29.12,SSE,158,7.6,8.5,77,0.00,,,0.00,VWS V14.01,2013-05-01 08:38:00,
2013-05-01 04:39:00,64.8,50.1,29.14,WNW,292,3.6,6.3,59,0.00,,,0.00,VWS V14.01,2013-05-01 08:39:00,
2013-05-01 04:40:00,55.9,48.5,29.12,WSW,248,7.4,7.8,76,0.00,,,0.00,VWS V14.01,2013-05-01 08:40:00,
2013-05-01 04:41:00,55.8,48.3,29.12,WSW,248,7.4,7.6,76,0.00,,,0.00,VWS V14.01,2013-05-01 08:41:00,
2013-05-01 04:42:00,55.8,48.3,29.12,WSW,248,7.6,10.1,76,0.00,,,0.00,VWS V14.01,2013-05-01 08:42:00,
2013-05-01 04:43:00,55.8,48.3,29.12,SW,225,6.9,7.6,76,0.00,,,0.00,VWS V14.01,2013-05-01 08:43:00,
2013-05-01 04:44:00,61.0,44.7,29.14,WNW,292,13.0,17.0,55,0.00,,,0.00,VWS V14.01,2013-05-01 08:44:00,
2013-05-01 04:45:00,55.8,48.3,29.12,SW,225,3.6,9.4,76,0.00,,,0.00,VWS V14.01,2013-05-01 08:45:00,
2013-05-01 04:46:00,55.8,48.3,29.12,WSW,248,5.8,6.3,76,0.00,,,0.00,VWS V14.01,2013-05-01 08:46:00,
2013-05-01 04:47:00,55.8,48.3,29.12,SW,225,4.9,5.8,76,0.00,,,0.00,VWS V14.01,2013-05-01 08:47:00,
2013-05-01 04:48:00,55.8,48.3,29.12,WSW,248,7.2,7.2,76,0.00,,,0.00,VWS V14.01,2013-05-01 08:48:00,
2013-05-01 04:49:00,58.6,44.8,29.14,WSW,248,6.3,11.9,60,0.00,,,0.00,VWS V14.01,2013-05-01 08:49:00,
2013-05-01 04:50:00,55.8,48.7,29.12,WSW,248,10.3,10.3,77,0.00,,,0.00,VWS V14.01,2013-05-01 08:50:00,
2013-05-01 04:51:00,55.8,48.7,29.12,SW,225,4.3,10.3,77,0.00,,,0.00,VWS V14.01,2013-05-01 08:51:00,
2013-05-01 04:52:00,55.8,48.7,29.17,SW,225,3.4,5.8,77,0.00,,,0.00,VWS V14.01,2013-05-01 08:52:00,
2013-05-01 04:53:00,55.8,48.7,29.17,WSW,248,3.1,3.6,77,0.00,,,0.00,VWS V14.01,2013-05-01 08:53:00,
2013-05-01 04:54:00,57.4,44.1,29.14,WSW,248,10.5,10.5,61,0.00,,,0.00,VWS V14.01,2013-05-01 08:54:00,
2013-05-01 04:55:00,55.8,48.7,29.17,SW,225,3.8,4.0,77,0.00,,,0.00,VWS V14.01,2013-05-01 08:55:00,
2013-05-01 04:56:00,55.8,48.7,29.17,WSW,248,4.7,5.4,77,0.00,,,0.00,VWS V14.01,2013-05-01 08:56:00,
2013-05-01 04:57:00,55.8,48.7,29.17,WSW,248,3.4,4.7,77,0.00,,,0.00,VWS V14.01,2013-05-01 08:57:00,
2013-05-01 04:58:00,55.8,48.3,29.17,SW,225,7.2,8.7,76,0.00,,,0.00,VWS V14.01,2013-05-01 08:58:00,
2013-05-01 04:59:00,56.7,45.4,29.14,SW,225,6.9,6.9,66,0.00,,,0.00,VWS V14.01,2013-05-01 08:59:00,
2013-05-01 05:00:00,55.8,48.3,29.17,SW,225,5.6,6.0,76,0.00,,,0.00,VWS V14.01,2013-05-01 09:00:00,
2013-05-01 05:01:00,55.8,48.0,29.17,SSW,202,1.6,5.6,75,0.00,,,0.00,VWS V14.01,2013-05-01 09:01:00,
2013-05-01 05:02:00,55.6,47.8,29.17,West,270,2.5,2.9,75,0.00,,,0.00,VWS V14.01,2013-05-01 09:02:00,
2013-05-01 05:03:00,55.6,47.8,29.17,WSW,248,5.6,5.6,75,0.00,,,0.00,VWS V14.01,2013-05-01 09:03:00,
2013-05-01 05:04:00,55.8,45.4,29.14,SW,225,4.0,6.5,68,0.00,,,0.00,VWS V14.01,2013-05-01 09:04:00,
2013-05-01 05:05:00,55.4,47.6,29.17,West,270,4.9,6.7,75,0.00,,,0.00,VWS V14.01,2013-05-01 09:05:00,
2013-05-01 05:06:00,55.4,47.6,29.17,West,270,5.6,5.6,75,0.00,,,0.00,VWS V14.01,2013-05-01 09:06:00,
2013-05-01 05:07:00,55.4,47.6,29.17,WSW,248,3.1,5.6,75,0.00,,,0.00,VWS V14.01,2013-05-01 09:07:00,
2013-05-01 05:08:00,55.4,47.6,29.17,SSW,202,1.6,3.4,75,0.00,,,0.00,VWS V14.01,2013-05-01 09:08:00,
2013-05-01 05:09:00,55.4,45.8,29.14,WSW,248,6.0,6.5,70,0.00,,,0.00,VWS V14.01,2013-05-01 09:09:00,
2013-05-01 05:10:00,55.2,47.5,29.17,WSW,248,3.4,3.4,75,0.00,,,0.00,VWS V14.01,2013-05-01 09:10:00,
2013-05-01 05:11:00,55.2,47.5,29.17,WSW,248,3.4,3.8,75,0.00,,,0.00,VWS V14.01,2013-05-01 09:11:00,
2013-05-01 05:12:00,55.2,47.5,29.17,West,270,2.5,5.4,75,0.00,,,0.00,VWS V14.01,2013-05-01 09:12:00,
2013-05-01 05:13:00,55.0,47.3,29.17,West,270,2.0,3.4,75,0.00,,,0.00,VWS V14.01,2013-05-01 09:13:00,
2013-05-01 05:14:00,55.0,46.2,29.14,SSW,202,3.4,3.4,72,0.00,,,0.00,VWS V14.01,2013-05-01 09:14:00,
2013-05-01 05:15:00,55.0,47.3,29.17,West,270,2.7,3.8,75,0.00,,,0.00,VWS V14.01,2013-05-01 09:15:00,
2013-05-01 05:16:00,55.0,47.3,29.17,SW,225,2.5,2.7,75,0.00,,,0.00,VWS V14.01,2013-05-01 09:16:00,
2013-05-01 05:17:00,54.9,47.1,29.17,SW,225,3.1,3.1,75,0.00,,,0.00,VWS V14.01,2013-05-01 09:17:00,
2013-05-01 05:18:00,54.9,47.1,29.17,WSW,248,4.0,4.0,75,0.00,,,0.00,VWS V14.01,2013-05-01 09:18:00,
2013-05-01 05:19:00,54.9,46.7,29.14,WSW,248,4.3,5.4,74,0.00,,,0.00,VWS V14.01,2013-05-01 09:19:00,
2013-05-01 05:20:00,54.7,46.9,29.17,SW,225,4.7,4.7,75,0.00,,,0.00,VWS V14.01,2013-05-01 09:20:00,
2013-05-01 05:21:00,54.7,46.9,29.17,SW,225,4.0,4.7,75,0.00,,,0.00,VWS V14.01,2013-05-01 09:21:00,
2013-05-01 05:22:00,54.7,46.9,29.17,SW,225,2.5,4.0,75,0.00,,,0.00,VWS V14.01,2013-05-01 09:22:00,
2013-05-01 05:23:00,54.7,46.9,29.17,WSW,248,4.3,4.3,75,0.00,,,0.00,VWS V14.01,2013-05-01 09:23:00,
2013-05-01 05:24:00,55.4,48.7,29.14,WSW,248,8.7,12.3,78,0.00,,,0.00,VWS V14.01,2013-05-01 09:24:00,
2013-05-01 05:25:00,54.7,46.9,29.17,SW,225,3.4,3.4,75,0.00,,,0.00,VWS V14.01,2013-05-01 09:25:00,
2013-05-01 05:26:00,54.5,46.8,29.17,WSW,248,2.9,3.6,75,0.00,,,0.00,VWS V14.01,2013-05-01 09:26:00,
2013-05-01 05:27:00,54.5,46.8,29.17,SW,225,2.7,2.9,75,0.00,,,0.00,VWS V14.01,2013-05-01 09:27:00,
2013-05-01 05:28:00,54.5,46.8,29.17,SW,225,1.6,2.7,75,0.00,,,0.00,VWS V14.01,2013-05-01 09:28:00,
2013-05-01 05:29:00,55.9,49.2,29.14,South,180,7.6,10.7,78,0.00,,,0.00,VWS V14.01,2013-05-01 09:29:00,
2013-05-01 05:30:00,54.5,46.8,29.17,SSW,202,2.5,2.5,75,0.00,,,0.00,VWS V14.01,2013-05-01 09:30:00,
2013-05-01 05:31:00,54.5,47.1,29.17,SSW,202,3.4,3.4,76,0.00,,,0.00,VWS V14.01,2013-05-01 09:31:00,
2013-05-01 05:32:00,54.5,47.5,29.17,SSW,202,3.8,4.0,77,0.00,,,0.00,VWS V14.01,2013-05-01 09:32:00,
2013-05-01 05:33:00,54.5,47.5,29.17,SSW,202,2.7,4.0,77,0.00,,,0.00,VWS V14.01,2013-05-01 09:33:00,
2013-05-01 05:34:00,54.5,47.5,29.17,SW,225,2.9,4.7,77,0.00,,,0.00,VWS V14.01,2013-05-01 09:34:00,
2013-05-01 05:35:00,55.9,48.8,29.14,SSW,202,8.7,9.8,77,0.00,,,0.00,VWS V14.01,2013-05-01 09:35:00,
2013-05-01 05:36:00,54.5,47.5,29.17,SSW,202,2.5,3.6,77,0.00,,,0.00,VWS V14.01,2013-05-01 09:36:00,
2013-05-01 05:37:00,54.5,47.5,29.17,SW,225,3.4,3.8,77,0.00,,,0.00,VWS V14.01,2013-05-01 09:37:00,
2013-05-01 05:39:00,54.5,47.1,29.17,SW,225,2.5,4.3,76,0.00,,,0.00,VWS V14.01,2013-05-01 09:39:00,
2013-05-01 05:40:00,55.9,48.5,29.12,WSW,248,7.6,7.8,76,0.00,,,0.00,VWS V14.01,2013-05-01 09:40:00,
2013-05-01 05:41:00,54.5,47.1,29.17,SSW,202,1.1,3.4,76,0.00,,,0.00,VWS V14.01,2013-05-01 09:41:00,
2013-05-01 05:42:00,54.5,47.1,29.17,South,180,0.9,4.3,76,0.00,,,0.00,VWS V14.01,2013-05-01 09:42:00,
2013-05-01 05:43:00,54.5,47.1,29.17,SSW,202,2.7,3.6,76,0.00,,,0.00,VWS V14.01,2013-05-01 09:43:00,
2013-05-01 05:44:00,54.5,47.1,29.17,South,180,3.1,3.6,76,0.00,,,0.00,VWS V14.01,2013-05-01 09:44:00,
2013-05-01 05:45:00,55.8,48.3,29.12,SSW,202,7.6,9.4,76,0.00,,,0.00,VWS V14.01,2013-05-01 09:45:00,
2013-05-01 05:46:00,54.5,47.1,29.17,SSW,202,1.3,2.5,76,0.00,,,0.00,VWS V14.01,2013-05-01 09:46:00,
2013-05-01 05:47:00,54.5,47.1,29.17,SSW,202,2.7,3.6,76,0.00,,,0.00,VWS V14.01,2013-05-01 09:47:00,
2013-05-01 05:48:00,54.5,47.1,29.17,South,180,2.7,4.9,76,0.00,,,0.00,VWS V14.01,2013-05-01 09:48:00,
2013-05-01 05:49:00,54.5,47.1,29.17,SSW,202,1.3,4.3,76,0.00,,,0.00,VWS V14.01,2013-05-01 09:49:00,
2013-05-01 05:50:00,55.8,48.7,29.12,WSW,248,9.4,9.4,77,0.00,,,0.00,VWS V14.01,2013-05-01 09:50:00,
2013-05-01 05:51:00,54.5,47.1,29.17,South,180,4.7,4.7,76,0.00,,,0.00,VWS V14.01,2013-05-01 09:51:00,
2013-05-01 05:52:00,54.5,47.1,29.20,SSW,202,0.9,4.7,76,0.00,,,0.00,VWS V14.01,2013-05-01 09:52:00,
2013-05-01 05:53:00,54.5,47.1,29.20,SSE,158,2.9,4.0,76,0.00,,,0.00,VWS V14.01,2013-05-01 09:53:00,
2013-05-01 05:54:00,54.5,47.1,29.20,South,180,1.6,2.9,76,0.00,,,0.00,VWS V14.01,2013-05-01 09:54:00,
2013-05-01 05:55:00,55.8,48.7,29.17,SW,225,3.8,4.0,77,0.00,,,0.00,VWS V14.01,2013-05-01 09:55:00,
2013-05-01 05:56:00,54.7,47.3,29.20,SW,225,1.1,4.0,76,0.00,,,0.00,VWS V14.01,2013-05-01 09:56:00,
2013-05-01 05:57:00,54.7,47.3,29.20,SW,225,3.4,4.9,76,0.00,,,0.00,VWS V14.01,2013-05-01 09:57:00,
2013-05-01 05:58:00,54.7,47.3,29.20,South,180,0.0,3.4,76,0.00,,,0.00,VWS V14.01,2013-05-01 09:58:00,
2013-05-01 05:59:00,54.7,47.3,29.20,South,180,3.6,4.3,76,0.00,,,0.00,VWS V14.01,2013-05-01 09:59:00,
2013-05-01 06:00:00,55.8,48.3,29.17,SW,225,4.9,6.0,76,0.00,,,0.00,VWS V14.01,2013-05-01 10:00:00,
2013-05-01 06:01:00,54.7,47.3,29.20,SSW,202,2.2,2.5,76,0.00,,,0.00,VWS V14.01,2013-05-01 10:01:00,
2013-05-01 06:02:00,54.9,47.5,29.20,SSW,202,1.6,2.2,76,0.00,,,0.00,VWS V14.01,2013-05-01 10:02:00,
2013-05-01 06:03:00,54.9,47.5,29.20,SW,225,3.4,4.0,76,0.00,,,0.00,VWS V14.01,2013-05-01 10:03:00,
2013-05-01 06:04:00,54.9,47.1,29.20,SW,225,3.4,3.4,75,0.00,,,0.00,VWS V14.01,2013-05-01 10:04:00,
2013-05-01 06:05:00,55.4,47.6,29.17,West,270,4.9,6.7,75,0.00,,,0.00,VWS V14.01,2013-05-01 10:05:00,
2013-05-01 06:06:00,55.0,47.3,29.20,SSW,202,4.0,4.0,75,0.00,,,0.00,VWS V14.01,2013-05-01 10:06:00,
2013-05-01 06:07:00,55.0,47.3,29.20,South,180,2.5,4.0,75,0.00,,,0.00,VWS V14.01,2013-05-01 10:07:00,
2013-05-01 06:08:00,55.0,47.3,29.20,SSW,202,2.7,5.4,75,0.00,,,0.00,VWS V14.01,2013-05-01 10:08:00,
2013-05-01 06:09:00,55.0,47.3,29.20,SSW,202,2.7,2.7,75,0.00,,,0.00,VWS V14.01,2013-05-01 10:09:00,
2013-05-01 06:10:00,55.2,47.5,29.17,WSW,248,3.4,3.4,75,0.00,,,0.00,VWS V14.01,2013-05-01 10:10:00,
2013-05-01 06:11:00,55.0,47.3,29.20,South,180,5.4,5.4,75,0.00,,,0.00,VWS V14.01,2013-05-01 10:11:00,
2013-05-01 06:12:00,55.8,48.3,29.20,South,180,2.0,6.5,76,0.00,,,0.00,VWS V14.01,2013-05-01 10:12:00,
2013-05-01 06:13:00,55.8,48.0,29.20,SSW,202,3.6,5.4,75,0.00,,,0.00,VWS V14.01,2013-05-01 10:13:00,
2013-05-01 06:14:00,55.8,48.0,29.20,South,180,8.1,8.1,75,0.00,,,0.00,VWS V14.01,2013-05-01 10:14:00,
2013-05-01 06:15:00,55.0,47.3,29.17,West,270,2.7,2.7,75,0.00,,,0.00,VWS V14.01,2013-05-01 10:15:00,
2013-05-01 06:16:00,56.1,48.3,29.20,SSE,158,4.3,8.1,75,0.00,,,0.00,VWS V14.01,2013-05-01 10:16:00,
2013-05-01 06:17:00,56.3,48.5,29.20,SSE,158,5.8,6.5,75,0.00,,,0.00,VWS V14.01,2013-05-01 10:17:00,
2013-05-01 06:18:00,56.7,48.5,29.20,South,180,4.9,5.8,74,0.00,,,0.00,VWS V14.01,2013-05-01 10:18:00,
2013-05-01 06:19:00,56.7,48.5,29.20,SSW,202,3.6,4.9,74,0.00,,,0.00,VWS V14.01,2013-05-01 10:19:00,
2013-05-01 06:20:00,54.7,46.9,29.17,SW,225,2.7,4.7,75,0.00,,,0.00,VWS V14.01,2013-05-01 10:20:00,
2013-05-01 06:21:00,57.0,48.8,29.20,South,180,3.8,5.8,74,0.00,,,0.00,VWS V14.01,2013-05-01 10:21:00,
2013-05-01 06:22:00,57.2,49.0,29.20,South,180,2.9,7.2,74,0.00,,,0.00,VWS V14.01,2013-05-01 10:22:00,
2013-05-01 06:23:00,57.2,49.0,29.20,SSW,202,7.8,7.8,74,0.00,,,0.00,VWS V14.01,2013-05-01 10:23:00,
2013-05-01 06:24:00,57.4,48.8,29.20,South,180,5.8,7.8,73,0.00,,,0.00,VWS V14.01,2013-05-01 10:24:00,
2013-05-01 06:25:00,54.7,46.9,29.17,SW,225,2.9,3.4,75,0.00,,,0.00,VWS V14.01,2013-05-01 10:25:00,
2013-05-01 06:26:00,57.9,49.3,29.20,South,180,7.8,7.8,73,0.00,,,0.00,VWS V14.01,2013-05-01 10:26:00,
2013-05-01 06:27:00,57.9,49.3,29.20,SSW,202,2.0,11.0,73,0.00,,,0.00,VWS V14.01,2013-05-01 10:27:00,
2013-05-01 06:28:00,58.1,49.5,29.20,SSE,158,4.3,4.7,73,0.00,,,0.00,VWS V14.01,2013-05-01 10:28:00,
2013-05-01 06:29:00,58.1,49.5,29.20,SSE,158,4.3,4.3,73,0.00,,,0.00,VWS V14.01,2013-05-01 10:29:00,
2013-05-01 06:30:00,54.5,46.8,29.17,SSW,202,2.5,2.5,75,0.00,,,0.00,VWS V14.01,2013-05-01 10:30:00,
2013-05-01 06:31:00,58.5,49.8,29.20,SSW,202,6.5,6.5,73,0.00,,,0.00,VWS V14.01,2013-05-01 10:31:00,
2013-05-01 06:32:00,58.6,50.0,29.20,SSE,158,3.1,8.7,73,0.00,,,0.00,VWS V14.01,2013-05-01 10:32:00,
2013-05-01 06:33:00,58.8,49.8,29.20,SSW,202,3.6,3.6,72,0.00,,,0.00,VWS V14.01,2013-05-01 10:33:00,
2013-05-01 06:34:00,59.0,50.0,29.20,SSW,202,3.6,10.3,72,0.00,,,0.00,VWS V14.01,2013-05-01 10:34:00,
2013-05-01 06:35:00,54.5,47.5,29.17,SW,225,2.9,2.9,77,0.00,,,0.00,VWS V14.01,2013-05-01 10:35:00,
2013-05-01 06:36:00,59.0,50.0,29.20,SSW,202,5.8,5.8,72,0.00,,,0.00,VWS V14.01,2013-05-01 10:36:00,
2013-05-01 06:37:00,59.2,50.2,29.20,SW,225,5.4,5.8,72,0.00,,,0.00,VWS V14.01,2013-05-01 10:37:00,
2013-05-01 06:38:00,59.2,49.8,29.20,SE,135,6.3,9.6,71,0.00,,,0.00,VWS V14.01,2013-05-01 10:38:00,
2013-05-01 06:39:00,59.2,49.8,29.20,SSW,202,3.4,6.3,71,0.00,,,0.00,VWS V14.01,2013-05-01 10:39:00,
2013-05-01 06:40:00,54.5,47.1,29.17,South,180,2.5,2.5,76,0.00,,,0.00,VWS V14.01,2013-05-01 10:40:00,
2013-05-01 06:41:00,59.4,50.0,29.20,South,180,0.0,5.6,71,0.00,,,0.00,VWS V14.01,2013-05-01 10:41:00,
2013-05-01 06:42:00,59.4,50.0,29.20,South,180,4.0,9.2,71,0.00,,,0.00,VWS V14.01,2013-05-01 10:42:00,
2013-05-01 06:43:00,59.5,50.1,29.20,SSW,202,1.6,4.9,71,0.00,,,0.00,VWS V14.01,2013-05-01 10:43:00,
2013-05-01 06:44:00,59.5,50.1,29.20,SSW,202,1.6,1.6,71,0.00,,,0.00,VWS V14.01,2013-05-01 10:44:00,
2013-05-01 06:45:00,54.5,47.1,29.17,South,180,0.0,0.0,76,0.00,,,0.00,VWS V14.01,2013-05-01 10:45:00,
2013-05-01 06:46:00,59.5,50.1,29.20,South,180,0.9,2.7,71,0.00,,,0.00,VWS V14.01,2013-05-01 10:46:00,
2013-05-01 06:47:00,59.5,50.1,29.20,SSW,202,0.9,2.9,71,0.00,,,0.00,VWS V14.01,2013-05-01 10:47:00,
2013-05-01 06:48:00,59.7,50.3,29.20,South,180,3.6,6.0,71,0.00,,,0.00,VWS V14.01,2013-05-01 10:48:00,
2013-05-01 06:49:00,59.7,50.3,29.20,SSW,202,2.5,4.9,71,0.00,,,0.00,VWS V14.01,2013-05-01 10:49:00,
2013-05-01 06:50:00,54.5,47.1,29.17,SSW,202,1.3,1.3,76,0.00,,,0.00,VWS V14.01,2013-05-01 10:50:00,
2013-05-01 06:52:00,59.9,50.1,29.20,South,180,3.1,5.8,70,0.00,,,0.00,VWS V14.01,2013-05-01 10:52:00,
2013-05-01 06:53:00,59.9,50.1,29.20,SSE,158,5.8,6.0,70,0.00,,,0.00,VWS V14.01,2013-05-01 10:53:00,
2013-05-01 06:54:00,60.1,50.3,29.20,SW,225,0.0,5.8,70,0.00,,,0.00,VWS V14.01,2013-05-01 10:54:00,
2013-05-01 06:55:00,54.7,47.3,29.20,SW,225,4.0,4.0,76,0.00,,,0.00,VWS V14.01,2013-05-01 10:55:00,
2013-05-01 06:56:00,60.1,50.3,29.20,SSE,158,3.4,3.6,70,0.00,,,0.00,VWS V14.01,2013-05-01 10:56:00,
2013-05-01 06:57:00,60.1,50.3,29.20,SSW,202,0.0,3.4,70,0.00,,,0.00,VWS V14.01,2013-05-01 10:57:00,
2013-05-01 06:58:00,60.1,50.3,29.20,SW,225,3.4,3.4,70,0.00,,,0.00,VWS V14.01,2013-05-01 10:58:00,
2013-05-01 06:59:00,60.1,50.3,29.20,South,180,0.0,3.4,70,0.00,,,0.00,VWS V14.01,2013-05-01 10:59:00,
2013-05-01 07:00:00,54.7,47.3,29.20,South,180,0.9,0.9,76,0.00,,,0.00,VWS V14.01,2013-05-01 11:00:00,
2013-05-01 07:01:00,60.1,50.3,29.20,South,180,2.2,2.2,70,0.00,,,0.00,VWS V14.01,2013-05-01 11:01:00,
2013-05-01 07:02:00,60.1,50.3,29.20,South,180,0.0,2.2,70,0.00,,,0.00,VWS V14.01,2013-05-01 11:02:00,
2013-05-01 07:03:00,60.1,50.3,29.20,SSE,158,2.5,2.5,70,0.00,,,0.00,VWS V14.01,2013-05-01 11:03:00,
2013-05-01 07:04:00,60.1,50.3,29.20,South,180,0.0,2.9,70,0.00,,,0.00,VWS V14.01,2013-05-01 11:04:00,
2013-05-01 07:05:00,54.9,47.1,29.20,SSW,202,0.9,2.2,75,0.00,,,0.00,VWS V14.01,2013-05-01 11:05:00,
2013-05-01 07:06:00,60.3,50.5,29.20,SW,225,2.7,3.1,70,0.00,,,0.00,VWS V14.01,2013-05-01 11:06:00,
2013-05-01 07:07:00,60.3,50.5,29.20,SW,225,2.7,2.7,70,0.00,,,0.00,VWS V14.01,2013-05-01 11:07:00,
2013-05-01 07:08:00,60.3,50.5,29.20,SW,225,2.2,4.3,70,0.00,,,0.00,VWS V14.01,2013-05-01 11:08:00,
2013-05-01 07:09:00,60.3,50.5,29.20,SSE,158,4.0,4.0,70,0.00,,,0.00,VWS V14.01,2013-05-01 11:09:00,
2013-05-01 07:10:00,55.0,47.3,29.20,South,180,5.4,5.8,75,0.00,,,0.00,VWS V14.01,2013-05-01 11:10:00,
2013-05-01 07:11:00,60.4,50.6,29.20,SSW,202,0.9,4.3,70,0.00,,,0.00,VWS V14.01,2013-05-01 11:11:00,
2013-05-01 07:13:00,60.4,50.6,29.20,South,180,2.7,2.7,70,0.00,,,0.00,VWS V14.01,2013-05-01 11:13:00,
2013-05-01 07:14:00,60.6,50.8,29.20,South,180,2.0,4.0,70,0.00,,,0.00,VWS V14.01,2013-05-01 11:14:00,
2013-05-01 07:15:00,56.1,48.3,29.20,South,180,0.9,8.1,75,0.00,,,0.00,VWS V14.01,2013-05-01 11:15:00,
2013-05-01 07:16:00,60.8,51.0,29.20,SSE,158,3.1,6.0,70,0.00,,,0.00,VWS V14.01,2013-05-01 11:16:00,
2013-05-01 07:17:00,61.0,51.1,29.20,SSW,202,4.9,5.6,70,0.00,,,0.00,VWS V14.01,2013-05-01 11:17:00,
2013-05-01 07:18:00,61.2,51.3,29.20,SSW,202,6.3,6.3,70,0.00,,,0.00,VWS V14.01,2013-05-01 11:18:00,
2013-05-01 07:19:00,61.2,51.3,29.20,SSW,202,2.7,6.3,70,0.00,,,0.00,VWS V14.01,2013-05-01 11:19:00,
2013-05-01 07:20:00,56.7,48.5,29.20,SSW,202,4.9,5.8,74,0.00,,,0.00,VWS V14.01,2013-05-01 11:20:00,
2013-05-01 07:21:00,61.5,51.3,29.20,SSE,158,2.5,2.5,69,0.00,,,0.00,VWS V14.01,2013-05-01 11:21:00,
2013-05-01 07:22:00,61.7,51.4,29.20,SSE,158,1.1,2.5,69,0.00,,,0.00,VWS V14.01,2013-05-01 11:22:00,
2013-05-01 07:23:00,61.9,51.6,29.20,SSW,202,2.5,2.5,69,0.00,,,0.00,VWS V14.01,2013-05-01 11:23:00,
2013-05-01 07:24:00,61.9,51.6,29.20,South,180,3.4,3.4,69,0.00,,,0.00,VWS V14.01,2013-05-01 11:24:00,
2013-05-01 07:25:00,57.7,49.2,29.20,South,180,3.6,6.5,73,0.00,,,0.00,VWS V14.01,2013-05-01 11:25:00,
2013-05-01 07:26:00,62.4,51.7,29.20,SSE,158,8.5,8.5,68,0.00,,,0.00,VWS V14.01,2013-05-01 11:26:00,
2013-05-01 07:27:00,62.4,51.7,29.20,SSW,202,2.2,8.5,68,0.00,,,0.00,VWS V14.01,2013-05-01 11:27:00,
2013-05-01 07:28:00,62.6,51.9,29.20,SSW,202,4.0,4.3,68,0.00,,,0.00,VWS V14.01,2013-05-01 11:28:00,
2013-05-01 07:29:00,62.6,51.9,29.20,SSE,158,2.9,4.3,68,0.00,,,0.00,VWS V14.01,2013-05-01 11:29:00,
2013-05-01 07:30:00,58.5,49.8,29.20,SSW,202,6.5,8.1,73,0.00,,,0.00,VWS V14.01,2013-05-01 11:30:00,
2013-05-01 07:31:00,63.0,51.8,29.20,South,180,0.0,4.7,67,0.00,,,0.00,VWS V14.01,2013-05-01 11:31:00,
2013-05-01 07:32:00,63.0,52.2,29.20,SSE,158,6.3,6.3,68,0.00,,,0.00,VWS V14.01,2013-05-01 11:32:00,
2013-05-01 07:33:00,63.1,52.0,29.20,SSW,202,2.7,6.3,67,0.00,,,0.00,VWS V14.01,2013-05-01 11:33:00,
2013-05-01 07:34:00,63.1,52.0,29.20,SSW,202,2.7,2.7,67,0.00,,,0.00,VWS V14.01,2013-05-01 11:34:00,
2013-05-01 07:35:00,59.0,50.0,29.20,SE,135,3.6,6.3,72,0.00,,,0.00,VWS V14.01,2013-05-01 11:35:00,
2013-05-01 07:36:00,63.1,52.0,29.20,SSE,158,2.2,9.6,67,0.00,,,0.00,VWS V14.01,2013-05-01 11:36:00,
2013-05-01 07:37:00,63.0,51.8,29.20,SSE,158,3.6,3.6,67,0.00,,,0.00,VWS V14.01,2013-05-01 11:37:00,
2013-05-01 07:38:00,63.1,52.0,29.20,SSW,202,0.9,3.8,67,0.00,,,0.00,VWS V14.01,2013-05-01 11:38:00,
2013-05-01 07:39:00,63.1,52.0,29.20,SSE,158,6.0,6.0,67,0.00,,,0.00,VWS V14.01,2013-05-01 11:39:00,
2013-05-01 07:40:00,59.4,50.0,29.20,South,180,5.6,5.6,71,0.00,,,0.00,VWS V14.01,2013-05-01 11:40:00,
2013-05-01 07:41:00,63.3,52.2,29.20,SSW,202,6.3,7.8,67,0.00,,,0.00,VWS V14.01,2013-05-01 11:41:00,
2013-05-01 07:42:00,63.3,52.2,29.20,SW,225,2.0,6.3,67,0.00,,,0.00,VWS V14.01,2013-05-01 11:42:00,
2013-05-01 07:43:00,63.5,52.4,29.20,South,180,2.0,3.6,67,0.00,,,0.00,VWS V14.01,2013-05-01 11:43:00,
2013-05-01 07:45:00,59.5,50.1,29.20,WSW,248,1.6,2.7,71,0.00,,,0.00,VWS V14.01,2013-05-01 11:45:00,
2013-05-01 07:46:00,63.9,53.1,29.20,South,180,9.8,9.8,68,0.00,,,0.00,VWS V14.01,2013-05-01 11:46:00,
2013-05-01 07:47:00,63.9,53.1,29.20,SSW,202,2.7,9.8,68,0.00,,,0.00,VWS V14.01,2013-05-01 11:47:00,
2013-05-01 07:48:00,64.2,53.5,29.20,SSW,202,2.0,5.4,68,0.00,,,0.00,VWS V14.01,2013-05-01 11:48:00,
2013-05-01 07:49:00,64.2,53.0,29.20,SSE,158,7.2,7.2,67,0.00,,,0.00,VWS V14.01,2013-05-01 11:49:00,
2013-05-01 07:50:00,59.9,50.5,29.20,SSW,202,4.3,5.8,71,0.00,,,0.00,VWS V14.01,2013-05-01 11:50:00,
2013-05-01 07:51:00,64.4,53.2,29.20,South,180,3.6,6.5,67,0.00,,,0.00,VWS V14.01,2013-05-01 11:51:00,
2013-05-01 07:52:00,64.4,53.2,29.20,South,180,6.9,6.9,67,0.00,,,0.00,VWS V14.01,2013-05-01 11:52:00,
2013-05-01 07:53:00,64.8,53.6,29.20,SSE,158,5.4,6.9,67,0.00,,,0.00,VWS V14.01,2013-05-01 11:53:00,
2013-05-01 07:54:00,64.8,53.6,29.20,SW,225,5.4,5.4,67,0.00,,,0.00,VWS V14.01,2013-05-01 11:54:00,
2013-05-01 07:55:00,60.1,50.3,29.20,South,180,3.6,3.6,70,0.00,,,0.00,VWS V14.01,2013-05-01 11:55:00,
2013-05-01 07:56:00,64.9,53.3,29.20,SSW,202,4.3,4.3,66,0.00,,,0.00,VWS V14.01,2013-05-01 11:56:00,
2013-05-01 07:57:00,65.3,53.7,29.20,South,180,4.3,4.3,66,0.00,,,0.00,VWS V14.01,2013-05-01 11:57:00,
2013-05-01 07:58:00,65.5,53.8,29.20,East,90,5.4,7.2,66,0.00,,,0.00,VWS V14.01,2013-05-01 11:58:00,
2013-05-01 07:59:00,65.8,54.2,29.20,SSW,202,10.3,12.5,66,0.00,,,0.00,VWS V14.01,2013-05-01 11:59:00,
2013-05-01 08:00:00,60.1,50.3,29.20,South,180,1.3,1.3,70,0.00,,,0.00,VWS V14.01,2013-05-01 12:00:00,
2013-05-01 08:01:00,66.0,53.9,29.20,WSW,248,4.7,7.6,65,0.00,,,0.00,VWS V14.01,2013-05-01 12:01:00,
2013-05-01 08:02:00,66.2,54.1,29.20,SSE,158,4.0,5.4,65,0.00,,,0.00,VWS V14.01,2013-05-01 12:02:00,
2013-05-01 08:03:00,66.4,54.3,29.20,SSW,202,5.4,6.7,65,0.00,,,0.00,VWS V14.01,2013-05-01 12:03:00,
2013-05-01 08:04:00,66.7,54.2,29.20,SSW,202,2.9,5.4,64,0.00,,,0.00,VWS V14.01,2013-05-01 12:04:00,
2013-05-01 08:05:00,60.3,50.5,29.20,SSE,158,1.3,3.1,70,0.00,,,0.00,VWS V14.01,2013-05-01 12:05:00,
2013-05-01 08:06:00,66.9,54.4,29.20,SSW,202,2.2,7.2,64,0.00,,,0.00,VWS V14.01,2013-05-01 12:06:00,
2013-05-01 08:07:00,67.1,54.1,29.20,SW,225,5.8,5.8,63,0.00,,,0.00,VWS V14.01,2013-05-01 12:07:00,
2013-05-01 08:08:00,67.1,54.1,29.20,SSW,202,3.4,5.8,63,0.00,,,0.00,VWS V14.01,2013-05-01 12:08:00,
2013-05-01 08:09:00,67.3,54.3,29.20,SW,225,4.9,5.8,63,0.00,,,0.00,VWS V14.01,2013-05-01 12:09:00,
2013-05-01 08:10:00,60.4,50.6,29.20,South,180,2.5,4.3,70,0.00,,,0.00,VWS V14.01,2013-05-01 12:10:00,
2013-05-01 08:11:00,67.6,54.2,29.20,SSW,202,4.7,6.3,62,0.00,,,0.00,VWS V14.01,2013-05-01 12:11:00,
2013-05-01 08:12:00,67.8,54.3,29.20,WSW,248,4.0,7.6,62,0.00,,,0.00,VWS V14.01,2013-05-01 12:12:00,
2013-05-01 08:13:00,67.8,54.3,29.20,SW,225,3.1,5.6,62,0.00,,,0.00,VWS V14.01,2013-05-01 12:13:00,
2013-05-01 08:14:00,68.0,54.1,29.20,South,180,5.4,6.0,61,0.00,,,0.00,VWS V14.01,2013-05-01 12:14:00,
2013-05-01 08:15:00,60.8,51.0,29.20,SSE,158,6.0,6.0,70,0.00,,,0.00,VWS V14.01,2013-05-01 12:15:00,
2013-05-01 08:17:00,68.2,53.8,29.20,South,180,7.4,12.3,60,0.00,,,0.00,VWS V14.01,2013-05-01 12:17:00,
2013-05-01 08:18:00,68.4,53.5,29.20,SSE,158,6.0,9.8,59,0.00,,,0.00,VWS V14.01,2013-05-01 12:18:00,
2013-05-01 08:19:00,68.4,53.5,29.20,WSW,248,4.7,6.0,59,0.00,,,0.00,VWS V14.01,2013-05-01 12:19:00,
2013-05-01 08:20:00,61.5,51.3,29.20,SSE,158,2.5,2.5,69,0.00,,,0.00,VWS V14.01,2013-05-01 12:20:00,
2013-05-01 08:21:00,68.9,54.5,29.20,North,0,1.3,4.0,60,0.00,,,0.00,VWS V14.01,2013-05-01 12:21:00,
2013-05-01 08:22:00,69.1,54.2,29.20,SW,225,2.0,4.9,59,0.00,,,0.00,VWS V14.01,2013-05-01 12:22:00,
2013-05-01 08:23:00,69.1,53.7,29.20,SSW,202,10.7,10.7,58,0.00,,,0.00,VWS V14.01,2013-05-01 12:23:00,
2013-05-01 08:24:00,69.1,53.2,29.20,SSW,202,8.5,10.7,57,0.00,,,0.00,VWS V14.01,2013-05-01 12:24:00,
2013-05-01 08:25:00,62.2,52.0,29.20,SSW,202,3.8,5.4,69,0.00,,,0.00,VWS V14.01,2013-05-01 12:25:00,
2013-05-01 08:26:00,69.3,53.4,29.20,South,180,6.7,13.2,57,0.00,,,0.00,VWS V14.01,2013-05-01 12:26:00,
2013-05-01 08:27:00,69.3,53.4,29.20,South,180,7.8,10.7,57,0.00,,,0.00,VWS V14.01,2013-05-01 12:27:00,
2013-05-01 08:28:00,69.3,52.9,29.20,SSE,158,8.1,12.3,56,0.00,,,0.00,VWS V14.01,2013-05-01 12:28:00,
2013-05-01 08:29:00,69.4,53.1,29.20,South,180,5.6,8.5,56,0.00,,,0.00,VWS V14.01,2013-05-01 12:29:00,
2013-05-01 08:30:00,69.4,53.1,29.20,SW,225,8.7,10.5,56,0.00,,,0.00,VWS V14.01,2013-05-01 12:30:00,
2013-05-01 08:31:00,63.0,51.8,29.20,South,180,0.0,4.7,67,0.00,,,0.00,VWS V14.01,2013-05-01 12:31:00,
2013-05-01 08:32:00,69.4,52.6,29.20,SW,225,10.3,13.2,55,0.00,,,0.00,VWS V14.01,2013-05-01 12:32:00,
2013-05-01 08:33:00,69.4,52.6,29.20,SSW,202,6.5,10.3,55,0.00,,,0.00,VWS V14.01,2013-05-01 12:33:00,
2013-05-01 08:34:00,69.4,52.6,29.20,SSW,202,6.5,6.5,55,0.00,,,0.00,VWS V14.01,2013-05-01 12:34:00,
2013-05-01 08:35:00,69.4,52.6,29.20,SSW,202,6.0,8.7,55,0.00,,,0.00,VWS V14.01,2013-05-01 12:35:00,
2013-05-01 08:36:00,63.1,52.0,29.20,South,180,3.4,9.6,67,0.00,,,0.00,VWS V14.01,2013-05-01 12:36:00,
2013-05-01 08:37:00,69.4,52.6,29.20,West,270,2.5,9.4,55,0.00,,,0.00,VWS V14.01,2013-05-01 12:37:00,
2013-05-01 08:38:00,69.6,52.8,29.20,SSW,202,5.6,7.8,55,0.00,,,0.00,VWS V14.01,2013-05-01 12:38:00,
2013-05-01 08:39:00,69.6,52.3,29.20,South,180,3.8,8.1,54,0.00,,,0.00,VWS V14.01,2013-05-01 12:39:00,
2013-05-01 08:40:00,69.6,52.8,29.20,SSW,202,6.0,7.2,55,0.00,,,0.00,VWS V14.01,2013-05-01 12:40:00,
2013-05-01 08:41:00,63.3,52.2,29.20,SSW,202,6.3,7.8,67,0.00,,,0.00,VWS V14.01,2013-05-01 12:41:00,
2013-05-01 08:42:00,70.0,52.1,29.20,SW,225,4.0,6.3,53,0.00,,,0.00,VWS V14.01,2013-05-01 12:42:00,
2013-05-01 08:43:00,70.0,52.1,29.20,East,90,7.4,8.1,53,0.00,,,0.00,VWS V14.01,2013-05-01 12:43:00,
2013-05-01 08:44:00,70.2,52.2,29.20,WSW,248,6.0,7.4,53,0.00,,,0.00,VWS V14.01,2013-05-01 12:44:00,
2013-05-01 08:45:00,70.3,52.4,29.20,SSE,158,6.5,6.5,53,0.00,,,0.00,VWS V14.01,2013-05-01 12:45:00,
2013-05-01 08:46:00,63.9,53.1,29.20,South,180,9.8,9.8,68,0.00,,,0.00,VWS V14.01,2013-05-01 12:46:00,
2013-05-01 08:47:00,70.2,51.7,29.20,SSW,202,6.0,6.7,52,0.00,,,0.00,VWS V14.01,2013-05-01 12:47:00,
2013-05-01 08:48:00,70.3,52.4,29.20,SW,225,7.6,7.6,53,0.00,,,0.00,VWS V14.01,2013-05-01 12:48:00,
2013-05-01 08:49:00,70.5,52.1,29.20,WSW,248,6.5,8.5,52,0.00,,,0.00,VWS V14.01,2013-05-01 12:49:00,
2013-05-01 08:50:00,70.5,52.6,29.20,SSW,202,3.6,7.2,53,0.00,,,0.00,VWS V14.01,2013-05-01 12:50:00,
2013-05-01 08:51:00,64.4,53.2,29.20,South,180,3.6,6.5,67,0.00,,,0.00,VWS V14.01,2013-05-01 12:51:00,
2013-05-01 08:52:00,70.7,52.2,29.20,SSW,202,7.6,7.8,52,0.00,,,0.00,VWS V14.01,2013-05-01 12:52:00,
2013-05-01 08:53:00,70.7,52.2,29.20,WSW,248,5.8,7.6,52,0.00,,,0.00,VWS V14.01,2013-05-01 12:53:00,
2013-05-01 08:54:00,70.7,52.2,29.20,WSW,248,9.8,9.8,52,0.00,,,0.00,VWS V14.01,2013-05-01 12:54:00,
2013-05-01 08:55:00,70.7,52.2,29.20,SW,225,4.3,9.8,52,0.00,,,0.00,VWS V14.01,2013-05-01 12:55:00,
2013-05-01 08:56:00,64.9,53.3,29.20,SSW,202,3.1,3.1,66,0.00,,,0.00,VWS V14.01,2013-05-01 12:56:00,
2013-05-01 08:57:00,70.7,52.2,29.20,SW,225,7.8,10.3,52,0.00,,,0.00,VWS V14.01,2013-05-01 12:57:00,
2013-05-01 08:58:00,70.7,52.2,29.20,SW,225,8.5,8.5,52,0.00,,,0.00,VWS V14.01,2013-05-01 12:58:00,
2013-05-01 08:59:00,71.2,51.7,29.20,SSW,202,8.1,9.2,50,0.00,,,0.00,VWS V14.01,2013-05-01 12:59:00,
2013-05-01 09:00:00,71.1,51.5,29.20,WSW,248,7.4,8.1,50,0.00,,,0.00,VWS V14.01,2013-05-01 13:00:00,
2013-05-01 09:01:00,66.0,53.9,29.20,WSW,248,4.7,7.6,65,0.00,,,0.00,VWS V14.01,2013-05-01 13:01:00,
2013-05-01 09:02:00,71.1,51.5,29.20,West,270,5.4,10.1,50,0.00,,,0.00,VWS V14.01,2013-05-01 13:02:00,
2013-05-01 09:03:00,70.3,48.6,29.20,WNW,292,4.3,6.3,46,0.00,,,0.00,VWS V14.01,2013-05-01 13:03:00,
2013-05-01 09:04:00,70.3,48.6,29.20,WNW,292,4.3,4.3,46,0.00,,,0.00,VWS V14.01,2013-05-01 13:04:00,
2013-05-01 09:05:00,70.3,48.0,29.20,West,270,3.6,4.3,45,0.00,,,0.00,VWS V14.01,2013-05-01 13:05:00,
2013-05-01 09:06:00,66.9,54.4,29.20,SSW,202,2.2,7.2,64,0.00,,,0.00,VWS V14.01,2013-05-01 13:06:00,
2013-05-01 09:07:00,69.8,47.5,29.23,NNW,338,2.7,4.0,45,0.00,,,0.00,VWS V14.01,2013-05-01 13:07:00,
2013-05-01 09:08:00,69.8,47.5,29.23,NNW,338,4.0,4.0,45,0.00,,,0.00,VWS V14.01,2013-05-01 13:08:00,
2013-05-01 09:09:00,69.6,47.4,29.23,WNW,292,3.4,4.0,45,0.00,,,0.00,VWS V14.01,2013-05-01 13:09:00,
2013-05-01 09:10:00,69.6,47.4,29.23,West,270,2.5,3.4,45,0.00,,,0.00,VWS V14.01,2013-05-01 13:10:00,
2013-05-01 09:11:00,67.6,54.2,29.20,SSW,202,2.0,4.7,62,0.00,,,0.00,VWS V14.01,2013-05-01 13:11:00,
2013-05-01 09:12:00,69.4,47.2,29.23,WNW,292,1.3,2.7,45,0.00,,,0.00,VWS V14.01,2013-05-01 13:12:00,
2013-05-01 09:13:00,69.4,47.2,29.23,WNW,292,1.3,2.7,45,0.00,,,0.00,VWS V14.01,2013-05-01 13:13:00,
2013-05-01 09:14:00,69.4,47.2,29.23,WNW,292,2.2,2.9,45,0.00,,,0.00,VWS V14.01,2013-05-01 13:14:00,
2013-05-01 09:15:00,69.4,47.2,29.23,West,270,3.4,4.0,45,0.00,,,0.00,VWS V14.01,2013-05-01 13:15:00,
2013-05-01 09:16:00,68.2,53.8,29.20,South,180,7.4,12.3,60,0.00,,,0.00,VWS V14.01,2013-05-01 13:16:00,
2013-05-01 09:17:00,69.4,47.2,29.23,West,270,4.0,4.9,45,0.00,,,0.00,VWS V14.01,2013-05-01 13:17:00,
2013-05-01 09:18:00,69.4,47.2,29.23,West,270,2.7,6.0,45,0.00,,,0.00,VWS V14.01,2013-05-01 13:18:00,
2013-05-01 09:19:00,69.4,47.2,29.23,WNW,292,4.0,4.0,45,0.00,,,0.00,VWS V14.01,2013-05-01 13:19:00,
2013-05-01 09:21:00,68.9,54.5,29.20,SSE,158,2.0,2.0,60,0.00,,,0.00,VWS V14.01,2013-05-01 13:21:00,
2013-05-01 09:22:00,65.7,42.0,29.26,West,270,4.7,6.3,42,0.00,,,0.00,VWS V14.01,2013-05-01 13:22:00,
2013-05-01 09:23:00,65.1,42.1,29.26,WSW,248,4.5,5.4,43,0.00,,,0.00,VWS V14.01,2013-05-01 13:23:00,
2013-05-01 09:25:00,64.6,41.6,29.26,WSW,248,2.9,4.5,43,0.00,,,0.00,VWS V14.01,2013-05-01 13:25:00,
2013-05-01 09:26:00,69.3,53.4,29.20,South,180,10.7,10.7,57,0.00,,,0.00,VWS V14.01,2013-05-01 13:26:00,
2013-05-01 09:28:00,64.8,42.4,29.26,WNW,292,2.7,4.0,44,0.00,,,0.00,VWS V14.01,2013-05-01 13:28:00,
2013-05-01 09:30:00,64.0,42.9,29.26,SW,225,1.1,2.7,46,0.00,,,0.00,VWS V14.01,2013-05-01 13:30:00,
2013-05-01 09:31:00,69.4,53.1,29.20,SSW,202,9.2,13.2,56,0.00,,,0.00,VWS V14.01,2013-05-01 13:31:00,
2013-05-01 09:32:00,63.7,43.1,29.26,WSW,248,2.0,3.6,47,0.00,,,0.00,VWS V14.01,2013-05-01 13:32:00,
2013-05-01 09:33:00,63.7,43.1,29.26,WSW,248,2.0,2.0,47,0.00,,,0.00,VWS V14.01,2013-05-01 13:33:00,
2013-05-01 09:34:00,63.7,43.1,29.26,WSW,248,0.0,2.7,47,0.00,,,0.00,VWS V14.01,2013-05-01 13:34:00,
2013-05-01 09:35:00,63.9,44.3,29.26,WSW,248,2.7,2.7,49,0.00,,,0.00,VWS V14.01,2013-05-01 13:35:00,
2013-05-01 09:36:00,69.4,52.6,29.20,SSW,202,6.5,7.8,55,0.00,,,0.00,VWS V14.01,2013-05-01 13:36:00,
2013-05-01 09:37:00,64.4,44.8,29.26,WSW,248,0.0,1.3,49,0.00,,,0.00,VWS V14.01,2013-05-01 13:37:00,
2013-05-01 09:38:00,64.6,45.0,29.26,WSW,248,4.0,4.0,49,0.00,,,0.00,VWS V14.01,2013-05-01 13:38:00,
2013-05-01 09:39:00,64.4,45.4,29.26,WSW,248,0.9,4.0,50,0.00,,,0.00,VWS V14.01,2013-05-01 13:39:00,
2013-05-01 09:40:00,64.4,45.4,29.26,West,270,3.4,3.4,50,0.00,,,0.00,VWS V14.01,2013-05-01 13:40:00,
2013-05-01 09:41:00,70.0,52.6,29.20,SW,225,3.8,3.8,54,0.00,,,0.00,VWS V14.01,2013-05-01 13:41:00,
2013-05-01 09:42:00,65.1,46.0,29.26,WSW,248,2.5,3.4,50,0.00,,,0.00,VWS V14.01,2013-05-01 13:42:00,
2013-05-01 09:43:00,65.5,46.4,29.26,WNW,292,1.6,2.7,50,0.00,,,0.00,VWS V14.01,2013-05-01 13:43:00,
2013-05-01 09:44:00,65.5,46.4,29.26,WNW,292,1.6,1.6,50,0.00,,,0.00,VWS V14.01,2013-05-01 13:44:00,
2013-05-01 09:45:00,65.5,46.4,29.26,WNW,292,2.5,2.5,50,0.00,,,0.00,VWS V14.01,2013-05-01 13:45:00,
2013-05-01 09:46:00,70.2,51.7,29.20,West,270,6.7,6.7,52,0.00,,,0.00,VWS V14.01,2013-05-01 13:46:00,
2013-05-01 09:47:00,65.8,46.7,29.26,WNW,292,2.5,2.7,50,0.00,,,0.00,VWS V14.01,2013-05-01 13:47:00,
2013-05-01 09:48:00,65.8,47.2,29.26,WNW,292,2.5,2.9,51,0.00,,,0.00,VWS V14.01,2013-05-01 13:48:00,
2013-05-01 09:49:00,65.8,47.2,29.26,WSW,248,2.2,3.1,51,0.00,,,0.00,VWS V14.01,2013-05-01 13:49:00,
2013-05-01 09:50:00,65.8,47.2,29.26,WNW,292,1.6,2.9,51,0.00,,,0.00,VWS V14.01,2013-05-01 13:50:00,
2013-05-01 09:51:00,70.7,52.2,29.20,SW,225,4.3,4.3,52,0.00,,,0.00,VWS V14.01,2013-05-01 13:51:00,
2013-05-01 09:52:00,66.2,47.0,29.26,WNW,292,3.6,3.6,50,0.00,,,0.00,VWS V14.01,2013-05-01 13:52:00,
2013-05-01 09:53:00,66.0,46.9,29.26,West,270,4.0,4.0,50,0.00,,,0.00,VWS V14.01,2013-05-01 13:53:00,
2013-05-01 09:54:00,66.2,47.0,29.26,North,0,2.9,4.0,50,0.00,,,0.00,VWS V14.01,2013-05-01 13:54:00,
2013-05-01 09:55:00,66.2,47.0,29.26,WNW,292,2.5,3.1,50,0.00,,,0.00,VWS V14.01,2013-05-01 13:55:00,
2013-05-01 09:56:00,70.7,52.2,29.20,SW,225,7.6,7.6,52,0.00,,,0.00,VWS V14.01,2013-05-01 13:56:00,
2013-05-01 09:57:00,65.3,45.7,29.26,WSW,248,3.1,3.1,49,0.00,,,0.00,VWS V14.01,2013-05-01 13:57:00,
2013-05-01 09:58:00,64.9,44.8,29.26,NW,315,4.0,4.0,48,0.00,,,0.00,VWS V14.01,2013-05-01 13:58:00,
2013-05-01 09:59:00,64.2,43.6,29.26,WNW,292,4.7,6.0,47,0.00,,,0.00,VWS V14.01,2013-05-01 13:59:00,
2013-05-01 10:00:00,63.1,42.0,29.26,WNW,292,8.5,8.5,46,0.00,,,0.00,VWS V14.01,2013-05-01 14:00:00,
2013-05-01 10:01:00,71.1,51.5,29.20,WSW,248,10.1,10.1,50,0.00,,,0.00,VWS V14.01,2013-05-01 14:01:00,
2013-05-01 10:02:00,61.3,41.0,29.26,WNW,292,4.7,6.0,47,0.00,,,0.00,VWS V14.01,2013-05-01 14:02:00,
2013-05-01 10:03:00,61.2,40.8,29.26,WSW,248,2.9,4.7,47,0.00,,,0.00,VWS V14.01,2013-05-01 14:03:00,
2013-05-01 10:04:00,61.0,40.6,29.26,WNW,292,2.2,2.9,47,0.00,,,0.00,VWS V14.01,2013-05-01 14:04:00,
2013-05-01 10:05:00,61.0,41.2,29.26,WNW,292,2.2,2.2,48,0.00,,,0.00,VWS V14.01,2013-05-01 14:05:00,
2013-05-01 10:06:00,70.2,47.8,29.20,West,270,2.5,4.0,45,0.00,,,0.00,VWS V14.01,2013-05-01 14:06:00,
2013-05-01 10:07:00,60.6,41.4,29.26,North,0,1.3,3.8,49,0.00,,,0.00,VWS V14.01,2013-05-01 14:07:00,
2013-05-01 10:08:00,60.8,41.5,29.26,WNW,292,2.9,2.9,49,0.00,,,0.00,VWS V14.01,2013-05-01 14:08:00,
2013-05-01 10:09:00,60.8,41.5,29.26,West,270,7.2,7.2,49,0.00,,,0.00,VWS V14.01,2013-05-01 14:09:00,
2013-05-01 10:10:00,60.4,41.2,29.26,WSW,248,4.0,7.2,49,0.00,,,0.00,VWS V14.01,2013-05-01 14:10:00,
2013-05-01 10:11:00,69.4,47.2,29.23,WNW,292,1.3,2.7,45,0.00,,,0.00,VWS V14.01,2013-05-01 14:11:00,
2013-05-01 10:12:00,59.7,41.1,29.26,West,270,3.8,5.4,50,0.00,,,0.00,VWS V14.01,2013-05-01 14:12:00,
2013-05-01 10:13:00,59.9,41.8,29.26,WNW,292,4.3,5.6,51,0.00,,,0.00,VWS V14.01,2013-05-01 14:13:00,
2013-05-01 10:14:00,60.1,41.9,29.26,West,270,3.1,4.3,51,0.00,,,0.00,VWS V14.01,2013-05-01 14:14:00,
2013-05-01 10:15:00,60.1,42.4,29.26,WSW,248,3.4,6.0,52,0.00,,,0.00,VWS V14.01,2013-05-01 14:15:00,
2013-05-01 10:16:00,69.4,47.2,29.23,WNW,292,4.9,4.9,45,0.00,,,0.00,VWS V14.01,2013-05-01 14:16:00,
2013-05-01 10:17:00,59.7,42.1,29.26,WSW,248,4.9,4.9,52,0.00,,,0.00,VWS V14.01,2013-05-01 14:17:00,
2013-05-01 10:18:00,59.5,42.4,29.26,WNW,292,2.9,6.3,53,0.00,,,0.00,VWS V14.01,2013-05-01 14:18:00,
2013-05-01 10:19:00,59.9,43.2,29.26,West,270,3.8,4.9,54,0.00,,,0.00,VWS V14.01,2013-05-01 14:19:00,
2013-05-01 10:20:00,60.4,43.7,29.26,WNW,292,3.1,4.9,54,0.00,,,0.00,VWS V14.01,2013-05-01 14:20:00,
2013-05-01 10:21:00,67.3,42.8,29.26,West,270,4.9,4.9,41,0.00,,,0.00,VWS V14.01,2013-05-01 14:21:00,
2013-05-01 10:22:00,60.8,43.6,29.26,NW,315,2.7,2.7,53,0.00,,,0.00,VWS V14.01,2013-05-01 14:22:00,
2013-05-01 10:23:00,61.3,44.1,29.26,WNW,292,5.4,5.4,53,0.00,,,0.00,VWS V14.01,2013-05-01 14:23:00,
2013-05-01 10:24:00,61.7,44.4,29.26,WSW,248,3.6,5.4,53,0.00,,,0.00,VWS V14.01,2013-05-01 14:24:00,
2013-05-01 10:25:00,61.9,44.6,29.26,West,270,2.9,6.0,53,0.00,,,0.00,VWS V14.01,2013-05-01 14:25:00,
2013-05-01 10:26:00,64.8,42.4,29.26,WSW,248,3.6,4.0,44,0.00,,,0.00,VWS V14.01,2013-05-01 14:26:00,
2013-05-01 10:27:00,62.8,44.9,29.26,WNW,292,2.7,3.8,52,0.00,,,0.00,VWS V14.01,2013-05-01 14:27:00,
2013-05-01 10:28:00,63.0,45.1,29.26,West,270,2.0,3.6,52,0.00,,,0.00,VWS V14.01,2013-05-01 14:28:00,
2013-05-01 10:29:00,63.1,45.2,29.26,NW,315,1.6,2.0,52,0.00,,,0.00,VWS V14.01,2013-05-01 14:29:00,
2013-05-01 10:30:00,63.1,44.7,29.26,NW,315,2.5,3.6,51,0.00,,,0.00,VWS V14.01,2013-05-01 14:30:00,
2013-05-01 10:31:00,63.7,43.1,29.26,WSW,248,3.1,3.1,47,0.00,,,0.00,VWS V14.01,2013-05-01 14:31:00,
2013-05-01 10:32:00,63.9,45.4,29.26,WSW,248,4.3,4.3,51,0.00,,,0.00,VWS V14.01,2013-05-01 14:32:00,
2013-05-01 10:34:00,64.4,45.4,29.26,WNW,292,2.5,4.3,50,0.00,,,0.00,VWS V14.01,2013-05-01 14:34:00,
2013-05-01 10:35:00,64.4,45.4,29.26,NW,315,2.9,3.1,50,0.00,,,0.00,VWS V14.01,2013-05-01 14:35:00,
2013-05-01 10:36:00,64.2,44.7,29.26,WSW,248,0.0,0.9,49,0.00,,,0.00,VWS V14.01,2013-05-01 14:36:00,
2013-05-01 10:37:00,65.7,46.0,29.26,WNW,292,3.1,4.5,49,0.00,,,0.00,VWS V14.01,2013-05-01 14:37:00,
2013-05-01 10:38:00,64.9,44.8,29.26,WSW,248,5.6,5.6,48,0.00,,,0.00,VWS V14.01,2013-05-01 14:38:00,
2013-05-01 10:39:00,65.1,45.5,29.26,WNW,292,4.0,5.6,49,0.00,,,0.00,VWS V14.01,2013-05-01 14:39:00,
2013-05-01 10:40:00,65.3,45.7,29.26,WSW,248,3.6,4.7,49,0.00,,,0.00,VWS V14.01,2013-05-01 14:40:00,
2013-05-01 10:41:00,64.8,45.7,29.26,WSW,248,2.9,3.4,50,0.00,,,0.00,VWS V14.01,2013-05-01 14:41:00,
2013-05-01 10:42:00,64.4,43.8,29.26,West,270,4.0,5.4,47,0.00,,,0.00,VWS V14.01,2013-05-01 14:42:00,
2013-05-01 10:43:00,64.4,43.8,29.26,West,270,4.3,6.5,47,0.00,,,0.00,VWS V14.01,2013-05-01 14:43:00,
2013-05-01 10:44:00,64.4,43.8,29.26,WSW,248,4.9,5.6,47,0.00,,,0.00,VWS V14.01,2013-05-01 14:44:00,
2013-05-01 10:45:00,64.4,44.3,29.26,West,270,4.0,4.9,48,0.00,,,0.00,VWS V14.01,2013-05-01 14:45:00,
2013-05-01 10:46:00,65.8,46.7,29.26,West,270,2.7,2.7,50,0.00,,,0.00,VWS V14.01,2013-05-01 14:46:00,
2013-05-01 10:47:00,64.4,44.3,29.26,WNW,292,3.6,5.6,48,0.00,,,0.00,VWS V14.01,2013-05-01 14:47:00,
2013-05-01 10:48:00,64.6,44.5,29.26,WSW,248,8.5,8.5,48,0.00,,,0.00,VWS V14.01,2013-05-01 14:48:00,
2013-05-01 10:49:00,64.6,44.5,29.26,WSW,248,6.5,8.5,48,0.00,,,0.00,VWS V14.01,2013-05-01 14:49:00,
2013-05-01 10:50:00,64.4,44.3,29.26,WSW,248,5.8,7.4,48,0.00,,,0.00,VWS V14.01,2013-05-01 14:50:00,
2013-05-01 10:51:00,66.2,47.0,29.26,WNW,292,1.6,2.9,50,0.00,,,0.00,VWS V14.01,2013-05-01 14:51:00,
2013-05-01 10:52:00,64.4,44.3,29.26,West,270,5.8,6.7,48,0.00,,,0.00,VWS V14.01,2013-05-01 14:52:00,
2013-05-01 10:53:00,64.4,44.3,29.26,NW,315,3.8,5.8,48,0.00,,,0.00,VWS V14.01,2013-05-01 14:53:00,
2013-05-01 10:54:00,65.3,45.1,29.26,WNW,292,3.1,4.0,48,0.00,,,0.00,VWS V14.01,2013-05-01 14:54:00,
2013-05-01 10:56:00,65.8,46.7,29.26,WNW,292,2.7,4.9,50,0.00,,,0.00,VWS V14.01,2013-05-01 14:56:00,
2013-05-01 10:57:00,65.3,45.1,29.26,West,270,2.9,3.1,48,0.00,,,0.00,VWS V14.01,2013-05-01 14:57:00,
2013-05-01 10:58:00,66.4,45.6,29.26,WSW,248,4.7,4.7,47,0.00,,,0.00,VWS V14.01,2013-05-01 14:58:00,
2013-05-01 10:59:00,66.4,45.0,29.26,WSW,248,7.2,7.8,46,0.00,,,0.00,VWS V14.01,2013-05-01 14:59:00,
2013-05-01 11:00:00,66.6,45.7,29.26,WNW,292,3.8,7.2,47,0.00,,,0.00,VWS V14.01,2013-05-01 15:00:00,
2013-05-01 11:01:00,61.3,41.0,29.26,WSW,248,5.6,6.0,47,0.00,,,0.00,VWS V14.01,2013-05-01 15:01:00,
2013-05-01 11:02:00,66.6,45.7,29.26,West,270,4.3,7.2,47,0.00,,,0.00,VWS V14.01,2013-05-01 15:02:00,
2013-05-01 11:04:00,66.4,45.6,29.26,WNW,292,8.7,8.7,47,0.00,,,0.00,VWS V14.01,2013-05-01 15:04:00,
2013-05-01 11:05:00,66.4,45.6,29.26,West,270,2.0,8.7,47,0.00,,,0.00,VWS V14.01,2013-05-01 15:05:00,
2013-05-01 11:06:00,60.6,41.4,29.26,North,0,1.3,3.8,49,0.00,,,0.00,VWS V14.01,2013-05-01 15:06:00,
2013-05-01 11:07:00,66.7,45.9,29.26,WNW,292,3.4,7.6,47,0.00,,,0.00,VWS V14.01,2013-05-01 15:07:00,
2013-05-01 11:08:00,67.1,46.2,29.26,WSW,248,2.9,4.0,47,0.00,,,0.00,VWS V14.01,2013-05-01 15:08:00,
2013-05-01 11:09:00,67.6,46.7,29.26,WNW,292,4.7,4.7,47,0.00,,,0.00,VWS V14.01,2013-05-01 15:09:00,
2013-05-01 11:10:00,68.0,46.5,29.26,WSW,248,4.9,4.9,46,0.00,,,0.00,VWS V14.01,2013-05-01 15:10:00,
2013-05-01 11:11:00,68.0,46.5,29.26,West,270,4.9,4.9,46,0.00,,,0.00,VWS V14.01,2013-05-01 15:11:00,
2013-05-01 11:12:00,59.7,41.1,29.26,West,270,3.8,5.4,50,0.00,,,0.00,VWS V14.01,2013-05-01 15:12:00,
2013-05-01 11:13:00,68.4,46.2,29.26,WNW,292,2.5,3.4,45,0.00,,,0.00,VWS V14.01,2013-05-01 15:13:00,
2013-05-01 11:14:00,68.7,46.5,29.26,WNW,292,4.3,4.3,45,0.00,,,0.00,VWS V14.01,2013-05-01 15:14:00,
2013-05-01 11:15:00,68.7,46.5,29.26,WNW,292,4.0,4.3,45,0.00,,,0.00,VWS V14.01,2013-05-01 15:15:00,
2013-05-01 11:16:00,69.1,46.9,29.26,WNW,292,4.7,4.7,45,0.00,,,0.00,VWS V14.01,2013-05-01 15:16:00,
2013-05-01 11:17:00,59.7,42.1,29.26,West,270,2.9,2.9,52,0.00,,,0.00,VWS V14.01,2013-05-01 15:17:00,
2013-05-01 11:18:00,69.3,46.4,29.26,WNW,292,4.0,4.0,44,0.00,,,0.00,VWS V14.01,2013-05-01 15:18:00,
2013-05-01 11:19:00,69.3,46.4,29.26,WSW,248,5.4,5.4,44,0.00,,,0.00,VWS V14.01,2013-05-01 15:19:00,
2013-05-01 11:20:00,68.2,45.5,29.26,WSW,248,6.0,9.8,44,0.00,,,0.00,VWS V14.01,2013-05-01 15:20:00,
2013-05-01 11:21:00,68.2,45.5,29.26,West,270,7.8,9.6,44,0.00,,,0.00,VWS V14.01,2013-05-01 15:21:00,
2013-05-01 11:22:00,60.8,43.6,29.26,NW,315,2.7,2.7,53,0.00,,,0.00,VWS V14.01,2013-05-01 15:22:00,
2013-05-01 11:23:00,68.2,45.5,29.26,WNW,292,5.8,7.2,44,0.00,,,0.00,VWS V14.01,2013-05-01 15:23:00,
2013-05-01 11:24:00,68.4,45.6,29.26,WNW,292,4.5,6.3,44,0.00,,,0.00,VWS V14.01,2013-05-01 15:24:00,
2013-05-01 11:25:00,69.3,46.4,29.26,NW,315,2.9,4.5,44,0.00,,,0.00,VWS V14.01,2013-05-01 15:25:00,
2013-05-01 11:26:00,69.3,46.4,29.26,WNW,292,6.0,6.0,44,0.00,,,0.00,VWS V14.01,2013-05-01 15:26:00,
2013-05-01 11:27:00,62.4,45.1,29.26,WNW,292,2.7,3.8,53,0.00,,,0.00,VWS V14.01,2013-05-01 15:27:00,
2013-05-01 11:28:00,69.3,45.8,29.26,WNW,292,4.3,6.5,43,0.00,,,0.00,VWS V14.01,2013-05-01 15:28:00,
2013-05-01 11:29:00,69.3,45.8,29.26,WNW,292,7.2,7.2,43,0.00,,,0.00,VWS V14.01,2013-05-01 15:29:00,
2013-05-01 11:30:00,69.3,45.8,29.26,NW,315,3.4,7.2,43,0.00,,,0.00,VWS V14.01,2013-05-01 15:30:00,
2013-05-01 11:31:00,69.3,45.8,29.26,NW,315,5.4,5.4,43,0.00,,,0.00,VWS V14.01,2013-05-01 15:31:00,
2013-05-01 11:32:00,63.9,45.4,29.26,WSW,248,4.3,4.3,51,0.00,,,0.00,VWS V14.01,2013-05-01 15:32:00,
2013-05-01 11:33:00,69.3,45.8,29.26,West,270,4.3,4.3,43,0.00,,,0.00,VWS V14.01,2013-05-01 15:33:00,
2013-05-01 11:34:00,69.6,46.2,29.26,WNW,292,4.5,5.4,43,0.00,,,0.00,VWS V14.01,2013-05-01 15:34:00,
2013-05-01 11:35:00,69.3,45.8,29.26,WSW,248,5.4,6.5,43,0.00,,,0.00,VWS V14.01,2013-05-01 15:35:00,
2013-05-01 11:36:00,69.1,45.7,29.26,NW,315,7.4,7.4,43,0.00,,,0.00,VWS V14.01,2013-05-01 15:36:00,
2013-05-01 11:37:00,65.7,46.0,29.26,WNW,292,3.1,4.5,49,0.00,,,0.00,VWS V14.01,2013-05-01 15:37:00,
2013-05-01 11:38:00,68.7,44.7,29.23,WSW,248,7.4,7.4,42,0.00,,,0.00,VWS V14.01,2013-05-01 15:38:00,
2013-05-01 11:39:00,68.9,45.5,29.23,WNW,292,3.1,8.7,43,0.00,,,0.00,VWS V14.01,2013-05-01 15:39:00,
2013-05-01 11:40:00,68.9,45.5,29.23,WNW,292,4.9,6.5,43,0.00,,,0.00,VWS V14.01,2013-05-01 15:40:00,
2013-05-01 11:41:00,68.9,45.5,29.23,WNW,292,7.2,7.2,43,0.00,,,0.00,VWS V14.01,2013-05-01 15:41:00,
2013-05-01 11:42:00,65.1,45.0,29.26,West,270,4.0,5.4,48,0.00,,,0.00,VWS V14.01,2013-05-01 15:42:00,
2013-05-01 11:43:00,69.3,45.8,29.23,West,270,4.3,6.0,43,0.00,,,0.00,VWS V14.01,2013-05-01 15:43:00,
2013-05-01 11:44:00,69.6,45.5,29.23,NW,315,2.9,6.0,42,0.00,,,0.00,VWS V14.01,2013-05-01 15:44:00,
2013-05-01 11:45:00,70.2,46.0,29.23,NW,315,4.3,4.3,42,0.00,,,0.00,VWS V14.01,2013-05-01 15:45:00,
2013-05-01 11:46:00,70.3,46.2,29.23,West,270,3.6,4.3,42,0.00,,,0.00,VWS V14.01,2013-05-01 15:46:00,
2013-05-01 11:47:00,64.4,44.3,29.26,WNW,292,3.6,5.6,48,0.00,,,0.00,VWS V14.01,2013-05-01 15:47:00,
2013-05-01 11:48:00,70.7,46.5,29.23,WNW,292,2.5,8.5,42,0.00,,,0.00,VWS V14.01,2013-05-01 15:48:00,
2013-05-01 11:49:00,70.9,46.7,29.23,WNW,292,6.3,6.5,42,0.00,,,0.00,VWS V14.01,2013-05-01 15:49:00,
2013-05-01 11:50:00,70.7,45.9,29.23,NW,315,7.4,7.4,41,0.00,,,0.00,VWS V14.01,2013-05-01 15:50:00,
2013-05-01 11:51:00,70.2,45.4,29.23,WNW,292,4.0,7.4,41,0.00,,,0.00,VWS V14.01,2013-05-01 15:51:00,
2013-05-01 11:52:00,64.4,44.3,29.26,West,270,5.8,6.7,48,0.00,,,0.00,VWS V14.01,2013-05-01 15:52:00,
2013-05-01 11:53:00,69.8,45.1,29.26,WNW,292,5.8,6.3,41,0.00,,,0.00,VWS V14.01,2013-05-01 15:53:00,
2013-05-01 11:54:00,69.4,45.4,29.26,West,270,4.9,5.8,42,0.00,,,0.00,VWS V14.01,2013-05-01 15:54:00,
2013-05-01 11:55:00,69.4,45.4,29.26,West,270,4.0,7.4,42,0.00,,,0.00,VWS V14.01,2013-05-01 15:55:00,
2013-05-01 11:56:00,69.4,45.4,29.26,WSW,248,6.0,6.0,42,0.00,,,0.00,VWS V14.01,2013-05-01 15:56:00,
2013-05-01 11:57:00,65.3,45.1,29.26,West,270,2.9,3.1,48,0.00,,,0.00,VWS V14.01,2013-05-01 15:57:00,
2013-05-01 11:58:00,69.8,45.7,29.26,WNW,292,3.8,6.5,42,0.00,,,0.00,VWS V14.01,2013-05-01 15:58:00,
2013-05-01 11:59:00,70.0,45.2,29.26,WNW,292,4.3,5.8,41,0.00,,,0.00,VWS V14.01,2013-05-01 15:59:00,
2013-05-01 12:00:00,70.2,45.4,29.26,WNW,292,3.8,5.6,41,0.00,,,0.00,VWS V14.01,2013-05-01 16:00:00,
2013-05-01 12:01:00,69.8,45.1,29.26,WNW,292,6.0,6.0,41,0.00,,,0.00,VWS V14.01,2013-05-01 16:01:00,
2013-05-01 12:02:00,66.6,45.7,29.26,West,270,4.3,4.3,47,0.00,,,0.00,VWS V14.01,2013-05-01 16:02:00,
2013-05-01 12:03:00,70.0,45.9,29.26,WNW,292,4.7,4.7,42,0.00,,,0.00,VWS V14.01,2013-05-01 16:03:00,
2013-05-01 12:04:00,70.3,46.2,29.26,WSW,248,4.0,7.4,42,0.00,,,0.00,VWS V14.01,2013-05-01 16:04:00,
2013-05-01 12:05:00,70.2,45.4,29.26,NW,315,3.8,4.3,41,0.00,,,0.00,VWS V14.01,2013-05-01 16:05:00,
2013-05-01 12:06:00,70.2,45.4,29.26,WSW,248,3.1,5.6,41,0.00,,,0.00,VWS V14.01,2013-05-01 16:06:00,
2013-05-01 12:07:00,66.7,45.9,29.26,WNW,292,3.4,7.6,47,0.00,,,0.00,VWS V14.01,2013-05-01 16:07:00,
2013-05-01 12:08:00,70.9,46.0,29.26,WNW,292,3.4,5.6,41,0.00,,,0.00,VWS V14.01,2013-05-01 16:08:00,
2013-05-01 12:09:00,70.9,46.0,29.26,WNW,292,4.7,4.7,41,0.00,,,0.00,VWS V14.01,2013-05-01 16:09:00,
2013-05-01 12:10:00,70.3,44.9,29.26,West,270,6.5,8.1,40,0.00,,,0.00,VWS V14.01,2013-05-01 16:10:00,
2013-05-01 12:11:00,70.2,44.7,29.26,West,270,3.1,6.5,40,0.00,,,0.00,VWS V14.01,2013-05-01 16:11:00,
2013-05-01 12:12:00,68.4,46.2,29.26,WSW,248,3.4,3.4,45,0.00,,,0.00,VWS V14.01,2013-05-01 16:12:00,
2013-05-01 12:13:00,70.7,45.9,29.26,WNW,292,5.4,5.4,41,0.00,,,0.00,VWS V14.01,2013-05-01 16:13:00,
2013-05-01 12:14:00,70.7,45.9,29.26,NW,315,3.8,5.4,41,0.00,,,0.00,VWS V14.01,2013-05-01 16:14:00,
2013-05-01 12:15:00,71.2,46.4,29.26,WNW,292,2.5,3.8,41,0.00,,,0.00,VWS V14.01,2013-05-01 16:15:00,
2013-05-01 12:16:00,71.1,45.5,29.26,West,270,3.6,5.6,40,0.00,,,0.00,VWS V14.01,2013-05-01 16:16:00,
2013-05-01 12:17:00,69.1,46.3,29.26,NW,315,3.8,3.8,44,0.00,,,0.00,VWS V14.01,2013-05-01 16:17:00,
2013-05-01 12:18:00,71.2,46.4,29.26,WNW,292,4.3,5.6,41,0.00,,,0.00,VWS V14.01,2013-05-01 16:18:00,
2013-05-01 12:19:00,70.9,46.0,29.26,West,270,2.5,4.3,41,0.00,,,0.00,VWS V14.01,2013-05-01 16:19:00,
2013-05-01 12:20:00,71.4,47.2,29.26,WNW,292,6.0,6.0,42,0.00,,,0.00,VWS V14.01,2013-05-01 16:20:00,
2013-05-01 12:21:00,71.1,44.9,29.26,WSW,248,3.1,6.3,39,0.00,,,0.00,VWS V14.01,2013-05-01 16:21:00,
2013-05-01 12:22:00,68.4,45.6,29.26,West,270,5.4,5.4,44,0.00,,,0.00,VWS V14.01,2013-05-01 16:22:00,
2013-05-01 12:23:00,70.2,44.1,29.23,WNW,292,4.3,8.5,39,0.00,,,0.00,VWS V14.01,2013-05-01 16:23:00,
2013-05-01 12:24:00,70.0,43.9,29.23,NE,45,2.0,4.7,39,0.00,,,0.00,VWS V14.01,2013-05-01 16:24:00,
2013-05-01 12:25:00,70.3,44.2,29.23,WNW,292,4.0,7.4,39,0.00,,,0.00,VWS V14.01,2013-05-01 16:25:00,
2013-05-01 12:26:00,70.3,44.2,29.23,NW,315,3.4,4.0,39,0.00,,,0.00,VWS V14.01,2013-05-01 16:26:00,
2013-05-01 12:27:00,69.3,45.8,29.26,WNW,292,6.5,6.5,43,0.00,,,0.00,VWS V14.01,2013-05-01 16:27:00,
2013-05-01 12:28:00,70.7,44.5,29.23,NW,315,3.1,5.4,39,0.00,,,0.00,VWS V14.01,2013-05-01 16:28:00,
2013-05-01 12:29:00,71.2,44.4,29.23,NNW,338,2.9,5.8,38,0.00,,,0.00,VWS V14.01,2013-05-01 16:29:00,
2013-05-01 12:30:00,71.4,44.5,29.23,NNW,338,2.5,6.0,38,0.00,,,0.00,VWS V14.01,2013-05-01 16:30:00,
2013-05-01 12:31:00,71.4,44.5,29.23,West,270,5.8,5.8,38,0.00,,,0.00,VWS V14.01,2013-05-01 16:31:00,
2013-05-01 12:32:00,69.3,45.8,29.26,West,270,4.3,5.4,43,0.00,,,0.00,VWS V14.01,2013-05-01 16:32:00,
2013-05-01 12:33:00,71.1,43.5,29.23,West,270,3.6,3.6,37,0.00,,,0.00,VWS V14.01,2013-05-01 16:33:00,
2013-05-01 12:34:00,71.1,43.5,29.23,WNW,292,2.7,3.6,37,0.00,,,0.00,VWS V14.01,2013-05-01 16:34:00,
2013-05-01 12:35:00,71.4,44.5,29.23,WNW,292,3.6,3.6,38,0.00,,,0.00,VWS V14.01,2013-05-01 16:35:00,
2013-05-01 12:36:00,71.4,44.5,29.23,WNW,292,3.6,3.6,38,0.00,,,0.00,VWS V14.01,2013-05-01 16:36:00,
2013-05-01 12:37:00,69.1,45.7,29.23,WNW,292,6.3,6.3,43,0.00,,,0.00,VWS V14.01,2013-05-01 16:37:00,
2013-05-01 12:38:00,71.1,42.8,29.26,NW,315,2.7,6.0,36,0.00,,,0.00,VWS V14.01,2013-05-01 16:38:00,
2013-05-01 12:39:00,71.1,42.8,29.26,WNW,292,3.8,3.8,36,0.00,,,0.00,VWS V14.01,2013-05-01 16:39:00,
2013-05-01 12:40:00,71.1,42.8,29.26,NNW,338,4.3,5.6,36,0.00,,,0.00,VWS V14.01,2013-05-01 16:40:00,
2013-05-01 12:41:00,71.1,42.8,29.26,WNW,292,6.0,6.0,36,0.00,,,0.00,VWS V14.01,2013-05-01 16:41:00,
2013-05-01 12:42:00,69.3,45.8,29.23,WNW,292,6.0,6.0,43,0.00,,,0.00,VWS V14.01,2013-05-01 16:42:00,
2013-05-01 12:43:00,71.1,42.8,29.26,NW,315,2.5,7.8,36,0.00,,,0.00,VWS V14.01,2013-05-01 16:43:00,
2013-05-01 12:44:00,71.1,42.8,29.26,NNW,338,1.6,2.5,36,0.00,,,0.00,VWS V14.01,2013-05-01 16:44:00,
2013-05-01 12:45:00,71.1,42.8,29.26,NW,315,1.3,4.3,36,0.00,,,0.00,VWS V14.01,2013-05-01 16:45:00,
2013-05-01 12:46:00,71.4,43.1,29.26,ESE,112,1.1,5.8,36,0.00,,,0.00,VWS V14.01,2013-05-01 16:46:00,
2013-05-01 12:47:00,70.5,46.3,29.23,WNW,292,8.5,8.5,42,0.00,,,0.00,VWS V14.01,2013-05-01 16:47:00,
2013-05-01 12:48:00,72.0,43.6,29.26,North,0,2.0,3.6,36,0.00,,,0.00,VWS V14.01,2013-05-01 16:48:00,
2013-05-01 12:49:00,72.3,43.9,29.26,NW,315,1.6,2.0,36,0.00,,,0.00,VWS V14.01,2013-05-01 16:49:00,
2013-05-01 12:50:00,72.7,44.2,29.26,West,270,2.7,2.7,36,0.00,,,0.00,VWS V14.01,2013-05-01 16:50:00,
2013-05-01 12:51:00,73.0,44.5,29.26,WSW,248,2.0,2.7,36,0.00,,,0.00,VWS V14.01,2013-05-01 16:51:00,
2013-05-01 12:52:00,69.8,45.1,29.26,WNW,292,4.3,6.3,41,0.00,,,0.00,VWS V14.01,2013-05-01 16:52:00,
2013-05-01 12:53:00,73.0,44.5,29.26,North,0,2.0,3.6,36,0.00,,,0.00,VWS V14.01,2013-05-01 16:53:00,
2013-05-01 12:54:00,73.0,43.8,29.26,WNW,292,3.8,3.8,35,0.00,,,0.00,VWS V14.01,2013-05-01 16:54:00,
2013-05-01 12:55:00,72.9,43.6,29.26,NW,315,4.0,4.0,35,0.00,,,0.00,VWS V14.01,2013-05-01 16:55:00,
2013-05-01 12:56:00,72.9,43.6,29.26,North,0,1.6,4.0,35,0.00,,,0.00,VWS V14.01,2013-05-01 16:56:00,
2013-05-01 12:57:00,69.8,45.7,29.26,West,270,3.6,3.6,42,0.00,,,0.00,VWS V14.01,2013-05-01 16:57:00,
2013-05-01 12:58:00,72.9,43.6,29.26,NNW,338,2.9,2.9,35,0.00,,,0.00,VWS V14.01,2013-05-01 16:58:00,
2013-05-01 12:59:00,72.9,43.6,29.26,NW,315,4.3,4.3,35,0.00,,,0.00,VWS V14.01,2013-05-01 16:59:00,
2013-05-01 13:00:00,72.9,43.6,29.26,NW,315,1.3,4.3,35,0.00,,,0.00,VWS V14.01,2013-05-01 17:00:00,
2013-05-01 13:01:00,72.3,43.2,29.26,North,0,3.4,5.8,35,0.00,,,0.00,VWS V14.01,2013-05-01 17:01:00,
2013-05-01 13:02:00,70.0,45.9,29.26,WNW,292,4.7,4.7,42,0.00,,,0.00,VWS V14.01,2013-05-01 17:02:00,
2013-05-01 13:03:00,72.3,43.2,29.26,WNW,292,2.9,4.3,35,0.00,,,0.00,VWS V14.01,2013-05-01 17:03:00,
2013-05-01 13:04:00,72.3,43.2,29.26,WNW,292,5.4,5.4,35,0.00,,,0.00,VWS V14.01,2013-05-01 17:04:00,
2013-05-01 13:05:00,72.7,43.5,29.26,North,0,5.6,5.6,35,0.00,,,0.00,VWS V14.01,2013-05-01 17:05:00,
2013-05-01 13:06:00,73.0,43.8,29.26,North,0,2.0,5.6,35,0.00,,,0.00,VWS V14.01,2013-05-01 17:06:00,
2013-05-01 13:07:00,70.7,45.9,29.26,NW,315,4.3,5.6,41,0.00,,,0.00,VWS V14.01,2013-05-01 17:07:00,
2013-05-01 13:08:00,72.9,43.6,29.26,NNW,338,1.6,2.0,35,0.00,,,0.00,VWS V14.01,2013-05-01 17:08:00,
2013-05-01 13:09:00,72.9,43.6,29.26,NNE,22,2.9,2.9,35,0.00,,,0.00,VWS V14.01,2013-05-01 17:09:00,
2013-05-01 13:10:00,73.4,43.3,29.26,North,0,3.1,3.1,34,0.00,,,0.00,VWS V14.01,2013-05-01 17:10:00,
2013-05-01 13:11:00,73.2,44.0,29.26,North,0,0.0,3.1,35,0.00,,,0.00,VWS V14.01,2013-05-01 17:11:00,
2013-05-01 13:12:00,70.7,45.9,29.26,WNW,292,4.5,4.9,41,0.00,,,0.00,VWS V14.01,2013-05-01 17:12:00,
2013-05-01 13:13:00,73.2,43.2,29.26,NNW,338,0.9,4.0,34,0.00,,,0.00,VWS V14.01,2013-05-01 17:13:00,
2013-05-01 13:14:00,73.2,44.0,29.26,North,0,0.9,4.0,35,0.00,,,0.00,VWS V14.01,2013-05-01 17:14:00,
2013-05-01 13:15:00,73.2,44.0,29.26,North,0,2.5,2.5,35,0.00,,,0.00,VWS V14.01,2013-05-01 17:15:00,
2013-05-01 13:16:00,73.2,44.0,29.26,NNW,338,2.9,2.9,35,0.00,,,0.00,VWS V14.01,2013-05-01 17:16:00,
2013-05-01 13:17:00,71.2,46.4,29.26,WNW,292,3.6,4.7,41,0.00,,,0.00,VWS V14.01,2013-05-01 17:17:00,
2013-05-01 13:18:00,73.2,44.0,29.26,WNW,292,3.4,3.4,35,0.00,,,0.00,VWS V14.01,2013-05-01 17:18:00,
2013-05-01 13:19:00,73.2,44.0,29.26,WNW,292,1.3,3.4,35,0.00,,,0.00,VWS V14.01,2013-05-01 17:19:00,
2013-05-01 13:20:00,73.2,44.0,29.26,WNW,292,1.3,1.3,35,0.00,,,0.00,VWS V14.01,2013-05-01 17:20:00,
2013-05-01 13:21:00,73.2,44.0,29.26,SW,225,3.1,4.3,35,0.00,,,0.00,VWS V14.01,2013-05-01 17:21:00,
2013-05-01 13:22:00,71.1,45.5,29.23,West,270,8.5,8.5,40,0.00,,,0.00,VWS V14.01,2013-05-01 17:22:00,
2013-05-01 13:23:00,72.7,44.2,29.26,NW,315,3.6,4.7,36,0.00,,,0.00,VWS V14.01,2013-05-01 17:23:00,
2013-05-01 13:24:00,72.0,43.6,29.26,WNW,292,4.0,5.6,36,0.00,,,0.00,VWS V14.01,2013-05-01 17:24:00,
2013-05-01 13:25:00,71.4,43.1,29.26,NW,315,4.9,5.6,36,0.00,,,0.00,VWS V14.01,2013-05-01 17:25:00,
2013-05-01 13:26:00,71.4,43.8,29.26,WNW,292,3.6,4.9,37,0.00,,,0.00,VWS V14.01,2013-05-01 17:26:00,
2013-05-01 13:27:00,70.7,44.5,29.23,WNW,292,4.7,6.3,39,0.00,,,0.00,VWS V14.01,2013-05-01 17:27:00,
2013-05-01 13:28:00,71.8,44.1,29.26,West,270,5.8,5.8,37,0.00,,,0.00,VWS V14.01,2013-05-01 17:28:00,
2013-05-01 13:29:00,70.9,43.3,29.26,West,270,4.3,7.4,37,0.00,,,0.00,VWS V14.01,2013-05-01 17:29:00,
2013-05-01 13:30:00,70.5,43.7,29.26,West,270,5.6,6.3,38,0.00,,,0.00,VWS V14.01,2013-05-01 17:30:00,
2013-05-01 13:31:00,70.3,43.5,29.26,West,270,5.8,5.8,38,0.00,,,0.00,VWS V14.01,2013-05-01 17:31:00,
2013-05-01 13:32:00,71.1,43.5,29.23,NW,315,2.0,2.5,37,0.00,,,0.00,VWS V14.01,2013-05-01 17:32:00,
2013-05-01 13:33:00,70.5,44.4,29.26,WNW,292,2.9,2.9,39,0.00,,,0.00,VWS V14.01,2013-05-01 17:33:00,
2013-05-01 13:35:00,70.7,44.5,29.26,WNW,292,6.3,6.3,39,0.00,,,37.98,VWS V14.01,2013-05-01 17:35:00,
2013-05-01 13:36:00,70.7,44.5,29.26,WNW,292,4.9,7.6,39,0.00,,,37.98,VWS V14.01,2013-05-01 17:36:00,
2013-05-01 13:37:00,71.1,42.8,29.26,NW,315,2.7,6.0,36,0.00,,,0.00,VWS V14.01,2013-05-01 17:37:00,
2013-05-01 13:38:00,69.4,44.1,29.26,WSW,248,5.8,6.3,40,0.00,,,37.98,VWS V14.01,2013-05-01 17:38:00,
2013-05-01 13:39:00,69.4,44.1,29.26,WSW,248,5.4,6.3,40,0.00,,,37.98,VWS V14.01,2013-05-01 17:39:00,
2013-05-01 13:40:00,69.4,44.1,29.26,West,270,4.9,5.4,40,0.00,,,37.98,VWS V14.01,2013-05-01 17:40:00,
2013-05-01 13:41:00,70.2,46.0,29.26,WNW,292,4.9,7.6,42,0.00,,,37.98,VWS V14.01,2013-05-01 17:41:00,
2013-05-01 13:42:00,71.1,42.8,29.26,NW,315,2.5,7.8,36,0.00,,,0.00,VWS V14.01,2013-05-01 17:42:00,
2013-05-01 13:43:00,69.8,45.7,29.26,WNW,292,4.3,9.0,42,0.00,,,37.98,VWS V14.01,2013-05-01 17:43:00,
2013-05-01 13:44:00,69.8,46.3,29.26,West,270,6.0,6.0,43,0.00,,,37.98,VWS V14.01,2013-05-01 17:44:00,
2013-05-01 13:46:00,69.8,46.3,29.26,West,270,6.0,6.0,43,0.00,,,37.98,VWS V14.01,2013-05-01 17:46:00,
2013-05-01 13:47:00,72.0,43.6,29.26,North,0,2.9,3.6,36,0.00,,,0.00,VWS V14.01,2013-05-01 17:47:00,
2013-05-01 13:48:00,70.3,46.2,29.26,West,270,6.0,7.2,42,0.00,,,37.98,VWS V14.01,2013-05-01 17:48:00,
2013-05-01 13:49:00,70.0,45.9,29.26,WNW,292,5.8,6.3,42,0.00,,,37.98,VWS V14.01,2013-05-01 17:49:00,
2013-05-01 13:50:00,70.2,45.4,29.26,WNW,292,3.8,5.8,41,0.00,,,37.98,VWS V14.01,2013-05-01 17:50:00,
2013-05-01 13:51:00,70.3,45.5,29.26,WNW,292,3.4,3.4,41,0.00,,,37.98,VWS V14.01,2013-05-01 17:51:00,
2013-05-01 13:52:00,73.0,44.5,29.26,WNW,292,3.6,3.6,36,0.00,,,0.00,VWS V14.01,2013-05-01 17:52:00,
2013-05-01 13:53:00,71.2,45.7,29.23,WNW,292,2.5,2.5,40,0.00,,,37.98,VWS V14.01,2013-05-01 17:53:00,
2013-05-01 13:54:00,71.4,45.9,29.23,NW,315,2.5,4.0,40,0.00,,,37.98,VWS V14.01,2013-05-01 17:54:00,
2013-05-01 13:56:00,71.6,45.4,29.23,NW,315,4.3,4.3,39,0.00,,,37.98,VWS V14.01,2013-05-01 17:56:00,
2013-05-01 13:57:00,72.9,43.6,29.26,WNW,292,1.6,2.5,35,0.00,,,0.00,VWS V14.01,2013-05-01 17:57:00,
2013-05-01 13:58:00,72.1,45.8,29.23,North,0,0.0,0.0,39,0.00,,,37.98,VWS V14.01,2013-05-01 17:58:00,
2013-05-01 13:59:00,72.7,46.3,29.23,NW,315,3.6,7.2,39,0.00,,,37.98,VWS V14.01,2013-05-01 17:59:00,
2013-05-01 14:00:00,72.1,45.2,29.23,NNW,338,6.3,6.3,38,0.00,,,37.98,VWS V14.01,2013-05-01 18:00:00,
2013-05-01 14:01:00,72.7,45.6,29.23,North,0,1.3,6.3,38,0.00,,,37.98,VWS V14.01,2013-05-01 18:01:00,
2013-05-01 14:02:00,72.3,43.2,29.26,NNW,338,4.3,4.3,35,0.00,,,0.00,VWS V14.01,2013-05-01 18:02:00,
2013-05-01 14:03:00,72.1,45.2,29.23,NW,315,5.6,5.6,38,0.00,,,37.98,VWS V14.01,2013-05-01 18:03:00,
2013-05-01 14:04:00,72.1,45.2,29.23,West,270,2.7,2.7,38,0.00,,,37.98,VWS V14.01,2013-05-01 18:04:00,
2013-05-01 14:05:00,72.0,45.0,29.23,WSW,248,4.0,4.9,38,0.00,,,37.98,VWS V14.01,2013-05-01 18:05:00,
2013-05-01 14:06:00,72.0,45.0,29.23,West,270,6.5,6.5,38,0.00,,,37.98,VWS V14.01,2013-05-01 18:06:00,
2013-05-01 14:07:00,72.9,43.6,29.26,NNW,338,1.6,2.0,35,0.00,,,0.00,VWS V14.01,2013-05-01 18:07:00,
2013-05-01 14:08:00,72.0,45.0,29.26,WNW,292,5.4,6.3,38,0.00,,,37.98,VWS V14.01,2013-05-01 18:08:00,
2013-05-01 14:09:00,72.1,45.2,29.26,SW,225,4.0,4.0,38,0.00,,,37.98,VWS V14.01,2013-05-01 18:09:00,
2013-05-01 14:10:00,72.5,45.5,29.26,NW,315,3.6,3.6,38,0.00,,,37.98,VWS V14.01,2013-05-01 18:10:00,
2013-05-01 14:12:00,73.2,43.2,29.26,NW,315,4.0,4.0,34,0.00,,,0.00,VWS V14.01,2013-05-01 18:12:00,
2013-05-01 14:13:00,72.9,45.8,29.26,WNW,292,7.4,7.4,38,0.00,,,37.98,VWS V14.01,2013-05-01 18:13:00,
2013-05-01 14:14:00,72.1,45.8,29.26,WSW,248,5.4,5.4,39,0.00,,,37.98,VWS V14.01,2013-05-01 18:14:00,
2013-05-01 14:15:00,71.8,46.2,29.26,WNW,292,10.5,10.5,40,0.00,,,37.98,VWS V14.01,2013-05-01 18:15:00,
2013-05-01 14:16:00,70.5,45.7,29.26,West,270,8.1,10.5,41,0.00,,,37.98,VWS V14.01,2013-05-01 18:16:00,
2013-05-01 14:17:00,70.5,45.7,29.26,West,270,5.8,5.8,41,0.00,,,37.98,VWS V14.01,2013-05-01 18:17:00,
2013-05-01 14:18:00,73.2,44.0,29.26,North,0,3.1,3.1,35,0.00,,,0.00,VWS V14.01,2013-05-01 18:18:00,
2013-05-01 14:19:00,70.5,45.7,29.26,WSW,248,5.4,5.4,41,0.00,,,37.98,VWS V14.01,2013-05-01 18:19:00,
2013-05-01 14:20:00,71.2,47.0,29.26,WNW,292,3.8,3.8,42,0.00,,,37.98,VWS V14.01,2013-05-01 18:20:00,
2013-05-01 14:21:00,70.7,45.9,29.26,WSW,248,6.5,6.5,41,0.00,,,37.98,VWS V14.01,2013-05-01 18:21:00,
2013-05-01 14:22:00,70.7,45.9,29.26,West,270,5.6,5.6,41,0.00,,,37.98,VWS V14.01,2013-05-01 18:22:00,
2013-05-01 14:23:00,72.7,44.2,29.26,West,270,4.7,4.7,36,0.00,,,0.00,VWS V14.01,2013-05-01 18:23:00,
2013-05-01 14:24:00,71.6,46.7,29.26,WSW,248,3.1,3.1,41,0.00,,,37.98,VWS V14.01,2013-05-01 18:24:00,
2013-05-01 14:25:00,70.7,45.9,29.26,West,270,7.4,7.4,41,0.00,,,37.98,VWS V14.01,2013-05-01 18:25:00,
2013-05-01 14:27:00,70.3,45.5,29.26,NW,315,2.5,2.5,41,0.00,,,37.98,VWS V14.01,2013-05-01 18:27:00,
2013-05-01 14:28:00,71.8,44.1,29.26,West,270,4.3,4.3,37,0.00,,,0.00,VWS V14.01,2013-05-01 18:28:00,
2013-05-01 14:29:00,72.7,48.3,29.26,NW,315,2.7,2.7,42,0.00,,,37.98,VWS V14.01,2013-05-01 18:29:00,
2013-05-01 14:30:00,72.7,48.3,29.26,NW,315,2.7,2.7,42,0.00,,,37.98,VWS V14.01,2013-05-01 18:30:00,
2013-05-01 14:31:00,73.9,48.8,29.26,NNW,338,2.2,2.2,41,0.00,,,37.98,VWS V14.01,2013-05-01 18:31:00,
2013-05-01 14:32:00,73.9,48.8,29.26,WNW,292,2.7,2.7,41,0.00,,,37.98,VWS V14.01,2013-05-01 18:32:00,
2013-05-01 14:33:00,70.5,44.4,29.26,WNW,292,2.9,2.9,39,0.00,,,0.00,VWS V14.01,2013-05-01 18:33:00,
2013-05-01 14:34:00,73.9,46.8,29.26,WNW,292,3.4,3.8,38,0.00,,,37.98,VWS V14.01,2013-05-01 18:34:00,
2013-05-01 14:35:00,74.3,47.1,29.26,WNW,292,3.4,3.4,38,0.00,,,37.98,VWS V14.01,2013-05-01 18:35:00,
2013-05-01 14:36:00,74.3,47.1,29.26,WNW,292,3.4,3.4,38,0.00,,,37.98,VWS V14.01,2013-05-01 18:36:00,
2013-05-01 14:37:00,75.4,48.0,29.26,WNW,292,1.3,1.3,38,0.00,,,37.98,VWS V14.01,2013-05-01 18:37:00,
2013-05-01 14:38:00,75.6,48.2,29.26,NW,315,2.0,2.9,38,0.00,,,37.98,VWS V14.01,2013-05-01 18:38:00,
2013-05-01 14:39:00,75.9,47.1,29.26,WNW,292,1.6,2.9,36,0.00,,,37.98,VWS V14.01,2013-05-01 18:39:00,
2013-05-01 14:40:00,76.1,48.0,29.26,North,0,2.5,2.5,37,0.00,,,37.98,VWS V14.01,2013-05-01 18:40:00,
2013-05-01 14:41:00,76.5,46.8,29.26,North,0,2.0,2.9,35,0.00,,,37.98,VWS V14.01,2013-05-01 18:41:00,
2013-05-01 14:42:00,76.6,47.7,29.26,NW,315,2.9,2.9,36,0.00,,,37.98,VWS V14.01,2013-05-01 18:42:00,
2013-05-01 14:43:00,76.6,47.0,29.26,NNE,22,4.0,4.0,35,0.00,,,37.98,VWS V14.01,2013-05-01 18:43:00,
2013-05-01 14:44:00,76.8,47.1,29.26,NNW,338,2.7,2.7,35,0.00,,,37.98,VWS V14.01,2013-05-01 18:44:00,
2013-05-01 14:45:00,76.8,46.3,29.26,North,0,3.6,3.8,34,0.00,,,37.98,VWS V14.01,2013-05-01 18:45:00,
2013-05-01 14:46:00,76.8,46.3,29.26,WNW,292,1.1,1.1,34,0.00,,,37.98,VWS V14.01,2013-05-01 18:46:00,
2013-05-01 14:47:00,76.8,46.3,29.26,West,270,3.1,3.1,34,0.00,,,37.98,VWS V14.01,2013-05-01 18:47:00,
2013-05-01 14:48:00,76.8,46.3,29.26,West,270,3.1,3.1,34,0.00,,,37.98,VWS V14.01,2013-05-01 18:48:00,
2013-05-01 14:49:00,76.1,45.7,29.26,NW,315,1.6,1.6,34,0.00,,,37.98,VWS V14.01,2013-05-01 18:49:00,
2013-05-01 14:50:00,76.6,46.2,29.26,NNW,338,0.9,1.6,34,0.00,,,37.98,VWS V14.01,2013-05-01 18:50:00,
2013-05-01 14:51:00,77.0,46.5,29.26,North,0,3.8,3.8,34,0.00,,,37.98,VWS V14.01,2013-05-01 18:51:00,
2013-05-01 14:52:00,76.8,46.3,29.26,NW,315,3.8,3.8,34,0.00,,,37.98,VWS V14.01,2013-05-01 18:52:00,
2013-05-01 14:53:00,76.8,46.3,29.26,North,0,0.0,1.6,34,0.00,,,37.98,VWS V14.01,2013-05-01 18:53:00,
2013-05-01 14:54:00,77.2,45.9,29.26,North,0,0.0,2.0,33,0.00,,,37.98,VWS V14.01,2013-05-01 18:54:00,
2013-05-01 14:56:00,77.5,46.2,29.26,WNW,292,4.0,4.0,33,0.00,,,37.98,VWS V14.01,2013-05-01 18:56:00,
2013-05-01 14:57:00,77.7,46.3,29.26,WNW,292,0.0,1.6,33,0.00,,,37.98,VWS V14.01,2013-05-01 18:57:00,
2013-05-01 14:58:00,77.7,46.3,29.26,WNW,292,0.0,2.2,33,0.00,,,37.98,VWS V14.01,2013-05-01 18:58:00,
2013-05-01 14:59:00,77.7,46.3,29.26,WNW,292,0.0,2.2,33,0.00,,,37.98,VWS V14.01,2013-05-01 18:59:00,
2013-05-01 15:00:00,77.9,46.5,29.26,North,0,1.6,1.6,33,0.00,,,37.98,VWS V14.01,2013-05-01 19:00:00,
2013-05-01 15:01:00,77.9,46.5,29.26,North,0,1.1,1.6,33,0.00,,,37.98,VWS V14.01,2013-05-01 19:01:00,
2013-05-01 15:02:00,77.9,45.7,29.26,NNW,338,2.7,3.8,32,0.00,,,37.98,VWS V14.01,2013-05-01 19:02:00,
2013-05-01 15:03:00,77.9,45.7,29.26,WNW,292,1.6,3.8,32,0.00,,,37.98,VWS V14.01,2013-05-01 19:03:00,
2013-05-01 15:04:00,78.4,46.2,29.26,NNW,338,1.3,2.9,32,0.00,,,37.98,VWS V14.01,2013-05-01 19:04:00,
2013-05-01 15:07:00,78.4,46.2,29.26,NNW,338,4.0,4.0,32,0.00,,,37.98,VWS V14.01,2013-05-01 19:07:00,
2013-05-01 15:08:00,78.4,46.2,29.26,NNW,338,2.0,4.3,32,0.00,,,37.98,VWS V14.01,2013-05-01 19:08:00,
2013-05-01 15:09:00,78.4,46.2,29.26,NNW,338,2.0,4.3,32,0.00,,,37.98,VWS V14.01,2013-05-01 19:09:00,
2013-05-01 15:10:00,79.0,46.6,29.26,NNW,338,0.0,0.0,32,0.00,,,37.98,VWS V14.01,2013-05-01 19:10:00,
2013-05-01 15:11:00,79.3,47.0,29.26,NNE,22,0.0,3.6,32,0.00,,,37.98,VWS V14.01,2013-05-01 19:11:00,
2013-05-01 15:12:00,79.5,46.3,29.26,North,0,2.5,3.1,31,0.00,,,37.98,VWS V14.01,2013-05-01 19:12:00,
2013-05-01 15:13:00,79.3,46.1,29.26,NNE,22,4.9,4.9,31,0.00,,,37.98,VWS V14.01,2013-05-01 19:13:00,
2013-05-01 15:14:00,79.3,46.1,29.26,NE,45,3.1,3.1,31,0.00,,,37.98,VWS V14.01,2013-05-01 19:14:00,
2013-05-01 15:15:00,79.2,46.0,29.26,NNW,338,2.5,3.6,31,0.00,,,37.98,VWS V14.01,2013-05-01 19:15:00,
2013-05-01 15:16:00,79.2,46.0,29.26,North,0,0.9,3.4,31,0.00,,,37.98,VWS V14.01,2013-05-01 19:16:00,
2013-05-01 15:17:00,79.3,46.1,29.26,NNW,338,3.4,3.4,31,0.00,,,37.98,VWS V14.01,2013-05-01 19:17:00,
2013-05-01 15:18:00,79.3,46.1,29.26,NNW,338,2.7,3.4,31,0.00,,,37.98,VWS V14.01,2013-05-01 19:18:00,
2013-05-01 15:19:00,79.3,46.1,29.26,NNW,338,4.0,4.0,31,0.00,,,37.98,VWS V14.01,2013-05-01 19:19:00,
2013-05-01 15:20:00,79.3,46.1,29.26,NNW,338,4.0,4.0,31,0.00,,,37.98,VWS V14.01,2013-05-01 19:20:00,
2013-05-01 15:21:00,79.3,46.1,29.26,WSW,248,4.0,4.0,31,0.00,,,37.98,VWS V14.01,2013-05-01 19:21:00,
2013-05-01 15:22:00,79.3,46.1,29.26,WSW,248,4.0,4.0,31,0.00,,,37.98,VWS V14.01,2013-05-01 19:22:00,
2013-05-01 15:23:00,79.5,46.3,29.26,NW,315,4.9,4.9,31,0.00,,,37.98,VWS V14.01,2013-05-01 19:23:00,
2013-05-01 15:24:00,79.2,46.0,29.26,WNW,292,2.5,2.5,31,0.00,,,37.98,VWS V14.01,2013-05-01 19:24:00,
2013-05-01 15:25:00,79.0,45.8,29.26,WNW,292,2.5,2.5,31,0.00,,,37.98,VWS V14.01,2013-05-01 19:25:00,
2013-05-01 15:26:00,79.0,45.8,29.26,NNW,338,3.6,3.6,31,0.00,,,37.98,VWS V14.01,2013-05-01 19:26:00,
2013-05-01 15:27:00,79.2,46.0,29.26,NNW,338,1.3,2.5,31,0.00,,,37.98,VWS V14.01,2013-05-01 19:27:00,
2013-05-01 15:28:00,79.0,45.8,29.26,NNE,22,1.6,4.0,31,0.00,,,37.98,VWS V14.01,2013-05-01 19:28:00,
2013-05-01 15:29:00,79.3,46.1,29.26,North,0,2.9,3.1,31,0.00,,,37.98,VWS V14.01,2013-05-01 19:29:00,
2013-05-01 15:30:00,79.0,45.8,29.26,NNE,22,2.2,2.2,31,0.00,,,37.98,VWS V14.01,2013-05-01 19:30:00,
2013-05-01 15:31:00,78.8,45.6,29.26,NW,315,3.4,3.4,31,0.00,,,37.98,VWS V14.01,2013-05-01 19:31:00,
2013-05-01 15:32:00,78.8,45.6,29.26,NNE,22,3.1,5.4,31,0.00,,,37.98,VWS V14.01,2013-05-01 19:32:00,
2013-05-01 15:33:00,78.3,45.2,29.26,NNW,338,2.7,3.4,31,0.00,,,37.98,VWS V14.01,2013-05-01 19:33:00,
2013-05-01 15:34:00,78.4,45.3,29.26,North,0,3.8,3.8,31,0.00,,,37.98,VWS V14.01,2013-05-01 19:34:00,
2013-05-01 15:35:00,78.4,45.3,29.26,North,0,3.8,3.8,31,0.00,,,37.98,VWS V14.01,2013-05-01 19:35:00,
2013-05-01 15:36:00,78.8,45.6,29.26,NNW,338,2.0,2.0,31,0.00,,,37.98,VWS V14.01,2013-05-01 19:36:00,
2013-05-01 15:37:00,79.0,45.8,29.26,North,0,1.3,1.6,31,0.00,,,37.98,VWS V14.01,2013-05-01 19:37:00,
2013-05-01 15:38:00,79.2,46.0,29.26,NNW,338,2.2,3.6,31,0.00,,,37.98,VWS V14.01,2013-05-01 19:38:00,
2013-05-01 15:39:00,78.3,45.2,29.26,North,0,3.8,5.8,31,0.00,,,37.98,VWS V14.01,2013-05-01 19:39:00,
2013-05-01 15:40:00,78.4,45.3,29.26,North,0,2.7,2.7,31,0.00,,,37.98,VWS V14.01,2013-05-01 19:40:00,
2013-05-01 15:41:00,77.4,44.4,29.26,NW,315,3.1,3.6,31,0.00,,,37.98,VWS V14.01,2013-05-01 19:41:00,
2013-05-01 15:42:00,77.2,44.2,29.26,NNW,338,1.6,4.3,31,0.00,,,37.98,VWS V14.01,2013-05-01 19:42:00,
2013-05-01 15:43:00,77.0,44.1,29.26,NW,315,5.4,5.4,31,0.00,,,37.98,VWS V14.01,2013-05-01 19:43:00,
2013-05-01 15:44:00,76.3,43.5,29.26,West,270,4.3,4.3,31,0.00,,,37.98,VWS V14.01,2013-05-01 19:44:00,
2013-05-01 15:45:00,76.1,44.1,29.26,WNW,292,5.4,5.4,32,0.00,,,37.98,VWS V14.01,2013-05-01 19:45:00,
2013-05-01 15:46:00,75.4,42.7,29.26,West,270,3.4,6.0,31,0.00,,,37.98,VWS V14.01,2013-05-01 19:46:00,
2013-05-01 15:47:00,74.5,42.7,29.26,NNE,22,3.8,4.0,32,0.00,,,37.98,VWS V14.01,2013-05-01 19:47:00,
2013-05-01 15:48:00,74.5,42.7,29.26,WSW,248,4.0,4.0,32,0.00,,,37.98,VWS V14.01,2013-05-01 19:48:00,
2013-05-01 15:49:00,74.5,42.7,29.26,WNW,292,4.3,4.3,32,0.00,,,37.98,VWS V14.01,2013-05-01 19:49:00,
2013-05-01 15:50:00,73.0,42.3,29.26,West,270,3.8,7.2,33,0.00,,,37.98,VWS V14.01,2013-05-01 19:50:00,
2013-05-01 15:51:00,72.9,42.1,29.26,NW,315,4.3,4.5,33,0.00,,,37.98,VWS V14.01,2013-05-01 19:51:00,
2013-05-01 15:52:00,73.0,42.3,29.26,West,270,4.3,4.3,33,0.00,,,37.98,VWS V14.01,2013-05-01 19:52:00,
2013-05-01 15:53:00,72.7,42.0,29.26,West,270,3.4,3.4,33,0.00,,,37.98,VWS V14.01,2013-05-01 19:53:00,
2013-05-01 15:54:00,72.7,42.0,29.26,West,270,2.2,3.4,33,0.00,,,37.98,VWS V14.01,2013-05-01 19:54:00,
2013-05-01 15:55:00,73.6,42.7,29.26,NNE,22,2.5,2.5,33,0.00,,,37.98,VWS V14.01,2013-05-01 19:55:00,
2013-05-01 15:56:00,73.9,43.0,29.26,NNW,338,1.1,2.0,33,0.00,,,37.98,VWS V14.01,2013-05-01 19:56:00,
2013-05-01 15:57:00,74.3,43.4,29.26,WNW,292,0.0,3.1,33,0.00,,,37.98,VWS V14.01,2013-05-01 19:57:00,
2013-05-01 15:59:00,74.1,43.2,29.26,NNW,338,3.4,3.6,33,0.00,,,37.98,VWS V14.01,2013-05-01 19:59:00,
2013-05-01 16:00:00,73.8,42.9,29.26,West,270,5.8,5.8,33,0.00,,,37.98,VWS V14.01,2013-05-01 20:00:00,
2013-05-01 16:01:00,73.2,42.4,29.26,WNW,292,3.8,3.8,33,0.00,,,37.98,VWS V14.01,2013-05-01 20:01:00,
2013-05-01 16:02:00,72.9,42.1,29.26,West,270,3.6,3.6,33,0.00,,,37.98,VWS V14.01,2013-05-01 20:02:00,
2013-05-01 16:03:00,72.3,41.6,29.26,NW,315,9.2,9.2,33,0.00,,,37.98,VWS V14.01,2013-05-01 20:03:00,
2013-05-01 16:04:00,72.3,41.6,29.26,NW,315,2.7,5.8,33,0.00,,,37.98,VWS V14.01,2013-05-01 20:04:00,
2013-05-01 16:05:00,72.3,41.6,29.26,NW,315,2.7,5.8,33,0.00,,,37.98,VWS V14.01,2013-05-01 20:05:00,
2013-05-01 16:06:00,72.5,41.8,29.26,North,0,3.1,3.4,33,0.00,,,37.98,VWS V14.01,2013-05-01 20:06:00,
2013-05-01 16:07:00,72.1,41.5,29.26,NW,315,4.7,4.7,33,0.00,,,37.98,VWS V14.01,2013-05-01 20:07:00,
2013-05-01 16:08:00,72.3,41.6,29.26,NW,315,0.0,2.5,33,0.00,,,37.98,VWS V14.01,2013-05-01 20:08:00,
2013-05-01 16:09:00,72.5,42.6,29.26,NNE,22,1.3,3.1,34,0.00,,,37.98,VWS V14.01,2013-05-01 20:09:00,
2013-05-01 16:10:00,72.5,42.6,29.26,West,270,2.9,4.0,34,0.00,,,37.98,VWS V14.01,2013-05-01 20:10:00,
2013-05-01 16:11:00,72.5,42.6,29.26,WSW,248,2.5,3.6,34,0.00,,,37.98,VWS V14.01,2013-05-01 20:11:00,
2013-05-01 16:12:00,72.5,42.6,29.26,NNW,338,2.2,2.9,34,0.00,,,37.98,VWS V14.01,2013-05-01 20:12:00,
2013-05-01 16:13:00,72.9,42.9,29.26,SE,135,0.0,1.3,34,0.00,,,37.98,VWS V14.01,2013-05-01 20:13:00,
2013-05-01 16:14:00,72.7,42.7,29.26,NNW,338,2.9,2.9,34,0.00,,,37.98,VWS V14.01,2013-05-01 20:14:00,
2013-05-01 16:15:00,72.9,42.1,29.26,NW,315,2.2,2.5,33,0.00,,,37.98,VWS V14.01,2013-05-01 20:15:00,
2013-05-01 16:16:00,72.1,41.5,29.26,WNW,292,2.7,3.6,33,0.00,,,37.98,VWS V14.01,2013-05-01 20:16:00,
2013-05-01 16:17:00,72.3,41.6,29.26,NNW,338,0.0,4.7,33,0.00,,,37.98,VWS V14.01,2013-05-01 20:17:00,
2013-05-01 16:18:00,72.5,41.8,29.26,NNW,338,0.9,2.0,33,0.00,,,37.98,VWS V14.01,2013-05-01 20:18:00,
2013-05-01 16:19:00,72.7,42.0,29.26,NNW,338,2.5,2.5,33,0.00,,,37.98,VWS V14.01,2013-05-01 20:19:00,
2013-05-01 16:20:00,72.7,42.0,29.26,North,0,3.4,3.4,33,0.00,,,37.98,VWS V14.01,2013-05-01 20:20:00,
2013-05-01 16:21:00,72.5,41.8,29.26,NW,315,2.7,3.8,33,0.00,,,37.98,VWS V14.01,2013-05-01 20:21:00,
2013-05-01 16:22:00,72.1,41.5,29.26,NE,45,0.0,2.7,33,0.00,,,37.98,VWS V14.01,2013-05-01 20:22:00,
2013-05-01 16:23:00,72.1,41.5,29.26,NNE,22,0.0,2.7,33,0.00,,,37.98,VWS V14.01,2013-05-01 20:23:00,
2013-05-01 16:24:00,72.1,41.5,29.26,WNW,292,3.4,3.4,33,0.00,,,37.98,VWS V14.01,2013-05-01 20:24:00,
2013-05-01 16:25:00,72.1,41.5,29.26,NNW,338,1.1,3.4,33,0.00,,,37.98,VWS V14.01,2013-05-01 20:25:00,
2013-05-01 16:26:00,72.1,41.5,29.26,WSW,248,3.1,3.1,33,0.00,,,37.98,VWS V14.01,2013-05-01 20:26:00,
2013-05-01 16:27:00,72.0,41.3,29.26,North,0,1.3,2.5,33,0.00,,,37.98,VWS V14.01,2013-05-01 20:27:00,
2013-05-01 16:28:00,72.1,41.5,29.26,WNW,292,2.7,2.7,33,0.00,,,37.98,VWS V14.01,2013-05-01 20:28:00,
2013-05-01 16:29:00,71.8,41.2,29.26,NNW,338,2.7,3.6,33,0.00,,,37.98,VWS V14.01,2013-05-01 20:29:00,
2013-05-01 16:30:00,71.8,41.2,29.26,NW,315,4.9,4.9,33,0.00,,,37.98,VWS V14.01,2013-05-01 20:30:00,
2013-05-01 16:31:00,71.8,41.2,29.26,NW,315,3.6,4.9,33,0.00,,,37.98,VWS V14.01,2013-05-01 20:31:00,
2013-05-01 16:37:00,71.8,41.2,29.26,WNW,292,2.0,3.6,33,0.00,,,37.98,VWS V14.01,2013-05-01 20:37:00,
2013-05-01 16:42:00,71.8,41.2,29.26,WNW,292,2.0,2.0,33,0.00,,,37.98,VWS V14.01,2013-05-01 20:42:00,
2013-05-01 16:46:00,69.4,39.9,29.26,WNW,292,2.0,2.0,34,0.00,,,37.98,VWS V14.01,2013-05-01 20:46:00,
2013-05-01 16:48:00,69.4,39.9,29.26,WNW,292,2.0,2.0,34,0.00,,,37.98,VWS V14.01,2013-05-01 20:48:00,
2013-05-01 16:51:00,69.4,39.9,29.26,WNW,292,4.9,4.9,34,0.00,,,37.98,VWS V14.01,2013-05-01 20:51:00,
2013-05-01 16:54:00,69.4,39.9,29.26,WNW,292,3.6,4.9,34,0.00,,,37.98,VWS V14.01,2013-05-01 20:54:00,
2013-05-01 16:55:00,69.4,39.9,29.26,NNE,22,2.2,3.6,34,0.00,,,37.98,VWS V14.01,2013-05-01 20:55:00,
2013-05-01 16:57:00,69.4,39.9,29.26,NNE,22,2.2,2.2,34,0.00,,,37.98,VWS V14.01,2013-05-01 20:57:00,
2013-05-01 16:58:00,69.4,39.9,29.26,NNW,338,5.8,5.8,34,0.00,,,37.98,VWS V14.01,2013-05-01 20:58:00,
2013-05-01 16:59:00,69.4,39.9,29.26,NNW,338,5.8,5.8,34,0.00,,,37.98,VWS V14.01,2013-05-01 20:59:00,
2013-05-01 17:00:00,69.4,39.9,29.26,NNW,338,5.8,5.8,34,0.00,,,37.98,VWS V14.01,2013-05-01 21:00:00,
2013-05-01 17:06:00,64.4,35.5,29.26,NW,315,3.1,3.1,34,0.00,,,37.98,VWS V14.01,2013-05-01 21:06:00,
2013-05-01 17:07:00,63.7,34.8,29.26,NNW,338,3.8,3.8,34,0.00,,,37.98,VWS V14.01,2013-05-01 21:07:00,
2013-05-01 17:08:00,63.7,34.8,29.26,North,0,3.6,5.8,34,0.00,,,37.98,VWS V14.01,2013-05-01 21:08:00,
2013-05-01 17:09:00,63.9,35.0,29.26,NNW,338,2.7,4.9,34,0.00,,,37.98,VWS V14.01,2013-05-01 21:09:00,
2013-05-01 17:10:00,63.9,35.0,29.26,NNW,338,4.5,4.5,34,0.00,,,37.98,VWS V14.01,2013-05-01 21:10:00,
2013-05-01 17:11:00,64.2,35.3,29.26,North,0,0.0,4.5,34,0.00,,,37.98,VWS V14.01,2013-05-01 21:11:00,
2013-05-01 17:12:00,63.7,34.8,29.26,WNW,292,5.4,8.1,34,0.00,,,37.98,VWS V14.01,2013-05-01 21:12:00,
2013-05-01 17:13:00,63.1,33.6,29.26,NNW,338,2.9,5.4,33,0.00,,,37.98,VWS V14.01,2013-05-01 21:13:00,
2013-05-01 17:14:00,63.3,33.8,29.26,NNW,338,3.6,4.0,33,0.00,,,37.98,VWS V14.01,2013-05-01 21:14:00,
2013-05-01 17:15:00,63.5,34.7,29.26,NNE,22,2.9,3.6,34,0.00,,,37.98,VWS V14.01,2013-05-01 21:15:00,
2013-05-01 17:16:00,63.5,34.7,29.26,NE,45,1.6,2.9,34,0.00,,,37.98,VWS V14.01,2013-05-01 21:16:00,
2013-05-01 17:17:00,63.1,34.3,29.26,NW,315,3.1,3.8,34,0.00,,,37.98,VWS V14.01,2013-05-01 21:17:00,
2013-05-01 17:18:00,63.1,33.6,29.26,NNE,22,4.0,4.0,33,0.00,,,37.98,VWS V14.01,2013-05-01 21:18:00,
2013-05-01 17:19:00,62.8,33.3,29.26,NNW,338,10.5,10.5,33,0.00,,,37.98,VWS V14.01,2013-05-01 21:19:00,
2013-05-01 17:20:00,62.8,33.3,29.26,North,0,4.0,10.5,33,0.00,,,37.98,VWS V14.01,2013-05-01 21:20:00,
2013-05-01 17:21:00,62.2,33.5,29.26,NNW,338,4.0,4.0,34,0.00,,,37.98,VWS V14.01,2013-05-01 21:21:00,
2013-05-01 17:23:00,62.1,33.4,29.26,NNE,22,2.7,6.0,34,0.00,,,37.98,VWS V14.01,2013-05-01 21:23:00,
2013-05-01 17:24:00,61.3,32.8,29.26,North,0,4.3,4.3,34,0.00,,,37.98,VWS V14.01,2013-05-01 21:24:00,
2013-05-01 17:25:00,61.3,32.8,29.26,NNE,22,2.7,4.3,34,0.00,,,37.98,VWS V14.01,2013-05-01 21:25:00,
2013-05-01 17:26:00,61.3,32.8,29.26,NNE,22,2.7,2.7,34,0.00,,,37.98,VWS V14.01,2013-05-01 21:26:00,
2013-05-01 17:27:00,60.6,32.1,29.26,NNE,22,7.4,7.4,34,0.00,,,37.98,VWS V14.01,2013-05-01 21:27:00,
2013-05-01 17:28:00,60.4,32.0,29.26,NNW,338,5.8,7.4,34,0.00,,,37.98,VWS V14.01,2013-05-01 21:28:00,
2013-05-01 17:29:00,60.1,31.6,29.26,WNW,292,8.1,8.1,34,0.00,,,37.98,VWS V14.01,2013-05-01 21:29:00,
2013-05-01 17:30:00,59.9,31.5,29.26,NNW,338,3.8,8.7,34,0.00,,,37.98,VWS V14.01,2013-05-01 21:30:00,
2013-05-01 17:31:00,59.9,31.5,29.26,North,0,4.0,4.0,34,0.00,,,37.98,VWS V14.01,2013-05-01 21:31:00,
2013-05-01 17:32:00,59.9,31.5,29.26,NW,315,4.3,4.3,34,0.00,,,37.98,VWS V14.01,2013-05-01 21:32:00,
2013-05-01 17:33:00,59.2,30.9,29.26,NW,315,6.5,8.1,34,0.00,,,37.98,VWS V14.01,2013-05-01 21:33:00,
2013-05-01 17:34:00,58.6,31.1,29.26,NNW,338,5.8,6.5,35,0.00,,,37.98,VWS V14.01,2013-05-01 21:34:00,
2013-05-01 17:35:00,58.1,30.6,29.26,NNW,338,5.4,10.1,35,0.00,,,37.98,VWS V14.01,2013-05-01 21:35:00,
2013-05-01 17:36:00,57.7,30.3,29.26,WNW,292,8.7,8.7,35,0.00,,,37.98,VWS V14.01,2013-05-01 21:36:00,
2013-05-01 17:37:00,57.9,30.5,29.26,North,0,4.7,8.7,35,0.00,,,37.98,VWS V14.01,2013-05-01 21:37:00,
2013-05-01 17:38:00,57.9,30.5,29.26,North,0,6.3,6.3,35,0.00,,,37.98,VWS V14.01,2013-05-01 21:38:00,
2013-05-01 17:39:00,57.6,30.1,29.26,NE,45,5.4,6.5,35,0.00,,,37.98,VWS V14.01,2013-05-01 21:39:00,
2013-05-01 17:40:00,57.7,30.3,29.26,North,0,3.4,7.6,35,0.00,,,37.98,VWS V14.01,2013-05-01 21:40:00,
2013-05-01 17:41:00,57.9,30.5,29.26,NNE,22,1.6,5.8,35,0.00,,,37.98,VWS V14.01,2013-05-01 21:41:00,
2013-05-01 17:42:00,57.6,30.1,29.26,West,270,10.5,10.5,35,0.00,,,37.98,VWS V14.01,2013-05-01 21:42:00,
2013-05-01 17:43:00,57.7,31.0,29.26,NNW,338,7.4,10.5,36,0.00,,,37.98,VWS V14.01,2013-05-01 21:43:00,
2013-05-01 17:44:00,57.2,30.5,29.26,WNW,292,4.9,7.6,36,0.00,,,37.98,VWS V14.01,2013-05-01 21:44:00,
2013-05-01 17:45:00,57.2,30.5,29.26,WNW,292,4.0,5.6,36,0.00,,,37.98,VWS V14.01,2013-05-01 21:45:00,
2013-05-01 17:46:00,56.7,30.0,29.26,WSW,248,8.5,8.5,36,0.00,,,37.98,VWS V14.01,2013-05-01 21:46:00,
2013-05-01 17:47:00,56.7,30.0,29.26,WNW,292,4.9,8.5,36,0.00,,,37.98,VWS V14.01,2013-05-01 21:47:00,
2013-05-01 17:48:00,56.5,29.9,29.26,NE,45,2.7,6.5,36,0.00,,,37.98,VWS V14.01,2013-05-01 21:48:00,
2013-05-01 17:49:00,56.5,29.9,29.26,NW,315,2.9,7.4,36,0.00,,,37.98,VWS V14.01,2013-05-01 21:49:00,
2013-05-01 17:50:00,56.3,29.7,29.26,NW,315,5.4,8.5,36,0.00,,,37.98,VWS V14.01,2013-05-01 21:50:00,
2013-05-01 17:51:00,55.8,29.9,29.26,NW,315,7.6,8.1,37,0.00,,,37.98,VWS V14.01,2013-05-01 21:51:00,
2013-05-01 17:52:00,55.6,29.1,29.26,NNE,22,3.1,7.6,36,0.00,,,37.98,VWS V14.01,2013-05-01 21:52:00,
2013-05-01 17:53:00,55.6,29.7,29.26,WSW,248,3.1,4.3,37,0.00,,,37.98,VWS V14.01,2013-05-01 21:53:00,
2013-05-01 17:54:00,55.4,29.6,29.26,NNW,338,3.8,12.1,37,0.00,,,37.98,VWS V14.01,2013-05-01 21:54:00,
2013-05-01 17:55:00,55.4,29.6,29.26,NE,45,4.9,8.7,37,0.00,,,37.98,VWS V14.01,2013-05-01 21:55:00,
2013-05-01 17:56:00,55.2,29.4,29.26,NNW,338,4.7,4.7,37,0.00,,,37.98,VWS V14.01,2013-05-01 21:56:00,
2013-05-01 17:57:00,55.2,29.4,29.26,ESE,112,4.0,4.7,37,0.00,,,37.98,VWS V14.01,2013-05-01 21:57:00,
2013-05-01 17:58:00,55.0,29.9,29.26,ENE,68,3.8,4.0,38,0.00,,,37.98,VWS V14.01,2013-05-01 21:58:00,
2013-05-01 17:59:00,55.0,29.9,29.26,NW,315,4.3,4.3,38,0.00,,,37.98,VWS V14.01,2013-05-01 21:59:00,
2013-05-01 18:00:00,55.0,29.9,29.26,NW,315,4.3,4.3,38,0.00,,,37.98,VWS V14.01,2013-05-01 22:00:00,
2013-05-01 18:01:00,54.9,29.8,29.26,ENE,68,2.9,4.3,38,0.00,,,37.98,VWS V14.01,2013-05-01 22:01:00,
2013-05-01 18:02:00,54.1,29.1,29.26,North,0,3.4,5.8,38,0.00,,,37.98,VWS V14.01,2013-05-01 22:02:00,
2013-05-01 18:03:00,54.1,29.1,29.26,NW,315,2.9,5.8,38,0.00,,,37.98,VWS V14.01,2013-05-01 22:03:00,
2013-05-01 18:04:00,53.8,28.8,29.26,NNE,22,2.9,8.7,38,0.00,,,37.98,VWS V14.01,2013-05-01 22:04:00,
2013-05-01 18:05:00,53.8,29.4,29.26,NE,45,5.6,6.3,39,0.00,,,37.98,VWS V14.01,2013-05-01 22:05:00,
2013-05-01 18:06:00,53.8,29.4,29.26,NE,45,4.0,4.0,39,0.00,,,37.98,VWS V14.01,2013-05-01 22:06:00,
2013-05-01 18:07:00,53.8,29.4,29.26,NNE,22,6.3,6.3,39,0.00,,,37.98,VWS V14.01,2013-05-01 22:07:00,
2013-05-01 18:08:00,53.6,29.3,29.29,WSW,248,6.0,6.3,39,0.00,,,37.98,VWS V14.01,2013-05-01 22:08:00,
2013-05-01 18:09:00,53.6,29.3,29.29,WSW,248,6.0,6.0,39,0.00,,,37.98,VWS V14.01,2013-05-01 22:09:00,
2013-05-01 18:10:00,53.2,29.6,29.29,NW,315,4.0,6.0,40,0.00,,,37.98,VWS V14.01,2013-05-01 22:10:00,
2013-05-01 18:11:00,53.2,29.6,29.29,WSW,248,6.3,6.3,40,0.00,,,37.98,VWS V14.01,2013-05-01 22:11:00,
2013-05-01 18:12:00,53.2,29.6,29.29,NW,315,4.9,6.3,40,0.00,,,37.98,VWS V14.01,2013-05-01 22:12:00,
2013-05-01 18:13:00,52.7,29.7,29.29,North,0,4.0,5.4,41,0.00,,,37.98,VWS V14.01,2013-05-01 22:13:00,
2013-05-01 18:14:00,52.7,29.7,29.29,NNW,338,3.8,10.1,41,0.00,,,37.98,VWS V14.01,2013-05-01 22:14:00,
2013-05-01 18:15:00,52.7,29.7,29.29,NNW,338,3.8,10.1,41,0.00,,,37.98,VWS V14.01,2013-05-01 22:15:00,
2013-05-01 18:16:00,52.7,29.7,29.29,ESE,112,4.3,4.9,41,0.00,,,37.98,VWS V14.01,2013-05-01 22:16:00,
2013-05-01 18:17:00,52.3,30.0,29.29,NNW,338,3.8,11.0,42,0.00,,,37.98,VWS V14.01,2013-05-01 22:17:00,
2013-05-01 18:18:00,52.3,30.0,29.29,NNW,338,3.8,11.9,42,0.00,,,37.98,VWS V14.01,2013-05-01 22:18:00,
2013-05-01 18:19:00,52.3,30.0,29.29,ENE,68,3.8,3.8,42,0.00,,,37.98,VWS V14.01,2013-05-01 22:19:00,
2013-05-01 18:20:00,52.3,30.0,29.29,NNE,22,3.8,3.8,42,0.00,,,37.98,VWS V14.01,2013-05-01 22:20:00,
2013-05-01 18:21:00,52.5,30.1,29.29,NNE,22,7.4,7.4,42,0.00,,,37.98,VWS V14.01,2013-05-01 22:21:00,
2013-05-01 18:22:00,52.2,30.4,29.29,North,0,3.4,7.4,43,0.00,,,37.98,VWS V14.01,2013-05-01 22:22:00,
2013-05-01 18:23:00,52.3,30.5,29.29,NNE,22,3.4,5.4,43,0.00,,,37.98,VWS V14.01,2013-05-01 22:23:00,
2013-05-01 18:24:00,52.3,30.5,29.29,NE,45,6.0,6.0,43,0.00,,,37.98,VWS V14.01,2013-05-01 22:24:00,
2013-05-01 18:25:00,52.3,30.5,29.29,WNW,292,3.4,6.0,43,0.00,,,37.98,VWS V14.01,2013-05-01 22:25:00,
2013-05-01 18:26:00,52.3,30.5,29.29,NNW,338,6.9,6.9,43,0.00,,,37.98,VWS V14.01,2013-05-01 22:26:00,
2013-05-01 18:27:00,52.3,30.5,29.29,NW,315,8.5,8.5,43,0.00,,,37.98,VWS V14.01,2013-05-01 22:27:00,
2013-05-01 18:28:00,52.3,30.5,29.29,North,0,3.6,8.5,43,0.00,,,37.98,VWS V14.01,2013-05-01 22:28:00,
2013-05-01 18:29:00,52.5,30.7,29.29,NE,45,2.7,3.6,43,0.00,,,37.98,VWS V14.01,2013-05-01 22:29:00,
2013-05-01 18:30:00,52.3,30.5,29.29,North,0,4.9,4.9,43,0.00,,,37.98,VWS V14.01,2013-05-01 22:30:00,
2013-05-01 18:31:00,52.5,30.7,29.29,NNW,338,3.4,4.9,43,0.00,,,37.98,VWS V14.01,2013-05-01 22:31:00,
2013-05-01 18:32:00,52.5,30.7,29.29,NNW,338,2.0,6.0,43,0.00,,,37.98,VWS V14.01,2013-05-01 22:32:00,
2013-05-01 18:33:00,52.3,30.5,29.29,WNW,292,4.9,6.5,43,0.00,,,37.98,VWS V14.01,2013-05-01 22:33:00,
2013-05-01 18:34:00,52.7,30.9,29.29,NNE,22,2.7,4.9,43,0.00,,,37.98,VWS V14.01,2013-05-01 22:34:00,
2013-05-01 18:35:00,52.7,30.9,29.29,NNW,338,3.8,3.8,43,0.00,,,37.98,VWS V14.01,2013-05-01 22:35:00,
2013-05-01 18:36:00,52.7,30.9,29.29,NNW,338,2.5,3.8,43,0.00,,,37.98,VWS V14.01,2013-05-01 22:36:00,
2013-05-01 18:37:00,52.9,31.0,29.32,WNW,292,1.6,7.4,43,0.00,,,37.98,VWS V14.01,2013-05-01 22:37:00,
2013-05-01 18:38:00,52.9,31.0,29.32,NNE,22,3.8,4.9,43,0.00,,,37.98,VWS V14.01,2013-05-01 22:38:00,
2013-05-01 18:39:00,52.7,30.9,29.32,NW,315,3.8,4.9,43,0.00,,,37.98,VWS V14.01,2013-05-01 22:39:00,
2013-05-01 18:40:00,57.7,30.3,29.26,NNW,338,5.8,5.8,35,0.00,,,37.98,VWS V14.01,2013-05-01 22:40:00,
2013-05-01 18:41:00,52.9,31.0,29.32,North,0,3.1,3.8,43,0.00,,,37.98,VWS V14.01,2013-05-01 22:41:00,
2013-05-01 18:42:00,53.1,31.2,29.32,North,0,3.4,3.4,43,0.00,,,37.98,VWS V14.01,2013-05-01 22:42:00,
2013-05-01 18:43:00,52.9,31.0,29.32,NNW,338,3.6,6.0,43,0.00,,,37.98,VWS V14.01,2013-05-01 22:43:00,
2013-05-01 18:44:00,52.7,30.9,29.32,North,0,3.4,9.6,43,0.00,,,37.98,VWS V14.01,2013-05-01 22:44:00,
2013-05-01 18:45:00,52.7,30.9,29.32,NNE,22,4.3,5.4,43,0.00,,,37.98,VWS V14.01,2013-05-01 22:45:00,
2013-05-01 18:46:00,56.7,30.0,29.26,NNE,22,6.5,6.5,36,0.00,,,37.98,VWS V14.01,2013-05-01 22:46:00,
2013-05-01 18:47:00,52.5,30.7,29.32,NNW,338,3.1,7.6,43,0.00,,,37.98,VWS V14.01,2013-05-01 22:47:00,
2013-05-01 18:49:00,52.3,30.5,29.32,NNW,338,4.0,4.0,43,0.00,,,37.98,VWS V14.01,2013-05-01 22:49:00,
2013-05-01 18:50:00,52.3,30.5,29.32,NNW,338,3.4,6.0,43,0.00,,,37.98,VWS V14.01,2013-05-01 22:50:00,
2013-05-01 18:51:00,52.3,30.5,29.32,NNW,338,3.1,3.8,43,0.00,,,37.98,VWS V14.01,2013-05-01 22:51:00,
2013-05-01 18:52:00,52.3,30.5,29.32,NE,45,4.9,4.9,43,0.00,,,37.98,VWS V14.01,2013-05-01 22:52:00,
2013-05-01 18:53:00,55.6,29.7,29.26,WSW,248,3.1,4.3,37,0.00,,,37.98,VWS V14.01,2013-05-01 22:53:00,
2013-05-01 18:54:00,52.5,30.7,29.32,NNW,338,7.6,7.6,43,0.00,,,37.98,VWS V14.01,2013-05-01 22:54:00,
2013-05-01 18:55:00,52.2,30.4,29.32,NW,315,3.6,7.8,43,0.00,,,37.98,VWS V14.01,2013-05-01 22:55:00,
2013-05-01 18:56:00,52.2,30.4,29.32,WNW,292,9.6,9.6,43,0.00,,,37.98,VWS V14.01,2013-05-01 22:56:00,
2013-05-01 18:57:00,52.2,30.4,29.32,WSW,248,5.8,9.6,43,0.00,,,37.98,VWS V14.01,2013-05-01 22:57:00,
2013-05-01 18:58:00,55.0,29.9,29.26,ENE,68,3.8,4.0,38,0.00,,,37.98,VWS V14.01,2013-05-01 22:58:00,
2013-05-01 18:59:00,52.2,30.4,29.32,WNW,292,4.3,5.8,43,0.00,,,37.98,VWS V14.01,2013-05-01 22:59:00,
2013-05-01 19:00:00,52.0,30.2,29.32,North,0,3.6,6.5,43,0.00,,,37.98,VWS V14.01,2013-05-01 23:00:00,
2013-05-01 19:01:00,51.8,30.0,29.32,NW,315,3.4,5.8,43,0.00,,,37.98,VWS V14.01,2013-05-01 23:01:00,
2013-05-01 19:02:00,51.6,30.4,29.32,North,0,4.9,4.9,44,0.00,,,37.98,VWS V14.01,2013-05-01 23:02:00,
2013-05-01 19:03:00,54.1,29.1,29.26,NNW,338,5.8,5.8,38,0.00,,,37.98,VWS V14.01,2013-05-01 23:03:00,
2013-05-01 19:04:00,51.6,30.4,29.32,North,0,5.4,5.4,44,0.00,,,37.98,VWS V14.01,2013-05-01 23:04:00,
2013-05-01 19:05:00,51.6,30.4,29.32,WNW,292,2.5,5.4,44,0.00,,,37.98,VWS V14.01,2013-05-01 23:05:00,
2013-05-01 19:06:00,51.4,30.3,29.32,North,0,4.0,6.3,44,0.00,,,37.98,VWS V14.01,2013-05-01 23:06:00,
2013-05-01 19:07:00,51.4,30.3,29.32,West,270,3.1,6.0,44,0.00,,,37.98,VWS V14.01,2013-05-01 23:07:00,
2013-05-01 19:08:00,51.4,30.8,29.32,East,90,2.9,4.0,45,0.00,,,37.98,VWS V14.01,2013-05-01 23:08:00,
2013-05-01 19:10:00,53.2,29.6,29.29,NW,315,4.0,6.0,40,0.00,,,37.98,VWS V14.01,2013-05-01 23:10:00,
2013-05-01 19:11:00,51.3,30.1,29.32,North,0,3.6,7.6,44,0.00,,,37.98,VWS V14.01,2013-05-01 23:11:00,
2013-05-01 19:12:00,51.1,30.0,29.32,North,0,4.0,6.0,44,0.00,,,37.98,VWS V14.01,2013-05-01 23:12:00,
2013-05-01 19:13:00,50.9,29.8,29.32,North,0,9.4,9.4,44,0.00,,,37.98,VWS V14.01,2013-05-01 23:13:00,
2013-05-01 19:14:00,50.9,29.8,29.32,NNW,338,2.9,9.4,44,0.00,,,37.98,VWS V14.01,2013-05-01 23:14:00,
2013-05-01 19:15:00,52.7,29.7,29.29,NNE,22,4.9,4.9,41,0.00,,,37.98,VWS V14.01,2013-05-01 23:15:00,
2013-05-01 19:16:00,50.5,30.0,29.32,NNE,22,3.4,10.7,45,0.00,,,37.98,VWS V14.01,2013-05-01 23:16:00,
2013-05-01 19:17:00,50.5,30.0,29.32,NNW,338,3.4,5.4,45,0.00,,,37.98,VWS V14.01,2013-05-01 23:17:00,
2013-05-01 19:18:00,50.5,30.0,29.32,NW,315,3.4,5.4,45,0.00,,,37.98,VWS V14.01,2013-05-01 23:18:00,
2013-05-01 19:19:00,50.4,29.8,29.32,North,0,3.8,6.3,45,0.00,,,37.98,VWS V14.01,2013-05-01 23:19:00,
2013-05-01 19:20:00,50.4,30.4,29.32,NW,315,2.9,6.9,46,0.00,,,37.98,VWS V14.01,2013-05-01 23:20:00,
2013-05-01 19:21:00,52.5,30.1,29.29,NNW,338,4.0,5.8,42,0.00,,,37.98,VWS V14.01,2013-05-01 23:21:00,
2013-05-01 19:22:00,50.2,30.2,29.32,NNW,338,3.6,4.9,46,0.00,,,37.98,VWS V14.01,2013-05-01 23:22:00,
2013-05-01 19:23:00,50.2,30.2,29.32,NE,45,4.9,4.9,46,0.00,,,37.98,VWS V14.01,2013-05-01 23:23:00,
2013-05-01 19:24:00,50.2,30.2,29.32,NNE,22,2.9,4.9,46,0.00,,,37.98,VWS V14.01,2013-05-01 23:24:00,
2013-05-01 19:25:00,50.2,30.2,29.32,NE,45,2.9,2.9,46,0.00,,,37.98,VWS V14.01,2013-05-01 23:25:00,
2013-05-01 19:26:00,52.3,30.5,29.29,NW,315,4.0,4.7,43,0.00,,,37.98,VWS V14.01,2013-05-01 23:26:00,
2013-05-01 19:27:00,50.2,30.2,29.32,WNW,292,7.6,7.6,46,0.00,,,37.98,VWS V14.01,2013-05-01 23:27:00,
2013-05-01 19:28:00,50.0,30.0,29.32,West,270,5.4,7.6,46,0.00,,,37.98,VWS V14.01,2013-05-01 23:28:00,
2013-05-01 19:29:00,50.0,30.0,29.32,NNW,338,3.4,6.5,46,0.00,,,37.98,VWS V14.01,2013-05-01 23:29:00,
2013-05-01 19:30:00,50.0,30.0,29.32,NNE,22,2.5,3.4,46,0.00,,,37.98,VWS V14.01,2013-05-01 23:30:00,
2013-05-01 19:31:00,52.5,30.7,29.29,NNW,338,3.4,4.9,43,0.00,,,37.98,VWS V14.01,2013-05-01 23:31:00,
2013-05-01 19:32:00,49.8,30.4,29.32,NNW,338,4.9,7.6,47,0.00,,,37.98,VWS V14.01,2013-05-01 23:32:00,
2013-05-01 19:33:00,49.6,30.2,29.32,NNW,338,4.3,8.5,47,0.00,,,37.98,VWS V14.01,2013-05-01 23:33:00,
2013-05-01 19:34:00,49.5,30.1,29.32,NNE,22,4.3,5.4,47,0.00,,,37.98,VWS V14.01,2013-05-01 23:34:00,
2013-05-01 19:35:00,49.5,30.1,29.32,WNW,292,3.1,5.6,47,0.00,,,37.98,VWS V14.01,2013-05-01 23:35:00,
2013-05-01 19:36:00,52.7,30.9,29.29,NNW,338,2.9,3.8,43,0.00,,,37.98,VWS V14.01,2013-05-01 23:36:00,
2013-05-01 19:37:00,49.3,29.9,29.32,NW,315,3.8,7.8,47,0.00,,,37.98,VWS V14.01,2013-05-01 23:37:00,
2013-05-01 19:38:00,49.3,29.9,29.32,NNE,22,3.8,4.7,47,0.00,,,37.98,VWS V14.01,2013-05-01 23:38:00,
2013-05-01 19:39:00,48.9,30.1,29.32,NNW,338,5.8,10.3,48,0.00,,,37.98,VWS V14.01,2013-05-01 23:39:00,
2013-05-01 19:40:00,48.7,29.9,29.35,North,0,4.7,5.8,48,0.00,,,37.98,VWS V14.01,2013-05-01 23:40:00,
2013-05-01 19:41:00,52.9,31.0,29.32,NW,315,3.8,3.8,43,0.00,,,37.98,VWS V14.01,2013-05-01 23:41:00,
2013-05-01 19:42:00,48.7,29.9,29.35,WSW,248,4.3,4.7,48,0.00,,,37.98,VWS V14.01,2013-05-01 23:42:00,
2013-05-01 19:44:00,48.7,29.9,29.35,ENE,68,4.5,6.5,48,0.00,,,37.98,VWS V14.01,2013-05-01 23:44:00,
2013-05-01 19:45:00,48.7,29.9,29.35,ENE,68,4.5,4.5,48,0.00,,,37.98,VWS V14.01,2013-05-01 23:45:00,
2013-05-01 19:46:00,52.5,30.7,29.32,WNW,292,5.8,5.8,43,0.00,,,37.98,VWS V14.01,2013-05-01 23:46:00,
2013-05-01 19:47:00,48.4,30.1,29.35,North,0,4.0,8.5,49,0.00,,,37.98,VWS V14.01,2013-05-01 23:47:00,
2013-05-01 19:48:00,48.4,30.1,29.35,NW,315,3.8,7.8,49,0.00,,,37.98,VWS V14.01,2013-05-01 23:48:00,
2013-05-01 19:49:00,48.4,30.1,29.35,WNW,292,4.3,6.0,49,0.00,,,37.98,VWS V14.01,2013-05-01 23:49:00,
2013-05-01 19:50:00,48.4,30.1,29.35,NE,45,3.4,6.0,49,0.00,,,37.98,VWS V14.01,2013-05-01 23:50:00,
2013-05-01 19:51:00,52.3,30.5,29.32,NNW,338,3.1,3.8,43,0.00,,,37.98,VWS V14.01,2013-05-01 23:51:00,
2013-05-01 19:52:00,48.4,30.1,29.35,NNW,338,6.0,6.7,49,0.00,,,37.98,VWS V14.01,2013-05-01 23:52:00,
2013-05-01 19:53:00,48.4,30.1,29.35,WSW,248,4.0,7.6,49,0.00,,,37.98,VWS V14.01,2013-05-01 23:53:00,
2013-05-01 19:54:00,48.4,30.1,29.35,NNW,338,4.0,5.4,49,0.00,,,37.98,VWS V14.01,2013-05-01 23:54:00,
2013-05-01 19:55:00,48.6,30.3,29.35,ENE,68,2.2,4.0,49,0.00,,,37.98,VWS V14.01,2013-05-01 23:55:00,
2013-05-01 19:56:00,52.2,30.4,29.32,WNW,292,3.6,6.0,43,0.00,,,37.98,VWS V14.01,2013-05-01 23:56:00,
2013-05-01 19:57:00,48.6,30.3,29.35,NNW,338,2.9,8.5,49,0.00,,,37.98,VWS V14.01,2013-05-01 23:57:00,
2013-05-01 19:58:00,48.4,30.1,29.35,NNE,22,3.4,6.0,49,0.00,,,37.98,VWS V14.01,2013-05-01 23:58:00,
2013-05-01 19:59:00,48.6,30.3,29.35,NW,315,3.4,4.7,49,0.00,,,37.98,VWS V14.01,2013-05-01 23:59:00,
2013-05-01 20:00:00,48.6,30.3,29.35,NW,315,3.4,5.4,49,0.00,,,37.98,VWS V14.01,2013-05-02 00:00:00,
2013-05-01 20:01:00,51.8,30.0,29.32,NW,315,3.4,5.8,43,0.00,,,37.98,VWS V14.01,2013-05-02 00:01:00,
2013-05-01 20:02:00,48.4,30.1,29.35,NNW,338,2.5,6.0,49,0.00,,,37.98,VWS V14.01,2013-05-02 00:02:00,
2013-05-01 20:03:00,48.4,30.1,29.35,NW,315,6.0,8.5,49,0.00,,,37.98,VWS V14.01,2013-05-02 00:03:00,
2013-05-01 20:04:00,48.4,30.1,29.35,NW,315,4.0,6.3,49,0.00,,,37.98,VWS V14.01,2013-05-02 00:04:00,
2013-05-01 20:05:00,48.2,30.0,29.35,NNE,22,4.0,4.0,49,0.00,,,37.98,VWS V14.01,2013-05-02 00:05:00,
2013-05-01 20:06:00,51.4,30.3,29.32,North,0,4.0,6.3,44,0.00,,,37.98,VWS V14.01,2013-05-02 00:06:00,
2013-05-01 20:07:00,48.2,30.0,29.38,North,0,5.4,5.4,49,0.00,,,37.98,VWS V14.01,2013-05-02 00:07:00,
2013-05-01 20:08:00,48.4,30.1,29.38,NW,315,2.7,5.4,49,0.00,,,37.98,VWS V14.01,2013-05-02 00:08:00,
2013-05-01 20:09:00,48.4,30.1,29.38,NW,315,7.8,7.8,49,0.00,,,37.98,VWS V14.01,2013-05-02 00:09:00,
2013-05-01 20:10:00,48.4,30.6,29.38,NNE,22,3.4,7.8,50,0.00,,,37.98,VWS V14.01,2013-05-02 00:10:00,
2013-05-01 20:11:00,51.3,30.1,29.32,North,0,3.6,7.6,44,0.00,,,37.98,VWS V14.01,2013-05-02 00:11:00,
2013-05-01 20:12:00,48.4,30.6,29.38,ENE,68,2.7,7.4,50,0.00,,,37.98,VWS V14.01,2013-05-02 00:12:00,
2013-05-01 20:13:00,48.4,30.6,29.38,NNE,22,2.7,6.0,50,0.00,,,37.98,VWS V14.01,2013-05-02 00:13:00,
2013-05-01 20:14:00,48.4,30.6,29.38,NNE,22,2.7,2.7,50,0.00,,,37.98,VWS V14.01,2013-05-02 00:14:00,
2013-05-01 20:15:00,48.6,30.8,29.38,NNW,338,7.4,7.4,50,0.00,,,37.98,VWS V14.01,2013-05-02 00:15:00,
2013-05-01 20:16:00,50.5,30.0,29.32,NNE,22,3.4,3.4,45,0.00,,,37.98,VWS V14.01,2013-05-02 00:16:00,
2013-05-01 20:17:00,48.6,30.8,29.38,NNW,338,3.4,4.0,50,0.00,,,37.98,VWS V14.01,2013-05-02 00:17:00,
2013-05-01 20:19:00,48.6,30.8,29.38,NNE,22,3.4,3.8,50,0.00,,,37.98,VWS V14.01,2013-05-02 00:19:00,
2013-05-01 20:20:00,48.6,30.8,29.38,NNW,338,5.8,5.8,50,0.00,,,37.98,VWS V14.01,2013-05-02 00:20:00,
2013-05-01 20:21:00,50.4,30.4,29.32,NNE,22,3.1,6.5,46,0.00,,,37.98,VWS V14.01,2013-05-02 00:21:00,
2013-05-01 20:22:00,48.6,30.3,29.38,WNW,292,1.6,6.3,49,0.00,,,37.98,VWS V14.01,2013-05-02 00:22:00,
2013-05-01 20:23:00,48.6,30.3,29.38,NNE,22,5.4,5.4,49,0.00,,,37.98,VWS V14.01,2013-05-02 00:23:00,
2013-05-01 20:24:00,48.6,30.3,29.38,NNE,22,3.4,7.2,49,0.00,,,37.98,VWS V14.01,2013-05-02 00:24:00,
2013-05-01 20:25:00,48.6,30.3,29.38,North,0,4.3,4.3,49,0.00,,,37.98,VWS V14.01,2013-05-02 00:25:00,
2013-05-01 20:26:00,50.2,30.2,29.32,NNW,338,4.0,4.0,46,0.00,,,37.98,VWS V14.01,2013-05-02 00:26:00,
2013-05-01 20:27:00,48.6,30.3,29.38,North,0,3.6,3.6,49,0.00,,,37.98,VWS V14.01,2013-05-02 00:27:00,
2013-05-01 20:28:00,48.6,30.3,29.38,North,0,4.3,4.3,49,0.00,,,37.98,VWS V14.01,2013-05-02 00:28:00,
2013-05-01 20:30:00,48.7,30.5,29.38,NNE,22,3.4,4.3,49,0.00,,,37.98,VWS V14.01,2013-05-02 00:30:00,
2013-05-01 20:31:00,49.8,30.4,29.32,NW,315,7.6,7.6,47,0.00,,,37.98,VWS V14.01,2013-05-02 00:31:00,
2013-05-01 20:32:00,48.6,30.3,29.38,NNE,22,3.8,3.8,49,0.00,,,37.98,VWS V14.01,2013-05-02 00:32:00,
2013-05-01 20:33:00,48.6,30.3,29.38,North,0,3.4,4.7,49,0.00,,,37.98,VWS V14.01,2013-05-02 00:33:00,
2013-05-01 20:34:00,48.6,30.3,29.38,NW,315,2.0,4.0,49,0.00,,,37.98,VWS V14.01,2013-05-02 00:34:00,
2013-05-01 20:35:00,48.6,30.3,29.38,NNW,338,3.6,4.9,49,0.00,,,37.98,VWS V14.01,2013-05-02 00:35:00,
2013-05-01 20:36:00,49.3,29.9,29.32,NNE,22,3.8,7.8,47,0.00,,,37.98,VWS V14.01,2013-05-02 00:36:00,
2013-05-01 20:37:00,48.4,30.1,29.38,NW,315,3.1,3.1,49,0.00,,,37.98,VWS V14.01,2013-05-02 00:37:00,
2013-05-01 20:38:00,48.2,30.0,29.38,NNW,338,3.1,5.6,49,0.00,,,37.98,VWS V14.01,2013-05-02 00:38:00,
2013-05-01 20:39:00,48.2,30.0,29.38,NNE,22,3.8,4.9,49,0.00,,,37.98,VWS V14.01,2013-05-02 00:39:00,
2013-05-01 20:40:00,48.2,30.0,29.38,North,0,2.9,7.4,49,0.00,,,37.98,VWS V14.01,2013-05-02 00:40:00,
2013-05-01 20:41:00,48.7,29.9,29.35,NNW,338,3.8,4.7,48,0.00,,,37.98,VWS V14.01,2013-05-02 00:41:00,
2013-05-01 20:42:00,48.0,30.3,29.38,North,0,2.9,4.0,50,0.00,,,37.98,VWS V14.01,2013-05-02 00:42:00,
2013-05-01 20:43:00,48.0,30.3,29.38,North,0,2.9,2.9,50,0.00,,,37.98,VWS V14.01,2013-05-02 00:43:00,
2013-05-01 20:44:00,47.7,30.0,29.38,NNW,338,5.6,6.5,50,0.00,,,37.98,VWS V14.01,2013-05-02 00:44:00,
2013-05-01 20:45:00,47.7,30.0,29.38,NNW,338,5.6,5.6,50,0.00,,,37.98,VWS V14.01,2013-05-02 00:45:00,
2013-05-01 20:46:00,48.4,30.1,29.35,NNW,338,3.6,5.6,49,0.00,,,37.98,VWS V14.01,2013-05-02 00:46:00,
2013-05-01 20:47:00,47.5,29.8,29.38,NNW,338,3.6,5.6,50,0.00,,,37.98,VWS V14.01,2013-05-02 00:47:00,
2013-05-01 20:48:00,47.5,29.8,29.38,NNE,22,2.0,3.6,50,0.00,,,37.98,VWS V14.01,2013-05-02 00:48:00,
2013-05-01 20:49:00,47.5,29.8,29.38,NNE,22,3.1,3.6,50,0.00,,,37.98,VWS V14.01,2013-05-02 00:49:00,
2013-05-01 20:50:00,47.5,29.8,29.38,NNE,22,1.6,3.4,50,0.00,,,37.98,VWS V14.01,2013-05-02 00:50:00,
2013-05-01 20:51:00,48.4,30.1,29.35,ENE,68,4.7,5.8,49,0.00,,,37.98,VWS V14.01,2013-05-02 00:51:00,
2013-05-01 20:52:00,47.5,29.8,29.35,NNW,338,3.1,5.4,50,0.00,,,37.98,VWS V14.01,2013-05-02 00:52:00,
2013-05-01 20:53:00,47.5,29.8,29.35,WNW,292,2.7,3.1,50,0.00,,,37.98,VWS V14.01,2013-05-02 00:53:00,
2013-05-01 20:55:00,47.3,29.6,29.35,WNW,292,2.2,3.4,50,0.00,,,37.98,VWS V14.01,2013-05-02 00:55:00,
2013-05-01 20:56:00,48.6,30.3,29.35,NNW,338,8.5,8.5,49,0.00,,,37.98,VWS V14.01,2013-05-02 00:56:00,
2013-05-01 20:57:00,47.1,29.9,29.35,WNW,292,6.0,6.0,51,0.00,,,37.98,VWS V14.01,2013-05-02 00:57:00,
2013-05-01 20:58:00,47.1,29.9,29.35,NNW,338,3.6,6.0,51,0.00,,,37.98,VWS V14.01,2013-05-02 00:58:00,
2013-05-01 20:59:00,47.1,29.9,29.35,ENE,68,2.5,3.6,51,0.00,,,37.98,VWS V14.01,2013-05-02 00:59:00,
2013-05-01 21:00:00,47.1,29.9,29.35,NW,315,4.0,4.0,51,0.00,,,37.98,VWS V14.01,2013-05-02 01:00:00,
2013-05-01 21:01:00,48.4,30.1,29.35,NNE,22,5.6,6.0,49,0.00,,,37.98,VWS V14.01,2013-05-02 01:01:00,
2013-05-01 21:02:00,47.1,29.9,29.35,NW,315,2.5,3.6,51,0.00,,,37.98,VWS V14.01,2013-05-02 01:02:00,
2013-05-01 21:03:00,46.9,29.8,29.35,NW,315,3.1,3.6,51,0.00,,,37.98,VWS V14.01,2013-05-02 01:03:00,
2013-05-01 21:04:00,46.9,29.8,29.35,WNW,292,3.6,3.6,51,0.00,,,37.98,VWS V14.01,2013-05-02 01:04:00,
2013-05-01 21:05:00,46.6,29.4,29.35,NNE,22,2.2,4.9,51,0.00,,,37.98,VWS V14.01,2013-05-02 01:05:00,
2013-05-01 21:06:00,48.2,30.0,29.35,NNW,338,3.1,3.4,49,0.00,,,37.98,VWS V14.01,2013-05-02 01:06:00,
2013-05-01 21:07:00,46.4,29.3,29.38,North,0,2.5,3.8,51,0.00,,,37.98,VWS V14.01,2013-05-02 01:07:00,
2013-05-01 21:08:00,46.4,29.3,29.38,NNE,22,4.9,4.9,51,0.00,,,37.98,VWS V14.01,2013-05-02 01:08:00,
2013-05-01 21:09:00,46.2,29.1,29.38,NE,45,2.7,6.5,51,0.00,,,37.98,VWS V14.01,2013-05-02 01:09:00,
2013-05-01 21:10:00,46.2,29.1,29.38,NNW,338,3.4,4.0,51,0.00,,,37.98,VWS V14.01,2013-05-02 01:10:00,
2013-05-01 21:11:00,48.4,30.6,29.38,NNW,338,7.4,7.4,50,0.00,,,37.98,VWS V14.01,2013-05-02 01:11:00,
2013-05-01 21:12:00,46.2,29.1,29.38,NNW,338,3.8,3.8,51,0.00,,,37.98,VWS V14.01,2013-05-02 01:12:00,
2013-05-01 21:13:00,46.0,28.9,29.38,NE,45,2.2,3.8,51,0.00,,,37.98,VWS V14.01,2013-05-02 01:13:00,
2013-05-01 21:14:00,46.0,29.4,29.38,NNW,338,2.7,4.0,52,0.00,,,37.98,VWS V14.01,2013-05-02 01:14:00,
2013-05-01 21:15:00,45.9,29.2,29.38,NNW,338,2.7,6.0,52,0.00,,,37.98,VWS V14.01,2013-05-02 01:15:00,
2013-05-01 21:16:00,48.6,30.8,29.38,North,0,3.8,4.0,50,0.00,,,37.98,VWS V14.01,2013-05-02 01:16:00,
2013-05-01 21:17:00,45.7,29.1,29.38,NE,45,4.0,8.5,52,0.00,,,37.98,VWS V14.01,2013-05-02 01:17:00,
2013-05-01 21:18:00,45.5,28.9,29.38,NNE,22,4.0,6.3,52,0.00,,,37.98,VWS V14.01,2013-05-02 01:18:00,
2013-05-01 21:19:00,45.5,28.9,29.38,NNE,22,3.6,4.9,52,0.00,,,37.98,VWS V14.01,2013-05-02 01:19:00,
2013-05-01 21:20:00,45.5,28.9,29.38,North,0,2.5,3.6,52,0.00,,,37.98,VWS V14.01,2013-05-02 01:20:00,
2013-05-01 21:21:00,48.6,30.3,29.38,NNE,22,4.3,4.3,49,0.00,,,37.98,VWS V14.01,2013-05-02 01:21:00,
2013-05-01 21:22:00,45.3,29.2,29.41,NW,315,4.0,4.9,53,0.00,,,37.98,VWS V14.01,2013-05-02 01:22:00,
2013-05-01 21:23:00,45.1,29.0,29.41,North,0,3.4,4.0,53,0.00,,,37.98,VWS V14.01,2013-05-02 01:23:00,
2013-05-01 21:24:00,45.1,29.0,29.41,NNE,22,3.6,3.6,53,0.00,,,37.98,VWS V14.01,2013-05-02 01:24:00,
2013-05-01 21:25:00,45.1,29.0,29.41,NE,45,5.4,8.7,53,0.00,,,37.98,VWS V14.01,2013-05-02 01:25:00,
2013-05-01 21:26:00,48.6,30.3,29.38,North,0,2.7,2.9,49,0.00,,,37.98,VWS V14.01,2013-05-02 01:26:00,
2013-05-01 21:27:00,45.1,29.0,29.41,NE,45,2.9,4.3,53,0.00,,,37.98,VWS V14.01,2013-05-02 01:27:00,
2013-05-01 21:28:00,45.0,28.9,29.41,North,0,5.4,5.6,53,0.00,,,37.98,VWS V14.01,2013-05-02 01:28:00,
2013-05-01 21:29:00,45.0,28.9,29.41,NNE,22,3.8,5.4,53,0.00,,,37.98,VWS V14.01,2013-05-02 01:29:00,
2013-05-01 21:30:00,45.0,28.9,29.41,NNE,22,3.8,3.8,53,0.00,,,37.98,VWS V14.01,2013-05-02 01:30:00,
2013-05-01 21:31:00,48.6,30.3,29.38,NW,315,2.0,3.6,49,0.00,,,37.98,VWS V14.01,2013-05-02 01:31:00,
2013-05-01 21:32:00,45.0,28.9,29.41,NE,45,2.9,3.4,53,0.00,,,37.98,VWS V14.01,2013-05-02 01:32:00,
2013-05-01 21:33:00,45.0,28.9,29.41,NNE,22,3.1,3.8,53,0.00,,,37.98,VWS V14.01,2013-05-02 01:33:00,
2013-05-01 21:34:00,45.0,28.9,29.41,North,0,3.1,3.1,53,0.00,,,37.98,VWS V14.01,2013-05-02 01:34:00,
2013-05-01 21:35:00,45.0,28.9,29.41,NW,315,1.6,3.8,53,0.00,,,37.98,VWS V14.01,2013-05-02 01:35:00,
2013-05-01 21:36:00,48.4,30.1,29.38,NNE,22,0.9,2.9,49,0.00,,,37.98,VWS V14.01,2013-05-02 01:36:00,
2013-05-01 21:37:00,45.0,28.9,29.41,NNW,338,3.6,3.6,53,0.00,,,37.98,VWS V14.01,2013-05-02 01:37:00,
2013-05-01 21:38:00,45.0,28.9,29.41,SSW,202,4.3,4.3,53,0.00,,,37.98,VWS V14.01,2013-05-02 01:38:00,
2013-05-01 21:39:00,45.0,29.3,29.41,NW,315,3.1,4.3,54,0.00,,,37.98,VWS V14.01,2013-05-02 01:39:00,
2013-05-01 21:40:00,45.0,28.9,29.41,ENE,68,2.7,3.1,53,0.00,,,37.98,VWS V14.01,2013-05-02 01:40:00,
2013-05-01 21:41:00,48.0,30.3,29.38,NE,45,4.0,4.0,50,0.00,,,37.98,VWS V14.01,2013-05-02 01:41:00,
2013-05-01 21:42:00,45.0,29.3,29.41,NE,45,3.6,3.6,54,0.00,,,37.98,VWS V14.01,2013-05-02 01:42:00,
2013-05-01 21:43:00,45.0,29.3,29.41,NNW,338,2.5,3.6,54,0.00,,,37.98,VWS V14.01,2013-05-02 01:43:00,
2013-05-01 21:44:00,45.0,29.3,29.41,NNE,22,2.5,2.9,54,0.00,,,37.98,VWS V14.01,2013-05-02 01:44:00,
2013-05-01 21:45:00,44.8,29.2,29.41,NNE,22,2.9,4.0,54,0.00,,,37.98,VWS V14.01,2013-05-02 01:45:00,
2013-05-01 21:46:00,47.5,29.8,29.38,NNW,338,4.3,4.3,50,0.00,,,37.98,VWS V14.01,2013-05-02 01:46:00,
2013-05-01 21:47:00,44.8,29.2,29.41,North,0,2.5,3.6,54,0.00,,,37.98,VWS V14.01,2013-05-02 01:47:00,
2013-05-01 21:48:00,44.8,29.2,29.41,ENE,68,2.0,3.8,54,0.00,,,37.98,VWS V14.01,2013-05-02 01:48:00,
2013-05-01 21:49:00,44.6,29.0,29.41,North,0,7.8,7.8,54,0.00,,,37.98,VWS V14.01,2013-05-02 01:49:00,
2013-05-01 21:50:00,44.6,29.0,29.41,NNE,22,3.6,7.8,54,0.00,,,37.98,VWS V14.01,2013-05-02 01:50:00,
2013-05-01 21:51:00,47.5,29.8,29.35,NNW,338,3.1,5.4,50,0.00,,,37.98,VWS V14.01,2013-05-02 01:51:00,
2013-05-01 21:52:00,44.6,29.0,29.41,NE,45,3.1,3.8,54,0.00,,,37.98,VWS V14.01,2013-05-02 01:52:00,
2013-05-01 21:53:00,44.6,29.0,29.41,North,0,3.1,3.8,54,0.00,,,37.98,VWS V14.01,2013-05-02 01:53:00,
2013-05-01 21:54:00,44.6,29.0,29.41,NNW,338,2.7,3.1,54,0.00,,,37.98,VWS V14.01,2013-05-02 01:54:00,
2013-05-01 21:55:00,44.4,28.8,29.41,NNW,338,3.1,3.6,54,0.00,,,37.98,VWS V14.01,2013-05-02 01:55:00,
2013-05-01 21:56:00,47.1,29.5,29.35,NW,315,2.5,4.9,50,0.00,,,37.98,VWS V14.01,2013-05-02 01:56:00,
2013-05-01 21:57:00,44.4,28.8,29.41,NNW,338,3.8,3.8,54,0.00,,,37.98,VWS V14.01,2013-05-02 01:57:00,
2013-05-01 21:58:00,44.4,28.8,29.41,North,0,2.5,3.8,54,0.00,,,37.98,VWS V14.01,2013-05-02 01:58:00,
2013-05-01 21:59:00,44.2,28.7,29.41,North,0,1.3,2.9,54,0.00,,,37.98,VWS V14.01,2013-05-02 01:59:00,
2013-05-01 22:00:00,44.2,28.7,29.41,NE,45,1.6,4.7,54,0.00,,,37.98,VWS V14.01,2013-05-02 02:00:00,
2013-05-01 22:01:00,47.1,29.9,29.35,NNE,22,3.6,3.6,51,0.00,,,37.98,VWS V14.01,2013-05-02 02:01:00,
2013-05-01 22:02:00,44.2,28.7,29.41,NNE,22,3.6,4.7,54,0.00,,,37.98,VWS V14.01,2013-05-02 02:02:00,
2013-05-01 22:03:00,44.1,28.5,29.41,NE,45,3.1,3.6,54,0.00,,,37.98,VWS V14.01,2013-05-02 02:03:00,
2013-05-01 22:04:00,44.1,28.9,29.41,ENE,68,4.0,4.3,55,0.00,,,37.98,VWS V14.01,2013-05-02 02:04:00,
2013-05-01 22:05:00,44.1,28.9,29.41,NNE,22,2.5,4.0,55,0.00,,,37.98,VWS V14.01,2013-05-02 02:05:00,
2013-05-01 22:06:00,46.4,29.3,29.38,NNW,338,2.7,3.8,51,0.00,,,37.98,VWS V14.01,2013-05-02 02:06:00,
2013-05-01 22:07:00,44.1,28.9,29.41,NNE,22,1.1,5.6,55,0.00,,,37.98,VWS V14.01,2013-05-02 02:07:00,
2013-05-01 22:08:00,44.1,28.9,29.41,NNE,22,1.1,1.1,55,0.00,,,37.98,VWS V14.01,2013-05-02 02:08:00,
2013-05-01 22:09:00,43.9,28.8,29.41,NW,315,1.3,3.4,55,0.00,,,37.98,VWS V14.01,2013-05-02 02:09:00,
2013-05-01 22:10:00,43.9,28.8,29.41,North,0,2.7,2.7,55,0.00,,,37.98,VWS V14.01,2013-05-02 02:10:00,
2013-05-01 22:11:00,46.2,29.1,29.38,WNW,292,3.1,3.1,51,0.00,,,37.98,VWS V14.01,2013-05-02 02:11:00,
2013-05-01 22:12:00,43.7,28.6,29.41,NNE,22,2.2,3.6,55,0.00,,,37.98,VWS V14.01,2013-05-02 02:12:00,
2013-05-01 22:13:00,43.7,28.6,29.41,NW,315,5.6,6.7,55,0.00,,,37.98,VWS V14.01,2013-05-02 02:13:00,
2013-05-01 22:14:00,43.7,29.0,29.41,WNW,292,1.6,5.6,56,0.00,,,37.98,VWS V14.01,2013-05-02 02:14:00,
2013-05-01 22:15:00,43.5,28.9,29.41,NNE,22,1.6,4.0,56,0.00,,,37.98,VWS V14.01,2013-05-02 02:15:00,
2013-05-01 22:16:00,45.7,29.1,29.38,NNW,338,6.3,8.5,52,0.00,,,37.98,VWS V14.01,2013-05-02 02:16:00,
2013-05-01 22:18:00,43.5,28.9,29.41,NE,45,3.1,3.1,56,0.00,,,37.98,VWS V14.01,2013-05-02 02:18:00,
2013-05-01 22:19:00,43.5,28.9,29.41,WNW,292,1.6,4.3,56,0.00,,,37.98,VWS V14.01,2013-05-02 02:19:00,
2013-05-01 22:20:00,43.5,28.9,29.41,North,0,3.8,3.8,56,0.00,,,37.98,VWS V14.01,2013-05-02 02:20:00,
2013-05-01 22:21:00,45.3,29.2,29.41,WNW,292,3.8,4.9,53,0.00,,,37.98,VWS V14.01,2013-05-02 02:21:00,
2013-05-01 22:22:00,43.5,28.9,29.44,North,0,1.1,2.7,56,0.00,,,37.98,VWS V14.01,2013-05-02 02:22:00,
2013-05-01 22:23:00,43.5,28.9,29.44,NNW,338,2.5,3.6,56,0.00,,,37.98,VWS V14.01,2013-05-02 02:23:00,
2013-05-01 22:24:00,43.5,28.9,29.44,NE,45,1.3,2.5,56,0.00,,,37.98,VWS V14.01,2013-05-02 02:24:00,
2013-05-01 22:25:00,43.5,28.9,29.44,ENE,68,2.2,2.2,56,0.00,,,37.98,VWS V14.01,2013-05-02 02:25:00,
2013-05-01 22:26:00,43.5,28.9,29.44,NNW,338,2.5,2.5,56,0.00,,,37.98,VWS V14.01,2013-05-02 02:26:00,
2013-05-01 22:27:00,45.1,29.0,29.41,NE,45,2.5,4.3,53,0.00,,,37.98,VWS V14.01,2013-05-02 02:27:00,
2013-05-01 22:29:00,43.5,28.9,29.44,WNW,292,1.1,3.1,56,0.00,,,37.98,VWS V14.01,2013-05-02 02:29:00,
2013-05-01 22:30:00,43.5,28.9,29.44,NNW,338,0.0,2.2,56,0.00,,,37.98,VWS V14.01,2013-05-02 02:30:00,
2013-05-01 22:31:00,43.5,28.9,29.44,North,0,1.1,1.1,56,0.00,,,37.98,VWS V14.01,2013-05-02 02:31:00,
2013-05-01 22:32:00,45.0,28.9,29.41,North,0,2.7,3.4,53,0.00,,,37.98,VWS V14.01,2013-05-02 02:32:00,
2013-05-01 22:33:00,43.3,28.7,29.44,NNE,22,2.0,2.2,56,0.00,,,37.98,VWS V14.01,2013-05-02 02:33:00,
2013-05-01 22:34:00,43.3,28.7,29.44,NNW,338,1.3,2.0,56,0.00,,,37.98,VWS V14.01,2013-05-02 02:34:00,
2013-05-01 22:35:00,43.3,29.1,29.44,North,0,2.0,2.9,57,0.00,,,37.98,VWS V14.01,2013-05-02 02:35:00,
2013-05-01 22:36:00,43.2,29.0,29.44,NNE,22,3.1,3.1,57,0.00,,,37.98,VWS V14.01,2013-05-02 02:36:00,
2013-05-01 22:37:00,45.0,28.9,29.41,NNW,338,3.6,3.6,53,0.00,,,37.98,VWS V14.01,2013-05-02 02:37:00,
2013-05-01 22:38:00,43.0,28.8,29.44,NNE,22,2.5,3.1,57,0.00,,,37.98,VWS V14.01,2013-05-02 02:38:00,
2013-05-01 22:39:00,43.0,28.8,29.44,North,0,2.7,2.7,57,0.00,,,37.98,VWS V14.01,2013-05-02 02:39:00,
2013-05-01 22:40:00,43.0,28.8,29.44,North,0,2.7,3.4,57,0.00,,,37.98,VWS V14.01,2013-05-02 02:40:00,
2013-05-01 22:41:00,43.0,28.8,29.44,North,0,3.4,3.4,57,0.00,,,37.98,VWS V14.01,2013-05-02 02:41:00,
2013-05-01 22:42:00,45.0,29.3,29.41,NE,45,3.6,3.6,54,0.00,,,37.98,VWS V14.01,2013-05-02 02:42:00,
2013-05-01 22:43:00,42.8,28.6,29.44,North,0,0.0,3.4,57,0.00,,,37.98,VWS V14.01,2013-05-02 02:43:00,
2013-05-01 22:44:00,42.8,28.6,29.44,NNE,22,1.6,1.6,57,0.00,,,37.98,VWS V14.01,2013-05-02 02:44:00,
2013-05-01 22:45:00,42.8,28.6,29.44,NNE,22,1.1,2.5,57,0.00,,,37.98,VWS V14.01,2013-05-02 02:45:00,
2013-05-01 22:46:00,42.8,28.6,29.44,WNW,292,0.0,1.1,57,0.00,,,37.98,VWS V14.01,2013-05-02 02:46:00,
2013-05-01 22:47:00,44.8,29.2,29.41,North,0,2.5,3.6,54,0.00,,,37.98,VWS V14.01,2013-05-02 02:47:00,
2013-05-01 22:48:00,42.8,28.6,29.44,WNW,292,2.5,2.5,57,0.00,,,37.98,VWS V14.01,2013-05-02 02:48:00,
2013-05-01 22:49:00,42.6,28.9,29.44,NW,315,0.0,2.7,58,0.00,,,37.98,VWS V14.01,2013-05-02 02:49:00,
2013-05-01 22:50:00,42.4,28.7,29.44,North,0,1.6,1.6,58,0.00,,,37.98,VWS V14.01,2013-05-02 02:50:00,
2013-05-01 22:52:00,44.6,29.0,29.41,NE,45,3.1,3.8,54,0.00,,,37.98,VWS V14.01,2013-05-02 02:52:00,
2013-05-01 22:53:00,42.3,29.0,29.44,North,0,2.0,3.1,59,0.00,,,37.98,VWS V14.01,2013-05-02 02:53:00,
2013-05-01 22:54:00,42.3,29.0,29.44,NE,45,1.6,2.9,59,0.00,,,37.98,VWS V14.01,2013-05-02 02:54:00,
2013-05-01 22:55:00,42.3,29.0,29.44,North,0,2.2,2.2,59,0.00,,,37.98,VWS V14.01,2013-05-02 02:55:00,
2013-05-01 22:56:00,42.3,29.0,29.44,NNW,338,1.1,2.2,59,0.00,,,37.98,VWS V14.01,2013-05-02 02:56:00,
2013-05-01 22:57:00,44.4,28.8,29.41,NNW,338,3.8,3.8,54,0.00,,,37.98,VWS V14.01,2013-05-02 02:57:00,
2013-05-01 22:58:00,42.1,28.8,29.44,NNW,338,2.0,2.0,59,0.00,,,37.98,VWS V14.01,2013-05-02 02:58:00,
2013-05-01 22:59:00,42.1,29.2,29.44,NW,315,2.2,3.8,60,0.00,,,37.98,VWS V14.01,2013-05-02 02:59:00,
2013-05-01 23:00:00,41.9,29.0,29.44,NW,315,1.6,4.3,60,0.00,,,37.98,VWS V14.01,2013-05-02 03:00:00,
2013-05-01 23:01:00,41.9,29.0,29.44,NNE,22,1.1,1.6,60,0.00,,,37.98,VWS V14.01,2013-05-02 03:01:00,
2013-05-01 23:02:00,44.2,28.7,29.41,North,0,3.1,4.7,54,0.00,,,37.98,VWS V14.01,2013-05-02 03:02:00,
2013-05-01 23:03:00,41.9,29.0,29.44,North,0,0.0,3.4,60,0.00,,,37.98,VWS V14.01,2013-05-02 03:03:00,
2013-05-01 23:04:00,41.9,29.0,29.44,NW,315,2.9,2.9,60,0.00,,,37.98,VWS V14.01,2013-05-02 03:04:00,
2013-05-01 23:05:00,41.9,29.5,29.44,NNW,338,0.9,2.9,61,0.00,,,37.98,VWS V14.01,2013-05-02 03:05:00,
2013-05-01 23:06:00,41.9,29.5,29.44,NNW,338,2.2,3.1,61,0.00,,,37.98,VWS V14.01,2013-05-02 03:06:00,
2013-05-01 23:07:00,44.1,28.9,29.41,NNE,22,1.1,5.6,55,0.00,,,37.98,VWS V14.01,2013-05-02 03:07:00,
2013-05-01 23:08:00,41.9,29.5,29.44,NNE,22,2.2,2.7,61,0.00,,,37.98,VWS V14.01,2013-05-02 03:08:00,
2013-05-01 23:09:00,41.9,29.5,29.44,NNW,338,2.9,2.9,61,0.00,,,37.98,VWS V14.01,2013-05-02 03:09:00,
2013-05-01 23:10:00,41.9,29.9,29.44,North,0,2.7,3.4,62,0.00,,,37.98,VWS V14.01,2013-05-02 03:10:00,
2013-05-01 23:11:00,41.9,29.9,29.44,North,0,1.6,2.7,62,0.00,,,37.98,VWS V14.01,2013-05-02 03:11:00,
2013-05-01 23:12:00,43.7,28.6,29.41,NNE,22,2.2,3.6,55,0.00,,,37.98,VWS V14.01,2013-05-02 03:12:00,
2013-05-01 23:13:00,41.9,29.9,29.44,North,0,2.7,2.9,62,0.00,,,37.98,VWS V14.01,2013-05-02 03:13:00,
2013-05-01 23:14:00,42.1,30.0,29.44,ENE,68,1.6,4.7,62,0.00,,,37.98,VWS V14.01,2013-05-02 03:14:00,
2013-05-01 23:15:00,42.1,30.4,29.44,NNW,338,2.7,3.4,63,0.00,,,37.98,VWS V14.01,2013-05-02 03:15:00,
2013-05-01 23:16:00,42.1,30.4,29.44,North,0,1.6,4.3,63,0.00,,,37.98,VWS V14.01,2013-05-02 03:16:00,
2013-05-01 23:17:00,43.5,28.9,29.41,NE,45,3.1,3.1,56,0.00,,,37.98,VWS V14.01,2013-05-02 03:17:00,
2013-05-01 23:18:00,42.1,30.4,29.44,North,0,2.2,2.2,63,0.00,,,37.98,VWS V14.01,2013-05-02 03:18:00,
2013-05-01 23:19:00,42.1,30.4,29.44,WNW,292,2.0,4.3,63,0.00,,,37.98,VWS V14.01,2013-05-02 03:19:00,
2013-05-01 23:20:00,42.1,30.4,29.44,NNW,338,2.0,2.7,63,0.00,,,37.98,VWS V14.01,2013-05-02 03:20:00,
2013-05-01 23:21:00,42.1,30.4,29.44,WNW,292,6.0,6.0,63,0.00,,,37.98,VWS V14.01,2013-05-02 03:21:00,
2013-05-01 23:22:00,43.5,28.9,29.44,NNW,338,1.6,1.6,56,0.00,,,37.98,VWS V14.01,2013-05-02 03:22:00,
2013-05-01 23:23:00,41.9,30.2,29.44,NNW,338,3.4,3.8,63,0.00,,,37.98,VWS V14.01,2013-05-02 03:23:00,
2013-05-01 23:24:00,41.9,30.2,29.44,NW,315,4.0,4.0,63,0.00,,,37.98,VWS V14.01,2013-05-02 03:24:00,
2013-05-01 23:25:00,41.9,30.2,29.44,North,0,4.9,4.9,63,0.00,,,37.98,VWS V14.01,2013-05-02 03:25:00,
2013-05-01 23:27:00,43.5,28.9,29.44,NW,315,1.6,3.1,56,0.00,,,37.98,VWS V14.01,2013-05-02 03:27:00,
2013-05-01 23:28:00,41.7,30.1,29.44,NNW,338,1.1,2.9,63,0.00,,,37.98,VWS V14.01,2013-05-02 03:28:00,
2013-05-01 23:29:00,41.5,29.9,29.44,NE,45,0.9,2.7,63,0.00,,,37.98,VWS V14.01,2013-05-02 03:29:00,
2013-05-01 23:30:00,41.5,29.9,29.44,NNW,338,0.0,0.9,63,0.00,,,37.98,VWS V14.01,2013-05-02 03:30:00,
2013-05-01 23:31:00,41.5,29.9,29.44,NNE,22,0.0,3.4,63,0.00,,,37.98,VWS V14.01,2013-05-02 03:31:00,
2013-05-01 23:32:00,43.5,28.9,29.44,North,0,1.3,1.3,56,0.00,,,37.98,VWS V14.01,2013-05-02 03:32:00,
2013-05-01 23:33:00,41.5,29.9,29.44,NNE,22,1.1,1.6,63,0.00,,,37.98,VWS V14.01,2013-05-02 03:33:00,
2013-05-01 23:34:00,41.5,29.9,29.44,NNE,22,1.1,1.1,63,0.00,,,37.98,VWS V14.01,2013-05-02 03:34:00,
2013-05-01 23:35:00,41.4,29.7,29.44,NE,45,1.1,2.5,63,0.00,,,37.98,VWS V14.01,2013-05-02 03:35:00,
2013-05-01 23:36:00,41.5,29.9,29.44,NE,45,1.1,1.1,63,0.00,,,37.98,VWS V14.01,2013-05-02 03:36:00,
2013-05-01 23:37:00,43.2,29.0,29.44,North,0,1.6,3.1,57,0.00,,,37.98,VWS V14.01,2013-05-02 03:37:00,
2013-05-01 23:38:00,41.4,29.7,29.44,NNW,338,2.5,2.9,63,0.00,,,37.98,VWS V14.01,2013-05-02 03:38:00,
2013-05-01 23:39:00,41.4,29.7,29.44,North,0,2.0,3.4,63,0.00,,,37.98,VWS V14.01,2013-05-02 03:39:00,
2013-05-01 23:40:00,41.4,29.7,29.44,NW,315,1.3,2.0,63,0.00,,,37.98,VWS V14.01,2013-05-02 03:40:00,
2013-05-01 23:41:00,41.4,30.1,29.44,NNW,338,1.6,1.6,64,0.00,,,37.98,VWS V14.01,2013-05-02 03:41:00,
2013-05-01 23:42:00,42.8,28.6,29.44,NNE,22,2.7,3.4,57,0.00,,,37.98,VWS V14.01,2013-05-02 03:42:00,
2013-05-01 23:43:00,41.4,30.1,29.44,ENE,68,2.2,2.2,64,0.00,,,37.98,VWS V14.01,2013-05-02 03:43:00,
2013-05-01 23:44:00,41.2,29.9,29.44,NNW,338,1.1,1.1,64,0.00,,,37.98,VWS V14.01,2013-05-02 03:44:00,
2013-05-01 23:45:00,41.2,29.9,29.44,NNW,338,3.1,3.1,64,0.00,,,37.98,VWS V14.01,2013-05-02 03:45:00,
2013-05-01 23:46:00,41.2,29.9,29.44,NNW,338,3.1,3.1,64,0.00,,,37.98,VWS V14.01,2013-05-02 03:46:00,
2013-05-01 23:47:00,42.8,28.6,29.44,NNE,22,0.0,0.9,57,0.00,,,37.98,VWS V14.01,2013-05-02 03:47:00,
2013-05-01 23:48:00,41.2,29.9,29.44,NNE,22,0.0,2.5,64,0.00,,,37.98,VWS V14.01,2013-05-02 03:48:00,
2013-05-01 23:49:00,41.2,29.9,29.44,NE,45,0.0,0.0,64,0.00,,,37.98,VWS V14.01,2013-05-02 03:49:00,
2013-05-01 23:50:00,41.0,29.8,29.44,NNW,338,0.0,2.0,64,0.00,,,37.98,VWS V14.01,2013-05-02 03:50:00,
2013-05-01 23:51:00,41.0,29.8,29.44,NE,45,0.0,2.0,64,0.00,,,37.98,VWS V14.01,2013-05-02 03:51:00,
2013-05-01 23:52:00,42.4,28.7,29.44,North,0,3.1,3.1,58,0.00,,,37.98,VWS V14.01,2013-05-02 03:52:00,
2013-05-01 23:53:00,41.0,29.8,29.44,NNE,22,1.3,1.6,64,0.00,,,37.98,VWS V14.01,2013-05-02 03:53:00,
2013-05-01 23:54:00,41.0,29.8,29.44,NW,315,0.0,2.2,64,0.00,,,37.98,VWS V14.01,2013-05-02 03:54:00,
2013-05-01 23:55:00,41.0,29.8,29.44,NNE,22,2.5,2.5,64,0.00,,,37.98,VWS V14.01,2013-05-02 03:55:00,
2013-05-01 23:56:00,41.0,29.8,29.44,NNW,338,2.5,2.5,64,0.00,,,37.98,VWS V14.01,2013-05-02 03:56:00,
2013-05-01 23:57:00,42.1,28.8,29.44,NNW,338,2.0,2.0,59,0.00,,,37.98,VWS V14.01,2013-05-02 03:57:00,
2013-05-01 23:58:00,40.8,30.0,29.44,North,0,0.0,2.2,65,0.00,,,37.98,VWS V14.01,2013-05-02 03:58:00,
2013-05-01 23:59:00,40.8,30.0,29.44,NNW,338,2.2,3.6,65,0.00,,,37.98,VWS V14.01,2013-05-02 03:59:00,